[[{"header":{"parameterUnit":"m.s-1","parameterCategory":1,"la1":30.6,"la2":28.766,"lo1":-90.7593,"lo2":-88.6598,"dy":0.0162,"dx":0.0183,"nx":116,"ny":114,"refTime":"2023-06-08T12:00:00:Z","depth":0,"parameterNumber":2,"parameterNumberName":"U-component_of_WINDS"},"data":[0.0,0.0,0.0,0.0,0.0,0.0,0.0,0.0,0.0,0.0,0.0,0.0,0.0,0.0,0.0,0.0,0.0,0.0,0.0,0.0,0.0,0.0,0.0,0.0,0.0,0.0,0.0,0.0,0.0,0.0,0.0,0.0,0.0,0.0,0.0,0.0,0.0,0.0,0.0,0.0,0.0,0.0,0.0,0.0,0.0,0.0,0.0,0.0,0.0,0.0,0.0,0.0,0.0,0.0,0.0,0.0,0.0,0.0,0.0,0.0,0.0,0.0,0.0,0.0,0.0,0.0,0.0,0.0,0.0,0.0,0.0,0.0,0.0,0.0,0.0,0.0,0.0,0.0,0.0,0.0,0.0,0.0,0.0,0.0,0.0,0.0,0.0,0.0,0.0,0.0,0.0,0.0,0.0,0.0,0.0,0.0,0.0,0.0,0.0,0.0,0.0,0.0,0.0,0.0,0.0,0.0,0.0,0.0,0.0,0.0,0.0,0.0,0.0,0.0,0.0,0.0,0.0,0.0,0.0,0.0,0.0,0.0,0.0,0.0,0.0,0.0,0.0,0.0,0.0,0.0,0.0,0.0,0.0,0.0,0.0,0.0,0.0,0.0,0.0,0.0,0.0,0.0,0.0,0.0,0.0,0.0,0.0,0.0,0.0,0.0,0.0,0.0,0.0,0.0,0.0,0.0,0.0,0.0,0.0,0.0,0.0,0.0,0.0,0.0,0.0,0.0,0.0,0.0,0.0,0.0,0.0,0.0,0.0,0.0,0.0,0.0,0.0,0.0,0.0,0.0,0.0,0.0,0.0,0.0,0.0,0.0,0.0,0.0,0.0,0.0,0.0,0.0,0.0,0.0,0.0,0.0,0.0,0.0,0.0,0.0,0.0,0.0,0.0,0.0,0.0,0.0,0.0,0.0,0.0,0.0,0.0,0.0,0.0,0.0,0.0,0.0,0.0,0.0,0.0,0.0,0.0,0.0,0.0,0.0,0.0,0.0,0.0,0.0,0.0,0.0,0.0,0.0,0.0,0.0,0.0,0.0,0.0,0.0,0.0,0.0,0.0,0.0,0.0,0.0,0.0,0.0,0.0,0.0,0.0,0.0,0.0,0.0,0.0,0.0,0.0,0.0,0.0,0.0,0.0,0.0,0.0,0.0,0.0,0.0,0.0,0.0,0.0,0.0,0.0,0.0,0.0,0.0,0.0,0.0,0.0,0.0,0.0,0.0,0.0,0.0,0.0,0.0,0.0,0.0,0.0,0.0,0.0,0.0,0.0,0.0,0.0,0.0,0.0,0.0,0.0,0.0,0.0,0.0,0.0,0.0,0.0,0.0,0.0,0.0,0.0,0.0,0.0,0.0,0.0,0.0,0.0,0.0,0.0,0.0,0.0,0.0,0.0,0.0,0.0,0.0,0.0,0.0,0.0,0.0,0.0,0.0,0.0,0.0,0.0,0.0,0.0,0.0,0.0,0.0,0.0,0.0,0.0,0.0,0.0,0.0,0.0,0.0,0.0,0.0,0.0,0.0,0.0,0.0,0.0,0.0,0.0,0.0,0.0,0.0,0.0,0.0,0.0,0.0,0.0,0.0,0.0,0.0,0.0,0.0,0.0,0.0,0.0,0.0,0.0,0.0,0.0,0.0,0.0,0.0,0.0,0.0,0.0,0.0,0.0,0.0,0.0,0.0,0.0,0.0,0.0,0.0,0.0,0.0,0.0,0.0,0.0,0.0,0.0,0.0,0.0,0.0,0.0,0.0,0.0,0.0,0.0,0.0,0.0,0.0,0.0,0.0,0.0,0.0,0.0,0.0,0.0,0.0,0.0,0.0,0.0,0.0,0.0,0.0,0.0,0.0,0.0,0.0,0.0,0.0,0.0,0.0,0.0,0.0,0.0,0.0,0.0,0.0,0.0,0.0,0.0,0.0,0.0,0.0,0.0,0.0,0.0,0.0,0.0,0.0,0.0,0.0,0.0,0.0,0.0,0.0,0.0,0.0,0.0,0.0,0.0,0.0,0.0,0.0,0.0,0.0,0.0,0.0,0.0,0.0,0.0,0.0,0.0,0.0,0.0,0.0,0.0,0.0,0.0,0.0,0.0,0.0,0.0,0.0,0.0,0.0,0.0,0.0,0.0,0.0,0.0,0.0,0.0,0.0,0.0,0.0,0.0,0.0,0.0,0.0,0.0,0.0,0.0,0.0,0.0,0.0,0.0,0.0,0.0,0.0,0.0,0.0,0.0,0.0,0.0,0.0,0.0,0.0,0.0,0.0,0.0,0.0,0.0,0.0,0.0,0.0,0.0,0.0,0.0,0.0,0.0,0.0,0.0,0.0,0.0,0.0,0.0,0.0,0.0,0.0,0.0,0.0,0.0,0.0,0.0,0.0,0.0,0.0,0.0,0.0,0.0,0.0,0.0,0.0,0.0,0.0,0.0,0.0,0.0,0.0,0.0,0.0,0.0,0.0,0.0,0.0,0.0,0.0,0.0,0.0,0.0,0.0,0.0,0.0,0.0,0.0,0.0,0.0,0.0,0.0,0.0,0.0,0.0,0.0,0.0,0.0,0.0,0.0,0.0,0.0,0.0,0.0,0.0,0.0,0.0,0.0,0.0,0.0,0.0,0.0,0.0,0.0,0.0,0.0,0.0,0.0,0.0,0.0,0.0,0.0,0.0,0.0,0.0,0.0,0.0,0.0,0.0,0.0,0.0,0.0,0.0,0.0,0.0,0.0,0.0,0.0,0.0,0.0,0.0,0.0,0.0,0.0,0.0,0.0,0.0,0.0,0.0,0.0,0.0,0.0,0.0,0.0,0.0,0.0,0.0,0.0,0.0,0.0,0.0,0.0,0.0,0.0,0.0,0.0,0.0,0.0,0.0,0.0,0.0,0.0,0.0,0.0,0.0,0.0,0.0,0.0,0.0,0.0,0.0,0.0,0.0,0.0,0.0,0.0,0.0,0.0,0.0,0.0,0.0,0.0,0.0,0.0,0.0,0.0,0.0,0.0,0.0,0.0,0.0,0.0,0.0,0.0,0.0,0.0,0.0,0.0,0.0,0.0,0.0,0.0,0.0,0.0,0.0,0.0,0.0,0.0,0.0,0.0,0.0,0.0,0.0,0.0,0.0,0.0,0.0,0.0,0.0,0.0,0.0,0.0,0.0,0.0,0.0,0.0,0.0,0.0,0.0,0.0,0.0,0.0,0.0,0.0,0.0,0.0,0.0,0.0,0.0,0.0,0.0,0.0,0.0,0.0,0.0,0.0,0.0,0.0,0.0,0.0,0.0,0.0,0.0,0.0,0.0,0.0,0.0,0.0,0.0,0.0,0.0,0.0,0.0,0.0,0.0,0.0,0.0,0.0,0.0,0.0,0.0,0.0,0.0,0.0,0.0,0.0,0.0,0.0,0.0,0.0,0.0,0.0,0.0,0.0,0.0,0.0,0.0,0.0,0.0,0.0,0.0,0.0,0.0,0.0,0.0,0.0,0.0,0.0,0.0,0.0,0.0,0.0,0.0,0.0,0.0,0.0,0.0,0.0,0.0,0.0,0.0,0.0,0.0,0.0,0.0,0.0,0.0,0.0,0.0,0.0,0.0,0.0,0.0,0.0,0.0,0.0,0.0,0.0,0.0,0.0,0.0,0.0,0.0,0.0,0.0,0.0,0.0,0.0,0.0,0.0,0.0,0.0,0.0,0.0,0.0,0.0,0.0,0.0,0.0,0.0,0.0,0.0,0.0,0.0,0.0,0.0,0.0,0.0,0.0,0.0,0.0,0.0,0.0,0.0,0.0,0.0,0.0,0.0,0.0,0.0,0.0,0.0,0.0,0.0,0.0,0.0,0.0,0.0,0.0,0.0,0.0,0.0,0.0,0.0,0.0,0.0,0.0,0.0,0.0,0.0,0.0,0.0,0.0,0.0,0.0,0.0,0.0,0.0,0.0,0.0,0.0,0.0,0.0,0.0,0.0,0.0,0.0,0.0,0.0,0.0,0.0,0.0,0.0,0.0,0.0,0.0,0.0,0.0,0.0,0.0,0.0,0.0,0.0,0.0,0.0,0.0,0.0,0.0,0.0,0.0,0.0,0.0,0.0,0.0,0.0,0.0,0.0,0.0,0.0,0.0,0.0,0.0,0.0,0.0,0.0,0.0,0.0,0.0,0.0,0.0,0.0,0.0,0.0,0.0,0.0,0.0,0.0,0.0,0.0,0.0,0.0,0.0,0.0,0.0,0.0,0.0,0.0,0.0,0.0,0.0,0.0,0.0,0.0,0.0,0.0,0.0,0.0,0.0,0.0,0.0,0.0,0.0,0.0,0.0,0.0,0.0,0.0,0.0,0.0,0.0,0.0,0.0,0.0,0.0,0.0,0.0,0.0,0.0,0.0,0.0,0.0,0.0,0.0,0.0,0.0,0.0,0.0,0.0,0.0,0.0,0.0,0.0,0.0,0.0,0.0,0.0,0.0,0.0,0.0,0.0,0.0,0.0,0.0,0.0,0.0,0.0,0.0,0.0,0.0,0.0,0.0,0.0,0.0,0.0,0.0,0.0,0.0,0.0,0.0,0.0,0.0,0.0,0.0,0.0,0.0,0.0,0.0,0.0,0.0,0.0,0.0,0.0,0.0,0.0,0.0,0.0,0.0,0.0,0.0,0.0,0.0,0.0,0.0,0.0,0.0,0.0,0.0,0.0,0.0,0.0,0.0,0.0,0.0,0.0,0.0,0.0,0.0,0.0,0.0,0.0,0.0,0.0,0.0,0.0,0.0,0.0,0.0,0.0,0.0,0.0,0.0,0.0,0.0,0.0,0.0,0.0,0.0,0.0,0.0,0.0,0.0,0.0,0.0,0.0,0.0,0.0,0.0,0.0,0.0,0.0,0.0,0.0,0.0,0.0,0.0,0.0,0.0,0.0,0.0,0.0,0.0,0.0,0.0,0.0,0.0,0.0,0.0,0.0,0.0,0.0,0.0,0.0,0.0,0.0,0.0,0.0,0.0,0.0,0.0,0.0,0.0,0.0,0.0,0.0,0.0,0.0,0.0,0.0,0.0,0.0,0.0,0.0,0.0,0.0,0.0,0.0,0.0,0.0,0.0,0.0,0.0,0.0,0.0,0.0,0.0,0.0,0.0,0.0,0.0,0.0,0.0,0.0,0.0,0.0,0.0,0.0,0.0,0.0,0.0,0.0,0.0,0.0,0.0,0.0,0.0,0.0,0.0,0.0,0.0,0.0,0.0,0.0,0.0,0.0,0.0,0.0,0.0,0.0,0.0,0.0,0.0,0.0,0.0,0.0,0.0,0.0,0.0,0.0,0.0,0.0,0.0,0.0,0.0,0.0,0.0,0.0,0.0,0.0,0.0,0.0,0.0,0.0,0.0,0.0,0.0,0.0,0.0,0.0,0.0,0.0,0.0,0.0,0.0,0.0,0.0,0.0,0.0,0.0,0.0,0.0,0.0,0.0,0.0,0.0,0.0,0.0,0.0,0.0,0.0,0.0,0.0,0.0,0.0,0.0,0.0,0.0,0.0,0.0,0.0,0.0,0.0,0.0,0.0,0.0,0.0,0.0,0.0,0.0,0.0,0.0,0.0,0.0,0.0,0.0,0.0,0.0,0.0,0.0,0.0,0.0,0.0,0.0,0.0,0.0,0.0,0.0,0.0,0.0,0.0,0.0,0.0,0.0,0.0,0.0,0.0,0.0,0.0,0.0,0.0,0.0,0.0,0.0,0.0,0.0,0.0,0.0,0.0,0.0,0.0,0.0,0.0,0.0,0.0,0.0,0.0,0.0,0.0,0.0,0.0,0.0,0.0,0.0,0.0,0.0,0.0,0.0,0.0,0.0,0.0,0.0,0.0,0.0,0.0,0.0,0.0,0.0,0.0,0.0,0.0,0.0,0.0,0.0,0.0,0.0,0.0,0.0,0.0,0.0,0.0,0.0,0.0,0.0,0.0,0.0,0.0,0.0,0.0,0.0,0.0,0.0,0.0,0.0,0.0,0.0,0.0,0.0,0.0,0.0,0.0,0.0,0.0,0.0,0.0,0.0,0.0,0.0,0.0,0.0,0.0,0.0,0.0,0.0,0.0,0.0,0.0,0.0,0.0,0.0,-3.664,-3.5473,0.0,0.0,0.0,0.0,0.0,0.0,0.0,0.0,0.0,0.0,0.0,0.0,0.0,0.0,0.0,0.0,0.0,0.0,0.0,0.0,0.0,0.0,0.0,0.0,0.0,0.0,0.0,0.0,0.0,0.0,0.0,0.0,0.0,0.0,0.0,0.0,0.0,0.0,-2.6075,-2.7029,-2.796,-2.6061,-2.3649,-2.0999,0.0,0.0,0.0,0.0,0.0,0.0,0.0,0.0,0.0,0.0,0.0,0.0,0.0,0.0,0.0,0.0,0.0,0.0,0.0,0.0,0.0,0.0,0.0,0.0,0.0,0.0,0.0,0.0,0.0,0.0,0.0,0.0,0.0,0.0,0.0,0.0,0.0,0.0,0.0,0.0,0.0,0.0,0.0,0.0,0.0,0.0,0.0,0.0,0.0,0.0,0.0,0.0,0.0,0.0,0.0,0.0,0.0,0.0,0.0,0.0,0.0,0.0,0.0,0.0,0.0,0.0,0.0,0.0,0.0,0.0,-3.862,-3.7462,0.0,0.0,0.0,0.0,0.0,0.0,0.0,0.0,0.0,0.0,0.0,0.0,0.0,0.0,0.0,0.0,0.0,0.0,0.0,0.0,0.0,0.0,0.0,-0.4741,-0.8292,-0.932,-0.8325,-0.8338,0.0,0.0,0.0,0.0,0.0,0.0,0.0,-2.0544,-2.396,-2.7578,-2.7961,-2.846,-2.8873,-2.7255,-2.4956,-2.211,-2.1391,0.0,0.0,0.0,0.0,0.0,0.0,0.0,0.0,0.0,0.0,0.0,0.0,0.0,0.0,0.0,0.0,0.0,0.0,0.0,0.0,0.0,0.0,0.0,0.0,0.0,0.0,0.0,0.0,0.0,0.0,0.0,0.0,0.0,0.0,0.0,0.0,0.0,0.0,0.0,0.0,0.0,0.0,0.0,0.0,0.0,0.0,0.0,0.0,0.0,0.0,0.0,0.0,0.0,0.0,0.0,0.0,0.0,0.0,0.0,0.0,0.0,0.0,0.0,-4.3513,-4.3437,-4.3217,-4.2727,-4.2665,-4.2821,-4.1252,-4.0297,-3.9782,-3.8057,0.0,0.0,0.0,0.0,0.0,0.0,0.0,0.0,0.0,0.0,0.0,0.0,0.0,0.0,0.0,0.0,0.0,0.0,0.0,0.0,0.0,-0.655,-0.9858,-1.2292,-1.3476,-1.3425,-1.1968,0.0,0.0,0.0,0.0,0.0,-1.8052,-2.1776,-2.4931,-2.7429,-2.8939,-2.905,-2.7771,-2.6905,-2.5601,-2.4039,-2.3392,-2.1847,-1.9702,0.0,0.0,0.0,0.0,0.0,0.0,0.0,0.0,0.0,0.0,0.0,0.0,0.0,0.0,0.0,0.0,0.0,0.0,0.0,0.0,0.0,0.0,0.0,0.0,0.0,0.0,0.0,0.0,0.0,0.0,0.0,0.0,0.0,0.0,0.0,0.0,0.0,0.0,0.0,0.0,0.0,-3.421,-3.6658,0.0,0.0,0.0,0.0,0.0,0.0,0.0,0.0,0.0,0.0,0.0,0.0,0.0,-4.1507,-4.3284,-4.467,-4.5396,-4.5412,-4.5925,-4.6143,-4.6049,-4.5253,-4.4907,-4.49,-4.4639,0.0,-4.1114,-4.0293,0.0,0.0,0.0,0.0,0.0,0.0,0.0,0.0,0.0,0.0,0.0,0.0,0.0,0.0,0.0,0.0,0.0,0.0,0.0,0.0,0.0,-1.2838,-1.6272,-1.6905,-1.7117,-1.6208,-1.3926,-1.1498,0.0,0.0,0.0,-1.6676,-1.9528,-2.2959,-2.5988,-2.8512,-3.0026,-2.997,-2.8452,-2.7801,-2.6544,-2.4747,-2.4431,-2.2774,-2.0306,-1.9802,0.0,0.0,0.0,0.0,0.0,0.0,0.0,0.0,0.0,0.0,0.0,0.0,0.0,0.0,0.0,0.0,0.0,0.0,0.0,0.0,0.0,0.0,0.0,0.0,0.0,0.0,0.0,0.0,0.0,0.0,0.0,0.0,0.0,0.0,0.0,0.0,0.0,0.0,0.0,-3.1871,-3.6891,-3.8206,-3.8585,-3.7988,0.0,0.0,0.0,0.0,0.0,0.0,0.0,0.0,0.0,-4.2934,-4.3231,-4.3903,-4.5065,-4.676,-4.7379,-4.715,-4.7506,-4.7579,-4.7333,-4.6765,-4.6426,-4.6426,-4.6426,-4.5349,-4.3464,-4.2073,-4.0771,-3.9469,0.0,0.0,0.0,0.0,-3.531,-3.4913,0.0,0.0,0.0,0.0,0.0,0.0,0.0,0.0,0.0,0.0,0.0,0.0,-1.2617,-1.8095,-2.1241,-2.0921,-2.0006,-1.828,-1.5521,-1.2912,-1.1464,-1.1382,-1.3487,-1.6654,-2.0871,-2.452,-2.7395,-2.9479,-3.0441,-3.0155,-2.8608,-2.8125,-2.6815,-2.4791,-2.4414,-2.2916,-2.0579,-1.9658,-1.8682,-1.765,0.0,0.0,0.0,0.0,0.0,0.0,0.0,0.0,0.0,0.0,0.0,0.0,0.0,0.0,0.0,0.0,0.0,0.0,0.0,0.0,0.0,0.0,0.0,0.0,0.0,0.0,0.0,0.0,0.0,0.0,0.0,0.0,0.0,0.0,0.0,0.0,0.0,-3.5112,-3.8825,-3.9357,-4.089,-4.0707,0.0,0.0,0.0,0.0,0.0,0.0,-4.2417,-4.2275,-4.2949,-4.4783,-4.5309,-4.599,-4.678,-4.8169,-4.8749,-4.8511,-4.8456,-4.8286,-4.7964,-4.7553,-4.7219,-4.7055,-4.7055,-4.6292,-4.493,-4.3464,-4.2282,-4.122,-3.9399,-3.8207,-3.7492,-3.6967,-3.641,-3.6004,0.0,0.0,0.0,0.0,0.0,0.0,0.0,0.0,0.0,0.0,0.0,-1.302,-1.7129,-1.9826,-2.1865,-2.3196,-2.2114,-1.9946,-1.6551,-1.4432,-1.3043,-1.2464,-1.4881,-1.7958,-2.158,-2.6667,-2.9419,-2.9697,-2.9894,-2.901,-2.7102,-2.6844,-2.5812,-2.4108,-2.3191,-2.188,-2.0199,-2.0159,-1.9314,-1.7944,-1.6309,0.0,0.0,0.0,0.0,0.0,0.0,0.0,0.0,0.0,0.0,0.0,0.0,0.0,0.0,0.0,0.0,0.0,0.0,0.0,0.0,0.0,0.0,0.0,0.0,0.0,0.0,0.0,0.0,0.0,0.0,0.0,0.0,0.0,0.0,0.0,0.0,0.0,0.0,-4.1222,-4.2799,0.0,0.0,0.0,0.0,-4.0785,-4.2015,-4.3457,-4.4876,-4.4174,-4.464,-4.6689,-4.6878,-4.7378,-4.845,-4.861,-4.8805,-4.9228,-4.8438,-4.8049,-4.7964,-4.7553,-4.6965,-4.6367,-4.6367,-4.5603,-4.4347,-4.4257,-4.309,-4.1234,-3.9885,-3.8605,-3.7582,-3.7461,-3.7056,-3.6605,0.0,0.0,0.0,0.0,0.0,0.0,0.0,0.0,-0.6888,-1.0127,-1.4368,-1.8218,-2.1106,-2.2689,-2.3711,-2.41,-2.2409,-1.986,-1.6437,-1.4849,-1.3952,-1.3736,-1.6413,-2.0534,-2.6088,-2.8809,-3.0061,-2.9765,-2.9454,-2.8503,-2.6982,-2.638,-2.5153,-2.3521,-2.3212,-2.1737,-1.9585,-1.9553,-1.8876,-1.7679,-1.6839,-1.5926,0.0,0.0,0.0,0.0,0.0,0.0,0.0,0.0,0.0,0.0,0.0,0.0,0.0,0.0,0.0,0.0,0.0,0.0,0.0,0.0,0.0,0.0,0.0,0.0,0.0,0.0,0.0,0.0,0.0,0.0,0.0,0.0,0.0,0.0,0.0,0.0,0.0,-4.2639,-4.4857,0.0,-4.2606,-4.3047,-4.3506,-4.366,-4.4507,-4.5643,-4.6983,-4.6272,-4.6319,-4.757,-4.7615,-4.7973,-4.8604,-4.862,-4.8687,-4.8867,-4.8286,-4.7667,-4.6921,-4.6751,-4.6307,-4.5663,-4.5663,-4.514,-4.4317,-4.4317,-4.3643,-4.2488,-4.1195,-4.0141,-3.9259,-3.8375,-3.7923,-3.7799,0.0,0.0,0.0,0.0,0.0,0.0,0.0,0.0,-1.1111,-1.4432,-1.8229,-2.1472,-2.3874,-2.437,-2.4386,-2.4053,-2.1903,-1.9183,-1.6055,-1.4921,-1.4494,-1.4812,-1.8688,-2.3311,-2.8591,-2.9663,-2.9853,-2.9244,-2.8651,-2.758,-2.6079,-2.5559,-2.431,-2.2536,-2.2419,-2.1045,-1.8779,-1.8749,-1.8249,-1.7392,-1.6627,-1.6032,-1.5627,0.0,0.0,0.0,0.0,0.0,0.0,0.0,0.0,0.0,0.0,0.0,0.0,0.0,0.0,0.0,0.0,0.0,0.0,0.0,0.0,0.0,0.0,0.0,0.0,0.0,0.0,0.0,0.0,0.0,0.0,0.0,0.0,0.0,0.0,-3.9442,-4.2685,-4.2951,-4.5991,-4.71,-4.4473,-4.5356,-4.615,-4.6171,-4.6857,-4.7574,-4.8302,-4.7778,-4.7729,-4.824,-4.8407,-4.8656,-4.8903,-4.8738,-4.8481,-4.8033,-4.7858,-4.7171,-4.5978,-4.6217,-4.5828,-4.496,-4.496,-4.4586,-4.3973,-4.3748,-4.3404,-4.2906,-4.2033,-4.1155,-4.0256,-3.9327,-3.8734,-3.8383,0.0,0.0,0.0,0.0,0.0,0.0,0.0,-1.2299,-1.4269,-1.7437,-2.0164,-2.2752,-2.529,-2.4626,-2.3752,-2.3087,-2.074,-1.8158,-1.5491,-1.4735,-1.4845,-1.5886,-2.1661,-2.6068,-2.8651,-2.9096,-2.8921,-2.8198,-2.7356,-2.609,-2.4391,-2.4223,-2.3052,-2.1119,-2.0669,-1.9551,-1.7967,-1.7738,-1.7475,-1.7099,-1.5613,-1.5503,-1.6055,0.0,0.0,0.0,0.0,0.0,0.0,0.0,0.0,0.0,0.0,0.0,0.0,0.0,0.0,0.0,0.0,0.0,0.0,0.0,0.0,0.0,0.0,0.0,0.0,0.0,0.0,0.0,0.0,0.0,0.0,0.0,0.0,0.0,-3.5872,-3.9929,-4.2587,-4.2295,-4.6218,-4.7961,-4.5559,-4.7491,-4.8765,-4.8356,-4.8901,-4.9113,-4.8687,-4.862,-4.8738,-4.8825,-4.9231,-4.9487,-4.9487,-4.9004,-4.8204,-4.6978,-4.7222,-4.6576,-4.5289,-4.5963,-4.5544,-4.4287,-4.4272,-4.3883,-4.3254,-4.2596,-4.2327,-4.2372,-4.2283,-4.1391,-4.0245,-4.0194,-3.9454,-3.8315,0.0,0.0,0.0,0.0,0.0,0.0,0.0,-1.3673,-1.6377,-1.9047,-2.2055,-2.4172,-2.4741,-2.4185,-2.3174,-2.1714,-1.9759,-1.7765,-1.5798,-1.6087,-1.7837,-2.123,-2.454,-2.7289,-2.9381,-2.8916,-2.8585,-2.8417,-2.6828,-2.5357,-2.4026,-2.29,-2.1445,-1.9689,-1.9465,-1.833,-1.6703,-1.6615,-1.6332,-1.6052,-1.5755,-1.5674,-1.5713,0.0,0.0,0.0,0.0,0.0,0.0,0.0,0.0,0.0,0.0,0.0,0.0,0.0,0.0,0.0,0.0,0.0,0.0,0.0,0.0,0.0,0.0,0.0,0.0,0.0,0.0,0.0,0.0,0.0,0.0,0.0,-3.2828,-3.5727,-3.7609,-4.104,-4.3884,-4.5233,-4.7918,-4.9253,-4.8278,-4.9064,-4.9473,-4.9075,-4.9166,-4.9421,-4.9725,-4.9454,-4.9487,-4.9931,-4.9631,-4.9487,-4.9487,-4.8641,-4.7768,-4.6978,-4.6756,-4.5888,-4.4586,-4.4781,-4.4407,-4.3584,-4.3105,-4.2791,-4.2581,-4.1923,-4.1369,-4.092,-4.0473,-4.0043,-3.9577,-3.8615,-3.8079,-3.7691,0.0,0.0,0.0,0.0,0.0,0.0,0.0,-1.48,-1.7739,-1.9723,-2.2597,-2.4419,-2.4301,-2.3326,-2.202,-2.028,-1.857,-1.721,-1.6179,-1.7866,-2.0406,-2.3728,-2.5634,-2.726,-2.8709,-2.7966,-2.7334,-2.6809,-2.5248,-2.3774,-2.2387,-2.1054,-1.9706,-1.8425,-1.7673,-1.6749,-1.5705,-1.5284,-1.4904,-1.4646,-1.4916,-1.539,-1.5759,-1.5295,-1.639,-1.8168,-1.9324,-2.0714,-2.2049,-2.2317,0.0,0.0,0.0,0.0,0.0,0.0,0.0,0.0,0.0,0.0,0.0,0.0,0.0,0.0,0.0,0.0,0.0,0.0,0.0,0.0,0.0,0.0,0.0,0.0,-3.4011,-3.6878,-3.8899,-4.1799,-4.4354,-4.6237,-4.8232,-4.941,-4.9173,-4.9584,-4.9836,-4.9597,-4.9517,-4.9741,-5.0198,-5.0073,-5.0352,-5.1005,-5.037,-4.992,-4.9674,-4.84,-4.7242,-4.6113,-4.592,-4.52,-4.3913,-4.4182,-4.3958,-4.3314,-4.294,-4.2611,-4.2312,-4.1654,-4.0995,-4.0382,0.0,0.0,0.0,0.0,-3.7717,-3.7414,0.0,0.0,0.0,0.0,0.0,0.0,0.0,-1.5351,-1.8098,-1.9504,-2.1904,-2.3489,-2.3488,-2.1956,-2.0299,-1.8644,-1.7282,-1.6653,-1.6965,-1.9904,-2.2471,-2.4435,-2.5495,-2.6387,-2.7083,-2.6368,-2.5422,-2.4319,-2.3092,-2.1743,-2.0253,-1.9044,-1.8024,-1.7126,-1.5666,-1.492,-1.4622,-1.3742,-1.3233,-1.3092,-1.3374,-1.4431,-1.5629,-1.4641,-1.5723,-1.7794,-1.8399,-1.911,-1.9813,-2.022,0.0,0.0,0.0,0.0,0.0,0.0,0.0,0.0,0.0,0.0,0.0,0.0,0.0,0.0,0.0,0.0,0.0,0.0,0.0,0.0,0.0,0.0,0.0,0.0,-3.4913,-3.759,-3.9958,-4.2097,-4.4097,-4.6002,-4.7743,-4.881,-4.8873,-4.9442,-4.9837,-4.9916,-4.9995,-5.0104,-5.0242,-5.0751,0.0,0.0,0.0,-5.0471,-4.9911,-4.831,-4.6641,-4.5008,-4.5146,-4.4623,-4.3438,-4.3943,-4.3883,-4.3329,-4.3254,-4.2851,-4.2207,-4.1534,-4.0876,-4.0352,-4.086,-4.0334,-3.9121,-3.8595,-3.7975,-3.7247,0.0,0.0,0.0,0.0,0.0,0.0,0.0,-1.3812,-1.5749,-1.7568,-1.9315,-2.0342,-2.0297,-1.9349,-1.8035,-1.6333,-1.5688,-1.6727,-1.9861,-2.1503,-2.3224,-2.5042,-2.5144,-2.5154,-2.5154,-2.4083,-2.3359,-2.3122,-2.1499,-2.0271,-1.9476,-1.803,-1.6542,-1.5141,-1.4384,-1.3392,-1.2277,-1.2089,-1.182,-1.1552,-1.1313,-1.2258,-1.3851,-1.3567,-1.4124,-1.5065,-1.5216,-1.5705,-1.6384,-1.673,-1.4905,-1.2025,-0.9013,-0.7166,0.0,0.0,0.0,0.0,0.0,0.0,0.0,0.0,0.0,0.0,0.0,0.0,0.0,0.0,0.0,0.0,0.0,0.0,0.0,-3.2773,-3.5792,-3.8416,-4.029,-4.161,-4.3361,-4.5893,-4.7334,-4.8304,-4.8841,-4.9015,-4.9315,-4.9884,-5.0354,-5.0634,-5.057,-5.1602,-5.2026,-5.1586,-5.0999,-5.0253,-4.9313,-4.79,-4.6625,-4.5416,-4.5145,0.0,-4.3832,-4.3623,-4.3449,-4.3299,-4.2776,-4.2177,-4.1519,-4.0861,-4.0202,-3.9546,-3.921,-3.8568,-3.7906,-3.7844,-3.7348,-3.6651,0.0,0.0,0.0,0.0,0.0,0.0,0.0,-1.3672,-1.5356,-1.7207,-1.6844,-1.6693,-1.7451,-1.5552,-1.3967,-1.3338,-1.5284,-1.7682,-2.0405,-2.2378,-2.3798,-2.4619,-2.4262,-2.3932,-2.3704,-2.2566,-2.1781,-2.1494,-2.0019,-1.8876,-1.8016,-1.6491,-1.5124,-1.3957,-1.2866,-1.1882,-1.1031,-1.0472,-1.0325,-1.0386,-0.995,-1.0226,-1.0992,-1.2037,-1.3011,-1.3705,-1.3239,-1.386,-1.4553,-1.1876,-0.8556,-0.5179,-0.2892,-0.14,-0.0754,0.0,0.0,0.0,0.0,0.0,0.0,0.0,0.0,0.0,0.0,0.0,0.0,0.0,0.0,-2.4889,-2.7657,0.0,-3.1823,-3.4203,-3.6536,-3.8759,-4.0621,-4.1561,-4.2971,-4.5206,-4.626,-4.7119,-4.7767,-4.8177,-4.8678,-4.9225,-4.9604,-4.9961,-5.0459,-5.1503,-5.1708,-5.0958,-5.0443,-4.9626,-4.8381,-4.6969,-4.5939,-4.5385,-4.4987,-4.451,-4.3988,-4.3738,-4.3401,-4.2821,-4.2506,-4.1803,-4.0846,-4.0187,-3.9709,-3.9337,-3.9046,-3.8738,-3.8501,-3.8501,-3.8074,-3.7325,0.0,0.0,0.0,0.0,0.0,0.0,0.0,-1.3785,-1.4874,-1.6151,-1.4085,-1.2836,-1.3811,-1.1604,-1.0568,-1.1705,-1.5341,-1.8523,-2.0778,-2.2873,-2.3987,-2.3858,-2.2978,-2.2353,-2.2019,-2.0887,-2.006,-1.9571,-1.8302,-1.7213,-1.6298,-1.4784,-1.3601,-1.2684,-1.13,-1.0342,-0.9787,-0.8948,-0.881,-0.913,-0.8724,-0.8369,-0.8221,-0.9844,-1.0993,-1.177,-1.1215,-1.1585,-1.1612,-0.6319,-0.2038,0.1462,0.3463,0.49,0.5576,0.3951,0.3124,0.0,0.0,0.0,0.0,0.0,0.0,0.0,0.0,-1.6678,-1.8747,-2.1391,-2.3627,-2.6051,-2.9068,-3.0915,-3.2901,-3.5728,-3.75,-3.9179,-4.1045,-4.182,-4.2809,-4.4281,-4.5025,-4.5713,-4.6534,-4.7135,-4.7802,-4.8487,-4.8707,-4.9202,-4.999,-5.1093,-5.116,-5.0041,-4.9747,-4.8926,-4.7533,-4.6034,-4.5321,-4.5321,-4.4874,-4.4511,-4.4127,-4.4065,-4.3376,-4.2434,-4.2087,-4.1384,-4.0352,-3.9694,-3.9334,-3.923,-3.923,-3.914,-3.9065,-3.932,-3.8796,-3.7739,0.0,0.0,0.0,0.0,0.0,0.0,0.0,0.0,-1.2119,-1.1787,-1.0477,-0.9012,-0.7598,-0.8567,-1.0668,-1.4027,-1.5439,-1.815,-2.2811,-2.3102,-2.3151,-2.3381,-2.1167,-1.9707,-1.9266,-1.8002,-1.7334,-1.7264,-1.5888,-1.4994,-1.4558,-1.3102,-1.1733,-1.0368,-0.9848,-0.8757,-0.7426,-0.7583,-0.7485,-0.7204,-0.6776,-0.6644,-0.6641,-0.6398,-0.6583,-0.7102,-0.7741,-0.6638,-0.4235,-0.0176,0.3024,0.6005,1.0627,1.2197,1.1793,0.9257,0.7723,0.5739,0.0665,-0.4795,-0.9911,-1.3366,-1.4191,-1.4839,0.0,-1.8891,-2.0111,-2.3453,-2.4829,-2.6405,-2.9487,-3.1229,-3.3275,-3.6547,-3.8743,-4.0426,-4.1383,-4.2206,-4.2928,-4.3507,-4.379,-4.448,-4.5792,-4.5997,-4.6566,-4.7874,-4.8853,-4.9169,-4.8669,-5.0911,-5.1095,-4.8737,-4.9276,-4.8713,-4.6951,-4.6139,-4.5735,-4.5735,-4.5336,-4.4949,-4.4511,-4.4127,-4.3376,-4.2297,-4.113,-4.0531,-4.0352,-3.9694,-3.905,-3.8497,-3.8497,-3.8153,-3.7778,-3.8975,-3.8045,-3.6187,0.0,0.0,0.0,0.0,0.0,0.0,0.0,0.0,0.0,-1.0665,-0.9226,-0.7578,-0.5262,-0.461,-0.6751,-1.2605,-1.6191,-1.9452,-2.2659,-2.2781,-2.2277,-2.124,-1.9431,-1.8075,-1.7263,-1.6083,-1.5381,-1.5236,-1.3807,-1.2887,-1.2406,-1.0964,-0.9665,-0.8449,-0.7756,-0.674,-0.5517,-0.5574,-0.5578,-0.5534,-0.5174,-0.501,-0.4974,-0.4663,-0.4316,-0.4112,-0.4564,-0.3381,0.0,0.2804,0.6826,1.0648,1.2879,1.3999,1.418,1.2823,1.0918,0.7326,-0.1859,-0.8731,-1.3732,-1.5685,-1.6611,-1.7315,-1.7969,-1.9471,-2.1438,-2.3864,-2.599,-2.8033,-3.04,-3.2341,-3.4576,-3.7466,-3.9466,-4.1048,-4.2168,-4.2223,-4.2219,-4.2421,-4.2141,-4.26,-4.4385,-4.4591,-4.5269,-4.6878,-4.7411,-4.7984,-4.8692,-4.9906,-4.9709,-4.7863,-4.8274,-4.7757,-4.6234,-4.595,-4.5807,-4.5807,-4.5646,-4.5188,-4.4572,-4.4435,-4.3396,-4.1713,-4.0397,-3.9828,-3.9783,-3.9095,-3.8646,-3.8347,-3.7973,-3.7659,-3.7479,-3.8033,-3.7278,-3.5856,0.0,0.0,0.0,0.0,0.0,0.0,0.0,0.0,0.0,0.0,-0.952,-0.7047,-0.3233,-0.1603,-0.3433,-0.9987,-1.3973,-1.7276,-1.9868,-2.0339,-1.9942,-1.8708,-1.7365,-1.6115,-1.4952,-1.3949,-1.3236,-1.2875,-1.1514,-1.0631,-1.0179,-0.8703,-0.7688,-0.7036,-0.6169,-0.5272,-0.436,-0.4181,-0.418,-0.4333,-0.3589,-0.3316,-0.3323,-0.2771,-0.2149,-0.1591,-0.177,-0.0844,0.1065,0.5209,0.9244,1.277,1.3667,1.456,1.5237,1.4673,1.092,0.4431,-0.6805,-1.3423,-1.7422,-1.8779,-1.9519,-1.9755,-1.87,-2.0168,-2.206,-2.3461,-2.5855,-2.8298,-3.0379,-3.2837,-3.5604,-3.8604,-4.057,-4.2132,-4.32,-4.2808,-4.2295,-4.2211,-4.1561,-4.1725,-4.332,-4.3432,-4.4118,-4.5717,-4.6225,-4.6961,-4.8195,-4.8924,-4.863,-4.7218,-4.7502,-4.7125,-4.5823,-4.5807,-4.5807,-4.5807,-4.5807,-4.5243,-4.4279,-4.3684,-4.2606,-4.1055,-3.9903,-3.932,-3.9095,-3.8601,-3.8182,-3.7823,-3.7345,-3.6963,-3.6633,-3.6497,-3.6018,-3.5138,0.0,0.0,0.0,0.0,0.0,0.0,0.0,0.0,0.0,0.0,0.0,0.0,0.0,-0.0165,-0.2193,-0.6599,-0.7116,-0.9178,-1.3853,-1.4816,-1.5472,-1.6007,-1.4746,-1.3351,-1.1946,-1.1326,-1.0698,-1.0004,-0.8889,-0.817,-0.785,-0.644,-0.595,-0.6237,-0.5596,-0.4831,-0.4005,-0.3872,-0.3789,-0.3644,-0.1942,-0.1475,-0.1582,-0.0151,0.0528,0.0753,0.0454,0.1042,0.2695,0.7526,0.9924,1.1224,1.3573,1.4898,1.5468,1.4408,0.6178,-0.4622,-1.4047,-1.8329,-2.0728,-2.3132,-2.2669,-2.164,-2.1351,-2.1393,-2.1651,-2.2359,-2.3887,-2.6013,-2.8917,-3.2118,-3.5748,-4.0199,-4.2549,-4.4021,-4.4659,-4.4316,-4.3889,-4.3464,-4.2802,-4.2482,-4.2785,-4.2797,-4.3182,-4.4359,-4.5668,-4.6405,-4.6405,-4.8233,-4.848,-4.6684,-4.7345,-4.7125,-4.5823,-4.5807,-4.5807,-4.5807,-4.5807,-4.5081,-4.3556,-4.1518,-4.0472,-4.0382,-3.9709,-3.9035,-3.8422,-3.8407,-3.7659,-3.6552,-3.6522,-3.5741,-3.4654,-3.4221,-3.3889,-3.3532,0.0,0.0,0.0,0.0,0.0,0.0,0.0,0.0,0.0,0.0,0.0,0.0,0.0,0.0,0.0,0.0,-0.1331,-0.2229,-1.1188,-1.2602,-1.3095,-1.3162,-1.3382,-1.1721,-0.7852,-0.7199,-0.6261,-0.5004,-0.4046,-0.3486,-0.3176,-0.2226,-0.1774,-0.1766,-0.1329,-0.0839,-0.0252,-0.0382,-0.0331,-0.007,0.0141,0.0574,0.117,0.2051,0.2388,0.2488,0.0,0.4346,0.5215,0.715,0.8859,1.0078,0.9888,0.9813,0.8964,0.465,-0.3873,-1.2969,-1.7987,-2.2376,-2.5511,-2.5752,-2.5123,-2.3845,-2.1534,-2.1557,-2.1957,-2.1263,-2.2092,-2.391,-2.6842,-3.0537,-3.4558,-3.9008,-4.2523,-4.4964,-4.5771,-4.5029,-4.4399,-4.4265,-4.3158,-4.2327,-4.2097,-4.2798,-4.3532,-4.4202,-4.5431,-4.6311,-4.6825,-4.7572,-4.7583,-4.6668,-4.6502,-4.6246,-4.5807,-4.5807,-4.5555,-4.508,-4.4091,-4.3241,-4.248,-4.1083,-4.0397,-4.0337,-3.9215,-3.8601,-3.8317,-3.7479,-3.6881,-3.6447,-3.554,-3.4785,-3.4095,-3.2975,-3.2314,-3.1978,0.0,0.0,0.0,0.0,0.0,0.0,0.0,0.0,0.0,0.0,0.0,0.0,0.0,0.0,0.0,0.0,0.0,0.2152,-0.6035,-0.7374,-0.7882,-0.8101,-0.8711,-0.7211,-0.3266,-0.2773,-0.1634,0.0211,0.0853,0.1562,0.2228,0.2487,0.2482,0.2252,0.2276,0.3399,0.5272,0.5031,0.4632,0.4193,0.466,0.5054,0.523,0.5026,0.483,0.0,0.5702,0.562,0.5238,0.5723,0.617,0.6306,0.4851,0.33,0.0762,-0.542,-1.1988,-1.826,-2.2619,-2.6049,-2.8195,-2.7394,-2.6185,-2.4337,-2.1392,-2.0885,-2.0579,-1.9154,-1.997,-2.1861,-2.4885,-2.9398,-3.4054,-3.8213,-4.2214,-4.504,-4.5676,-4.5024,-4.4534,-4.4899,-4.4354,-4.3618,-4.2841,-4.3889,-4.4306,-4.3644,-4.492,-4.5868,-4.6092,-4.6731,-4.686,-4.6333,-4.6008,-4.5681,-4.5428,-4.5412,-4.4977,-4.4126,-4.2695,-4.1866,-4.1632,-4.0302,-3.9679,-3.9619,-3.8512,-3.7913,-3.7644,-3.6603,-3.6045,-3.5711,-3.4569,-3.3837,-3.3269,-3.206,-3.1267,-3.0908,0.0,0.0,0.0,0.0,0.0,0.0,0.0,0.0,0.0,0.0,0.0,0.0,0.0,0.0,0.0,0.0,0.0,0.0,0.1175,0.0639,-0.0,-0.0939,-0.0886,-0.0,0.1741,0.1997,0.3224,0.5337,0.5815,0.672,0.8094,0.7577,0.6766,0.5709,0.5304,0.7542,1.1725,1.1665,1.0458,0.8739,1.0886,1.1114,1.0062,0.8503,0.7817,0.7673,0.6696,0.482,0.2877,0.3314,0.1958,-0.023,-0.1954,-0.4795,-0.8736,-1.5087,-1.816,-2.0991,-2.7775,-2.934,-2.8841,-2.8116,-2.5908,-2.327,-2.0924,-1.9216,-1.7726,-1.6221,-1.7427,-1.9813,-2.301,-2.8731,-3.4219,-3.801,-4.1903,-4.4565,-4.4909,-4.4565,-4.4672,-4.5579,-4.6094,-4.5935,-4.4801,-4.5829,-4.5377,-4.2603,-4.417,-4.5016,-4.4393,-4.5745,-4.6269,-4.5744,-4.5728,-4.5381,-4.4717,-4.4638,-4.4063,-4.298,-4.1571,-4.0906,-4.0861,-3.9189,-3.8392,-3.8347,-3.7659,-3.6963,-3.641,-3.5781,-3.5098,-3.4461,-3.3492,-3.2818,-3.2259,-3.1415,-3.0846,-3.0292,0.0,0.0,0.0,0.0,0.0,0.0,0.0,0.0,0.0,0.0,0.0,0.0,0.0,0.0,0.0,0.0,0.0,0.0,0.3428,0.5814,0.6514,0.4761,0.6234,0.7393,0.7991,0.813,0.84,0.8898,0.9757,1.0554,1.1274,1.1283,1.106,1.0583,1.0258,1.0858,1.2019,1.1546,1.0899,1.0231,1.0405,1.0108,0.9403,0.8881,0.8299,0.7518,0.5986,0.3754,0.1439,0.0672,-0.3613,-0.9592,-1.5337,-1.7668,-1.8746,-2.1007,-2.4528,-2.801,-2.9511,-3.0264,-3.0152,-2.7836,-2.5772,-2.3207,-1.9197,-1.7278,-1.5762,-1.3601,-1.4782,-1.7434,-2.1524,-2.7809,-3.4081,-3.943,-4.398,-4.7115,-4.7935,-4.7622,-4.7179,-4.688,-4.6553,-4.5968,-4.5108,-4.524,-4.4632,-4.2818,-4.4611,-4.5329,-4.4233,-4.5206,-4.5517,-4.4986,-4.4512,-4.4401,-4.4717,-4.3396,-4.2521,-4.1944,-4.0842,-4.0096,-3.9778,-3.8852,-3.8392,-3.8317,-3.6754,-3.5972,-3.5781,-3.4723,-3.3994,-3.3492,-3.2889,-3.216,-3.1415,-3.0859,-3.0368,-2.9934,0.0,0.0,0.0,0.0,0.0,0.0,0.0,0.0,0.0,0.0,0.0,0.0,0.0,0.0,0.0,0.0,0.0,0.0,0.0,0.7919,0.9086,0.824,0.9486,1.0318,1.0651,1.0931,1.1276,1.1618,1.2644,1.356,1.436,1.4365,1.4395,1.4364,1.3473,1.3521,1.424,1.3277,1.2857,0.0,0.0,1.1277,1.0122,0.9606,0.8941,0.7992,0.5294,0.0364,-0.5522,-0.915,-1.3293,-1.7832,-2.3293,-2.5095,-2.5376,-2.6256,-2.8255,-3.0166,-3.0105,-3.014,-2.9596,-2.7046,-2.4611,-2.1738,-1.7632,-1.5096,-1.3092,-1.1233,-1.304,-1.6232,-2.0567,-2.77,-3.4548,-3.9444,-4.3876,-4.7146,-4.8245,-4.8047,-4.7568,-4.6988,-4.6882,-4.636,-4.5044,-4.5182,-4.4927,-4.3823,-4.488,-4.4933,-4.3557,-4.4442,-4.4781,-4.4259,-4.3911,-4.3668,-4.3591,-4.2108,-4.1233,-4.0898,-3.9788,-3.9189,-3.8931,-3.7988,-3.7554,-3.7494,-3.5878,-3.5166,-3.5069,-3.3731,-3.303,-3.2747,-3.1896,-3.1233,-3.0771,-3.0279,-3.0011,-2.9792,0.0,0.0,0.0,0.0,0.0,0.0,0.0,0.0,0.0,0.0,0.0,0.0,0.0,0.0,0.0,0.0,0.0,0.0,0.0,0.0,0.9436,1.0167,1.0364,1.0626,1.1006,1.1558,1.2253,1.3113,1.4248,1.5406,1.6563,1.6316,1.6437,1.6781,1.5321,1.5508,1.6901,1.5645,1.5341,1.5645,1.4736,1.3202,1.1231,0.0,0.939,0.7832,0.357,-0.4522,-1.417,-2.0675,-2.3422,-2.4653,-2.7712,-2.898,-2.9472,-3.03,-3.0127,-2.9741,-3.0104,-2.9512,-2.8249,-2.609,-2.309,-1.9725,-1.6181,-1.2949,-1.0436,-0.9217,-1.1922,-1.5806,-1.9973,-2.788,-3.5021,-3.8957,-4.2944,-4.6037,-4.7376,-4.7472,-4.7174,-4.6652,-4.7065,-4.6729,-4.4956,-4.5281,-4.5407,-4.4687,-4.4737,-4.4196,-4.2805,-4.3693,-4.3946,-4.3474,-4.3532,-4.3025,-4.1959,-4.1024,-4.0331,-3.9996,-3.8933,-3.8392,-3.8347,-3.7075,-3.6477,-3.6298,-3.5037,-3.4461,-3.4394,-3.2889,-3.2273,-3.2187,-3.0872,-3.0368,-3.0292,-2.9934,-2.9792,-2.9792,0.0,0.0,0.0,0.0,0.0,0.0,0.0,0.0,0.0,0.0,-1.1265,-1.0066,0.0,0.0,0.0,0.0,0.0,0.0,0.0,0.0,0.0,1.1266,1.1065,1.0805,1.0695,1.0801,1.1121,1.166,1.303,1.4077,1.4934,1.5468,1.5923,1.6278,1.5974,1.6192,1.6757,1.6561,1.6042,1.5273,1.4653,1.281,1.0431,1.0678,0.0,0.0,-0.2718,-0.9545,-1.631,-2.155,-2.5319,-2.8245,-3.0478,-3.1345,-3.1445,-3.0896,-3.0673,-3.0517,-3.0268,-2.9425,-2.7993,-2.5392,-2.2274,-1.877,-1.4537,-1.1473,-0.9128,-0.7837,-1.1136,-1.5542,-1.963,-2.6928,-3.4144,-3.9674,-4.3578,-4.6506,-4.8233,-4.9015,-4.8915,-4.7565,-4.692,-4.6162,-4.5145,-4.4977,-4.4301,-4.2942,-4.3586,-4.3782,-4.3075,-4.2973,-4.2718,-4.1968,-4.2552,-4.2385,-4.1242,-4.0792,-4.0331,-3.9996,-3.8933,-3.8392,-3.8347,-3.7075,-3.6261,-3.5712,-3.4481,-3.3919,-3.3851,-3.2331,-3.1823,-3.1796,-3.0797,-3.0228,-2.9856,-2.9869,-2.9792,-2.9792,0.0,0.0,0.0,0.0,0.0,0.0,0.0,-1.2809,-1.1846,-1.0717,-0.954,-0.8567,-0.7943,-0.3632,0.0499,0.0,0.0,0.0,0.0,0.0,0.0,0.0,0.0,0.0,0.9144,0.9179,0.92,0.9249,0.0,1.1491,1.229,1.3028,1.367,1.4302,1.4243,1.4369,1.459,1.4632,1.4317,1.362,1.3084,1.1715,0.9849,0.0,0.0,0.0,-0.6998,-1.1661,-1.5688,-2.0952,-2.512,-2.8634,-3.1601,-3.231,-3.1967,-3.1555,-3.109,-3.0657,-3.0269,-2.9209,-2.7574,-2.4862,-2.1585,-1.7953,-1.3803,-1.0566,-0.8269,-0.7583,-1.1077,-1.5531,-1.9785,-2.7094,-3.3994,-3.8685,-4.276,-4.5875,-4.7489,-4.8668,-4.8756,-4.7112,-4.6318,-4.5441,-4.4236,-4.3869,-4.3458,-4.2826,-4.2961,-4.2673,-4.165,-4.1215,-4.1035,-4.1083,-4.1415,-4.1166,-4.0272,-4.0423,-4.0078,-3.9169,-3.8267,-3.7719,-3.7375,-3.6417,-3.5674,-3.5063,-3.42,-3.352,-3.296,-3.1763,-3.1185,-3.1009,-3.0368,-2.9934,-2.9792,-2.9792,-2.9792,-2.9792,0.0,0.0,0.0,0.0,0.0,0.0,0.0,-1.1005,-1.0285,-0.9498,-0.8189,-0.7272,-0.7112,-0.3374,0.0722,0.0,0.0,0.0,0.0,0.0,0.0,0.0,0.0,0.0,0.7488,0.0,0.0,0.6727,0.7789,0.0,0.0,0.0,0.0,0.0,1.1554,1.165,1.1847,1.1884,1.1825,0.0,0.0,0.9914,0.827,0.0,0.0,0.0,0.0,-1.2679,-1.4708,-1.9622,-2.3364,-2.6626,-3.0313,-3.1846,-3.2196,-3.181,-3.1356,-3.08,-3.0125,-2.8783,-2.6917,-2.4116,-2.0664,-1.7008,-1.3194,-0.9988,-0.7813,-0.7839,-1.1302,-1.5656,-1.9823,-2.6979,-3.3431,-3.7084,-4.1166,-4.4499,-4.6293,-4.7761,-4.8144,-4.6834,-4.5992,-4.4935,-4.3464,-4.3031,-4.2771,-4.2676,-4.2176,-4.1343,-4.0268,-3.9875,-3.9881,-4.034,-4.0308,-3.9969,-3.9308,-3.9763,-3.9336,-3.8167,-3.7524,-3.6956,-3.6462,-3.5657,-3.4986,-3.4394,-3.3851,-3.3171,-3.2345,-3.1421,-3.0823,-3.0495,-2.9998,-2.9792,-2.9792,-2.9792,-2.9792,-2.9792,0.0,0.0,0.0,0.0,0.0,0.0,0.0,-0.968,-0.8849,-0.8705,-0.7788,-0.6799,-0.5855,-0.2865,0.0166,0.0,0.0,0.0,0.0,0.0,0.0,0.0,0.0,0.0,0.0,0.0,0.0,0.447,0.5651,0.0,0.0,0.0,0.0,0.0,0.0,0.9049,0.9328,0.9378,0.0,0.0,0.0,0.0,0.0,0.0,0.0,0.0,0.0,-1.34,-1.4858,-1.7642,-1.9701,-2.1696,-2.4857,-2.9226,-3.286,-3.1219,-3.1231,-3.1457,-2.9889,-2.8029,-2.5799,-2.2574,-1.9204,-1.5717,-1.215,-0.9599,-0.806,-0.8297,-1.1636,-1.5602,-1.9309,-2.5463,-3.1312,-3.5363,-3.896,-4.2294,-4.5299,-4.691,-4.7846,-4.7938,-4.6507,-4.5034,-4.3948,-4.3202,-4.238,-4.147,-4.0573,-4.0076,-4.022,-4.018,-3.9952,-3.9598,-3.9297,-3.8976,-3.86,-3.8315,-3.7978,-3.7494,-3.6866,-3.6537,-3.6462,-3.5267,-3.4394,-3.3851,-3.3325,-3.2846,-3.2345,-3.1421,-3.1022,-3.1044,-3.0139,-2.9792,-2.9792,-2.9792,-2.9792,-2.9792,0.0,0.0,0.0,0.0,0.0,0.0,-0.9134,-0.8376,-0.8146,-0.8543,-0.7498,-0.6475,-0.6016,-0.3586,-0.0737,0.2402,0.0,0.0,0.0,0.0,0.0,0.0,0.0,0.0,0.0,0.0,0.32,0.367,0.4125,0.0,0.0,0.0,0.0,0.0,0.0,0.607,0.4678,0.4923,0.0,0.0,0.0,0.0,0.0,0.0,0.0,0.0,0.0,0.0,-1.5062,-1.7786,-1.9844,-2.1791,-2.5048,-2.8401,-3.1072,-3.0758,-3.1119,-3.1445,-3.0791,-2.8521,-2.5663,-2.279,-1.8971,-1.5148,-1.22,-0.9836,-0.8506,-0.9453,-1.2304,-1.5858,-1.9894,-2.5536,-3.0709,-3.4202,-3.7783,-4.1059,-4.3769,-4.53,-4.6364,-4.7047,-4.5751,-4.4421,-4.3554,-4.2634,-4.1758,-4.1076,-4.0353,-3.9878,-3.9703,-3.9226,-3.885,-3.8623,-3.845,-3.8149,-3.7597,-3.7846,-3.7631,-3.6851,-3.6596,-3.6282,-3.5878,-3.5008,-3.4327,-3.3796,-3.2974,-3.22,-3.1482,-3.0885,-3.0508,-3.0355,-2.9934,-2.9792,-2.9792,-2.9792,-2.9792,-2.9792,0.0,0.0,0.0,0.0,0.0,-0.894,-0.7818,-0.7402,-0.7469,-0.8086,-0.7242,-0.6399,-0.591,-0.4198,-0.18,0.1376,0.2548,0.0,0.0,0.0,0.0,0.0,0.0,0.0,0.0,0.0,0.2252,0.268,0.2297,0.2141,0.0,0.0,0.2945,0.3787,0.0,0.0,0.0,0.0,0.0,0.0,0.0,0.0,0.0,0.0,0.0,0.0,0.0,0.0,0.0,0.0,0.0,-2.1431,-2.4545,-2.6745,-2.8469,-2.995,-3.092,-3.1333,-3.0466,-2.8028,-2.4958,-2.2042,-1.8135,-1.4393,-1.1972,-1.0103,-0.9276,-1.0621,-1.3317,-1.6759,-2.1099,-2.6178,-3.0771,-3.3887,-3.7281,-4.0358,-4.2718,-4.4212,-4.5451,-4.6379,-4.521,-4.4028,-4.3358,-4.2185,-4.1318,-4.0918,-4.0485,-3.9918,-3.9276,-3.8662,-3.8168,-3.7885,-3.767,-3.7247,-3.6717,-3.7091,-3.6908,-3.6193,-3.6193,-3.5872,-3.5198,-3.461,-3.4056,-3.352,-3.2547,-3.1703,-3.0986,-3.0596,-3.0152,-2.9792,-2.9792,-2.9792,-2.9792,-2.9792,-2.9792,-2.9792,0.0,0.0,0.0,0.0,0.0,0.0,-0.7187,-0.6804,-0.6756,-0.7085,-0.7085,-0.6564,-0.5182,-0.4394,-0.3148,-0.1042,0.1309,0.0,0.0,0.0,0.0,0.0,0.0,0.0,0.0,0.0,0.2216,0.1293,-0.0119,-0.0714,-0.0429,-0.0183,-0.042,-0.0987,0.0,0.0,0.0,0.0,0.0,0.0,0.0,0.0,0.0,0.0,0.0,0.0,0.0,0.0,0.0,0.0,0.0,0.0,0.0,-2.3615,-2.5309,-2.8651,-3.0659,-3.1163,-2.8322,-2.5922,-2.331,-1.9672,-1.6307,-1.3318,-1.1134,-1.0282,-1.0359,-1.1624,-1.4738,-1.859,-2.2886,-2.7293,-3.1339,-3.4576,-3.7516,-4.0179,-4.2387,-4.4095,-4.5447,-4.6382,-4.5178,-4.4084,-4.3566,-4.2106,-4.1117,-4.0935,-4.0631,-4.0003,-3.886,-3.8805,-3.8439,-3.7605,-3.6892,-3.6367,-3.5988,-3.5699,-3.5519,-3.5519,-3.5519,-3.5198,-3.4595,-3.4056,-3.352,-3.2988,-3.1982,-3.1421,-3.0986,-3.0596,-3.0152,-2.9792,-2.9792,-2.9792,-2.9792,-2.9792,-2.9792,-2.9792,0.0,0.0,0.0,0.0,0.0,0.0,0.0,-0.6136,-0.6308,-0.7025,-0.6362,-0.555,-0.4592,-0.3463,-0.2255,-0.0986,0.0854,0.0,0.0,0.0,0.0,0.0,0.0,0.0,0.0,0.0,0.0554,-0.0695,-0.224,-0.3324,-0.3993,-0.4257,-0.3481,-0.1895,-0.3843,-0.4663,0.0,0.0,0.0,0.0,0.0,0.0,-1.3307,0.0,0.0,0.0,0.0,0.0,0.0,0.0,0.0,0.0,0.0,0.0,0.0,-2.7487,-2.8974,-2.9807,-2.892,-2.5814,-2.2225,-1.9728,-1.6216,-1.3084,-1.1737,-1.1264,-1.1679,-1.3811,-1.682,-2.0284,-2.4228,-2.8854,-3.273,-3.4715,-3.7305,-3.9675,-4.1494,-4.3042,-4.4405,-4.5492,-4.4492,-4.335,-4.2281,-4.1457,-4.0965,-4.0871,-4.0204,-3.9575,-3.9222,-3.8678,-3.787,-3.6876,-3.66,-3.6241,-3.5683,-3.5569,-3.5504,-3.5504,-3.5504,-3.5198,-3.4595,-3.3768,-3.3101,-3.2489,-3.132,-3.0735,-3.0596,-3.0152,-2.9934,-2.9792,-2.9792,-2.9792,-2.9792,-2.9792,-2.9792,-2.9792,0.0,0.0,0.0,0.0,0.0,0.0,0.0,-0.5366,-0.5588,-0.5977,-0.5483,-0.4797,-0.3854,-0.3222,-0.2489,-0.1466,-0.0255,0.0,0.0,0.0,0.0,0.0,0.0,0.0,0.0,0.1442,0.0507,-0.1621,-0.5118,-0.6611,-0.6169,-0.6693,-0.5931,-0.4133,-0.5837,-0.6462,0.0,0.0,0.0,0.0,0.0,0.0,-1.5211,0.0,0.0,0.0,0.0,0.0,0.0,0.0,0.0,0.0,0.0,0.0,0.0,0.0,-2.7177,-2.7606,-2.7098,-2.4552,-2.1508,-1.9019,-1.6059,-1.3553,-1.2995,-1.2981,-1.3645,-1.5786,-1.8883,-2.2235,-2.5693,-3.0053,-3.37,-3.5426,-3.8022,-4.0232,-4.1408,-4.3232,-4.4541,-4.4832,-4.3888,-4.2775,-4.1577,-4.1105,-4.0871,-4.0776,-4.007,-3.954,-3.9169,-3.8678,-3.777,-3.6554,-3.6492,-3.6178,-3.5504,-3.5504,-3.5504,-3.5504,-3.5279,-3.4839,-3.4259,-3.3297,-3.2605,-3.2055,-3.0872,-3.0368,0.0,-2.9934,-2.9792,-2.9792,-2.9792,-2.9792,-2.9792,-2.9792,-2.9792,-2.9792,0.0,0.0,0.0,0.0,0.0,0.0,0.0,-0.4549,-0.4659,-0.422,-0.4549,-0.4332,-0.3001,-0.3518,-0.3537,-0.2477,0.0,0.0,0.0,0.0,0.0,0.0,0.0,0.0,0.1029,0.207,0.104,-0.2038,-0.8348,-1.0151,-0.7644,-0.8011,-0.8045,-0.7628,-0.6768,-0.6474,0.0,0.0,0.0,0.0,0.0,0.0,0.0,0.0,0.0,0.0,0.0,0.0,0.0,0.0,0.0,0.0,0.0,0.0,0.0,0.0,0.0,0.0,0.0,-2.2537,-2.1082,-1.7991,-1.5937,-1.4832,-1.4864,-1.5379,0.0,-1.776,-2.0994,-2.4487,-2.7524,-3.1138,-3.4426,-3.669,-3.9437,-4.1427,-4.1912,-4.4244,-4.5481,-4.4345,-4.3395,-4.2368,-4.1258,-4.0977,-4.0776,-4.0534,-4.0171,-3.9644,-3.886,-3.875,-3.8042,-3.6477,-3.6415,-3.6133,-3.5504,-3.5504,-3.5504,-3.5504,-3.489,-3.4327,-3.3728,-3.2761,-3.2055,-3.1482,-3.0659,-3.0368,-3.0292,-2.9934,-2.9792,-2.9792,-2.9792,-2.9792,-2.9792,-2.9792,-2.9792,-2.9624,0.0,0.0,0.0,0.0,0.0,0.0,0.0,0.0,0.0,0.0,-0.3843,-0.3716,-0.3297,-0.3686,-0.4091,0.0,0.0,0.0,0.0,0.0,0.0,0.0,0.0,0.0,-0.1794,-0.2937,-0.4391,-0.621,-0.9436,-1.1583,-1.2586,-1.1727,-1.1314,-1.1077,-0.8926,-0.7808,0.0,0.0,0.0,0.0,0.0,0.0,0.0,0.0,0.0,0.0,-2.3322,-2.4281,0.0,0.0,0.0,0.0,0.0,0.0,0.0,0.0,-2.4729,-2.3846,-2.2603,0.0,-2.0839,-1.9403,-1.824,-1.7501,0.0,-1.8487,-1.9499,-2.1561,-2.4103,-2.7106,-3.0825,-3.3655,-3.6141,-3.838,-3.9971,-4.1161,-4.1905,-4.3641,-4.4472,-4.3484,-4.3178,-4.2309,-4.0525,-4.0666,-4.0776,-4.0534,-3.9644,-3.9023,-3.8805,-3.8205,-3.7152,-3.5798,-3.5722,-3.566,-3.5504,-3.5504,-3.5504,-3.5504,-3.489,-3.4192,-3.3297,-3.2376,-3.1442,-3.0659,-3.0152,-2.9934,-2.9934,-2.9869,-2.9792,-2.9792,-2.9792,-2.9792,-2.9792,-2.9792,-2.9468,-2.904,0.0,0.0,0.0,0.0,0.0,0.0,0.0,0.0,0.0,0.0,0.0,-0.3527,-0.3351,-0.4071,0.0,0.0,0.0,0.0,0.0,0.0,0.0,0.0,0.0,-0.468,-0.5011,-0.8674,-1.0587,-1.0477,-1.4136,-1.5652,-1.5116,-1.4483,-1.3424,-1.1962,-0.9266,-0.804,0.0,0.0,0.0,0.0,-1.2966,0.0,0.0,0.0,0.0,0.0,-2.3208,-2.4066,0.0,-2.543,-2.5631,-2.5562,0.0,0.0,0.0,0.0,-2.421,-2.4044,-2.2667,-2.2078,-2.1642,-2.0921,-2.0625,-2.0794,-2.1523,-2.2082,-2.2958,-2.4702,-2.6971,-2.947,-3.2127,-3.5182,-3.7708,-3.8989,-4.0742,-4.2198,-4.295,-4.2986,-4.2952,-4.2941,-4.2448,-4.1689,-4.069,-4.077,-4.0728,-4.0204,-3.947,-3.875,-3.804,-3.7406,-3.6452,-3.5014,-3.4879,-3.4759,-3.4577,-3.4577,-3.445,-3.4258,-3.3682,-3.2911,-3.2027,-3.106,-3.0223,-2.9612,-2.9429,-2.9252,-2.9038,-2.9289,-2.9252,-2.9038,-2.9302,-2.9237,-2.9031,-2.9279,-2.8882,-2.8303,0.0,0.0,0.0,0.0,0.0,0.0,0.0,0.0,0.0,0.0,0.0,0.0,0.0,0.0,0.0,0.0,0.0,0.0,0.0,0.0,0.0,0.0,-0.7026,-0.7756,-0.9498,-1.4232,-1.618,-1.4961,-1.952,-2.0096,-1.6931,-1.6626,-1.4737,-1.1436,-0.8831,-0.7869,0.0,0.0,-0.958,-1.191,-1.3741,0.0,0.0,0.0,0.0,0.0,0.0,0.0,0.0,-2.4548,-2.4898,-2.5007,-2.4347,0.0,0.0,0.0,0.0,0.0,-2.3638,-2.367,-2.3685,-2.2783,-2.3343,-2.4445,-2.5468,-2.5925,-2.6448,-2.7802,-2.9827,-3.1823,-3.3277,-3.6443,-3.9061,-3.9733,-4.1885,-4.3708,-4.44,-4.2724,-4.1739,-4.2522,-4.1651,-4.0925,-4.0791,-4.0602,-4.0158,-3.9446,-3.9068,-3.8327,-3.698,-3.6582,-3.5681,-3.4291,-3.3996,-3.3593,-3.3063,-3.3272,-3.3176,-3.2801,-3.2134,-3.1387,-3.0583,-2.9644,-2.8951,-2.8643,-2.8747,-2.8536,-2.8147,-2.8612,-2.8524,-2.816,-2.8624,-2.8411,-2.7928,-2.8378,-2.8052,-2.7347,0.0,0.0,0.0,0.0,0.0,0.0,0.0,0.0,0.0,0.0,0.0,0.0,0.0,0.0,0.0,0.0,0.0,0.0,0.0,0.0,0.0,-1.2785,-1.0627,-1.199,-1.7627,-1.7768,-1.8469,-1.9895,-2.068,-2.091,-2.0612,-1.8352,-1.5035,-1.0862,-0.9143,-0.8283,-0.8236,-0.9153,-1.0662,-1.2611,-1.4774,0.0,0.0,0.0,0.0,0.0,0.0,0.0,0.0,-2.2666,-2.3506,-2.4738,-2.446,0.0,0.0,0.0,0.0,0.0,-2.5704,-2.7485,-2.8506,-2.6042,-2.6808,-2.8338,-2.9274,-2.951,-3.0075,-3.2029,-3.3018,-3.4488,-3.7607,-3.867,-3.9974,-4.2797,-4.3729,-4.4408,-4.52,-4.4059,-4.2803,-4.1978,-4.1443,-4.0588,-3.9153,-3.866,-3.8238,-3.7736,-3.6937,-3.6427,-3.6206,-3.5545,-3.468,-3.3686,-3.3352,-3.2524,-3.1204,-3.2306,-3.2864,-3.2801,-3.1823,-3.0948,-3.0173,-2.9504,-2.8808,-2.8182,-2.8197,-2.8185,-2.8109,-2.8197,-2.8185,-2.8109,-2.8197,-2.7841,-2.7371,-2.7456,-2.6723,-2.5711,0.0,0.0,0.0,0.0,0.0,0.0,0.0,0.0,0.0,0.0,0.0,0.0,0.0,0.0,0.0,0.0,0.0,0.0,0.0,0.0,-1.3996,-1.6625,-1.7015,-1.8401,-2.1069,-2.1843,-2.2786,-2.3918,-2.3859,-2.3142,-2.17,-1.7074,-1.3304,-1.0379,-0.8739,-0.8241,-0.876,-0.975,-1.1603,-1.4072,0.0,0.0,0.0,0.0,0.0,0.0,0.0,0.0,0.0,0.0,-2.2704,-2.3496,-2.405,0.0,0.0,0.0,0.0,0.0,-2.5845,-2.8076,-3.0145,-2.9721,-3.1408,-3.3347,-3.396,-3.4081,-3.4213,-3.4727,-3.542,-3.6448,-3.8166,-3.9374,-4.0954,-4.3725,-4.4255,-4.4188,-4.3812,-4.2647,-4.1505,-4.072,-4.0335,-3.9805,-3.8894,-3.8332,-3.7742,-3.7169,-3.643,-3.5723,-3.5115,-3.4131,-3.3212,-3.2367,-3.1343,-3.0434,-2.9811,-2.9865,-3.0254,-3.0911,-3.0224,-2.9506,-2.8703,-2.8226,-2.7754,-2.7231,-2.7532,-2.7494,-2.7243,-2.7544,-2.7494,-2.7243,-2.7185,-2.6834,-2.6268,-2.5872,-2.5372,-2.4881,0.0,0.0,0.0,0.0,0.0,0.0,0.0,0.0,0.0,0.0,0.0,0.0,0.0,0.0,0.0,0.0,0.0,0.0,0.0,0.0,-1.6848,-1.9577,-2.2404,-2.3819,-2.3613,-2.5556,-2.6713,-2.6909,-2.6449,-2.4365,-2.0683,-1.5006,-1.1506,-0.9831,-0.8259,-0.8056,-0.9032,-1.0435,-1.2716,-1.543,0.0,0.0,0.0,0.0,0.0,0.0,0.0,0.0,0.0,0.0,0.0,0.0,0.0,0.0,0.0,-2.4247,-2.5032,-2.5944,-2.6168,-2.8442,-3.1133,-3.2623,-3.4747,-3.6643,-3.7344,-3.7703,-3.7793,-3.7629,-3.8133,-3.86,-3.869,-4.0051,-4.1852,-4.3904,-4.4207,-4.3813,-4.2695,-4.1449,-4.0398,-3.9815,-3.9294,-3.8828,-3.8442,-3.7575,-3.6746,-3.5941,-3.5232,-3.4455,-3.3527,-3.2532,-3.172,-3.1113,-2.9665,-2.8861,-2.8764,-2.7894,-2.7959,-2.8878,-2.8656,-2.8085,-2.7261,-2.7191,-2.6918,-2.6546,-2.6766,-2.6728,-2.649,-2.6639,-2.6589,-2.6283,-2.6056,-2.5623,-2.5032,-2.4382,-2.4213,-2.4222,0.0,0.0,0.0,0.0,0.0,0.0,0.0,0.0,0.0,0.0,0.0,0.0,0.0,0.0,0.0,0.0,0.0,0.0,0.0,0.0,-1.9183,-2.1657,-2.4175,-2.6026,-2.711,-2.8318,-2.8787,-2.8442,-2.6805,-2.2933,-1.6919,-1.3148,-1.0572,-0.9048,-0.8142,-0.8036,-0.8627,-1.1498,-1.4007,-1.6255,-1.8855,0.0,0.0,0.0,0.0,0.0,0.0,0.0,0.0,0.0,0.0,0.0,0.0,0.0,-2.4495,-2.5598,-2.5911,-2.625,-2.7941,-3.0223,-3.2489,-3.392,-3.4896,-3.5975,-3.7751,-3.887,-4.0057,-4.1941,-4.1869,-4.1415,-4.1191,-4.1632,-4.2463,-4.3788,-4.3905,-4.3726,-4.3369,-4.2157,-4.0939,-3.9921,-3.8841,-3.7755,-3.6686,-3.5256,-3.3913,-3.2754,-3.1951,-3.141,-3.1076,-3.0706,-3.04,-3.0129,-2.9317,-2.8693,-2.8254,-2.772,-2.7527,-2.7624,-2.7735,-2.7367,-2.6713,-2.7209,-2.7134,-2.6496,-2.5937,-2.6,-2.6427,-2.5394,-2.5261,-2.5606,-2.5052,-2.4502,-2.3954,-2.3323,-2.3394,-2.371,0.0,0.0,0.0,0.0,0.0,0.0,0.0,0.0,0.0,0.0,0.0,0.0,0.0,0.0,0.0,0.0,0.0,0.0,0.0,-1.7901,-1.9724,-2.1985,-2.3667,-2.5179,-2.6405,-2.776,-2.8003,-2.7102,-2.2754,-1.8658,-1.4831,-1.1564,-0.9336,-0.8063,-0.8171,-0.8474,-0.9137,-1.1889,-1.438,-1.6629,-1.8955,-2.1091,0.0,0.0,0.0,0.0,0.0,0.0,0.0,0.0,-2.1212,-2.1875,-2.3264,-2.3819,-2.4256,-2.5879,-2.6298,-2.6621,-2.8192,-3.048,-3.2747,-3.4074,-3.5824,-3.7653,-3.9155,-3.9813,-4.0598,-4.2468,-4.3457,-4.3454,-4.1725,-4.2612,-4.3316,-4.247,-4.3008,-4.3094,-4.1721,-4.0903,-3.9971,-3.8858,-3.7963,-3.6933,-3.578,-3.4278,-3.3071,-3.2364,-3.163,-3.0908,-3.0225,-2.9925,-2.92,-2.7831,-2.7099,-2.6361,-2.5511,-2.5439,-2.5409,-2.5423,-2.6136,-2.639,-2.6087,-2.6257,-2.6003,-2.5448,-2.5548,-2.5724,-2.59,-2.5093,-2.5132,-2.5535,-2.4599,-2.3875,-2.3298,-2.2777,-2.2746,-2.2821,0.0,0.0,0.0,0.0,0.0,0.0,0.0,0.0,0.0,0.0,0.0,0.0,0.0,0.0,0.0,0.0,0.0,0.0,-1.7523,-1.8561,-1.9939,-2.1731,-2.2913,-2.4072,-2.515,-2.5808,-2.5854,-2.5264,-1.9458,-1.5407,-1.3041,-1.0627,-0.892,-0.7887,-0.8769,-0.9431,-1.0119,-1.2932,-1.5426,-1.7699,-2.0131,-2.2211,0.0,0.0,0.0,0.0,0.0,0.0,0.0,0.0,-2.146,-2.1577,-2.3308,-2.4049,-2.4613,-2.6202,-2.6979,-2.7572,-2.8739,-3.0756,-3.2836,-3.425,-3.6096,-3.7858,-3.8821,-3.9965,-4.1361,-4.326,-4.3912,-4.3586,-4.1806,-4.2201,-4.2358,-4.1138,-4.1827,-4.1903,-4.0095,-3.9557,-3.8805,-3.7456,-3.6759,-3.5844,-3.438,-3.316,-3.2174,-3.1495,-3.0699,-2.988,-2.9155,-2.8683,-2.7725,-2.621,-2.5458,-2.4717,-2.3914,-2.3847,-2.3784,-2.3676,-2.4582,-2.5197,-2.5501,-2.5486,-2.5277,-2.4833,-2.4866,-2.4975,-2.5046,-2.4165,-2.4008,-2.4272,-2.3663,-2.315,-2.2687,-2.2157,-2.2147,-2.2231,0.0,0.0,0.0,0.0,0.0,0.0,0.0,0.0,0.0,0.0,0.0,0.0,0.0,0.0,0.0,0.0,0.0,0.0,-1.7897,-1.8915,-1.999,-2.1124,-2.2206,-2.3073,-2.377,-2.2655,-2.2437,-2.3238,-1.7757,-1.3828,-1.1368,-1.0312,-0.9416,-0.8778,-1.0127,-1.1008,-1.1598,-1.4687,-1.7346,-1.9736,-2.2794,-2.4987,-2.6444,0.0,0.0,0.0,0.0,0.0,0.0,0.0,-2.2087,-2.1075,-2.2605,-2.4243,-2.578,-2.6796,-2.8032,-2.9247,-2.9909,-3.1293,-3.291,-3.4587,-3.5454,-3.6005,-3.6255,-3.9247,-4.2577,-4.4779,-4.3296,-4.1587,-4.1578,-4.0192,-3.9265,-4.0074,-4.0474,-4.0185,-3.877,-3.8377,-3.7586,-3.5697,-3.5307,-3.4357,-3.2276,-3.1775,-3.1051,-2.971,-2.8637,-2.7989,-2.7687,-2.6778,-2.6001,-2.5381,-2.4757,-2.4226,-2.3886,-2.3437,-2.3056,-2.2764,-2.3034,-2.3799,-2.4862,-2.515,-2.5103,-2.4705,-2.3673,-2.3466,-2.385,-2.2243,-2.1621,-2.1636,-2.2116,-2.2313,-2.2176,-2.1311,-2.1583,-2.2167,0.0,0.0,0.0,0.0,0.0,0.0,0.0,0.0,0.0,0.0,0.0,0.0,0.0,0.0,0.0,0.0,0.0,0.0,-1.8398,-1.8375,-1.8996,-2.0354,-2.0607,-2.0941,-2.1535,-1.9641,-1.854,-1.8236,-1.4328,-1.1935,-1.1034,-1.0453,-1.0336,-1.059,-1.1542,-1.2327,-1.31,-1.5117,-1.7238,-1.9467,-2.2136,-2.4362,-2.6179,0.0,0.0,0.0,0.0,0.0,0.0,0.0,0.0,0.0,-2.1842,-2.3226,-2.506,-2.7022,-2.8425,-2.9473,-3.0123,-3.1987,-3.3845,-3.4157,-3.5735,-3.7336,-3.7643,-3.797,-3.8792,-4.0841,-4.0874,-4.0779,-4.1534,-4.0824,-3.99,-3.9258,-3.8483,-3.762,-3.6626,-3.584,-3.5139,-3.4579,-3.3982,-3.3191,-3.2191,-3.0857,-2.9724,-2.8936,-2.7775,-2.6767,-2.6035,-2.5849,-2.5012,-2.3424,-2.343,-2.3021,-2.2163,-2.2423,-2.2423,-2.2178,-2.2497,-2.289,-2.3425,-2.4098,-2.3891,-2.3095,-2.3152,-2.3067,-2.2912,-2.2396,-2.1911,-2.1603,-2.1745,-2.1811,-2.1718,-2.091,-2.074,-2.0886,0.0,0.0,0.0,0.0,0.0,0.0,0.0,0.0,0.0,0.0,0.0,0.0,0.0,0.0,0.0,0.0,0.0,0.0,0.0,-1.8494,-1.8792,-1.9709,-1.9664,-1.9681,-1.9931,-1.7945,-1.6681,-1.6199,-1.3319,-1.1825,-1.1593,-1.1831,-1.1983,-1.2255,-1.3504,-1.4277,-1.4611,-1.6407,-1.8307,-2.0342,-2.2981,-2.5127,-2.689,0.0,0.0,0.0,0.0,0.0,0.0,0.0,0.0,0.0,-2.3974,-2.4658,-2.5927,-2.8289,-2.9688,-3.062,-3.1429,-3.3537,-3.5577,-3.5741,-3.7024,-3.8205,-3.7899,-3.8115,-3.8638,-3.9755,-4.0026,-4.0366,-4.1168,-4.0157,-3.8911,-3.8054,-3.6749,-3.5665,-3.5069,-3.4133,-3.3395,-3.3102,-3.2171,-3.1263,-3.0523,-2.9386,-2.8428,-2.7897,-2.6875,-2.5994,-2.533,-2.4882,-2.3938,-2.2349,-2.2249,-2.1758,-2.0745,-2.1205,-2.1291,-2.102,-2.1406,-2.1648,-2.1725,-2.2396,-2.2381,-2.18,-2.1942,-2.1729,-2.1289,-2.1654,-2.1507,-2.1035,-2.1221,-2.1228,-2.0999,-2.0163,-2.004,-2.0114,0.0,0.0,0.0,0.0,0.0,0.0,0.0,0.0,0.0,0.0,0.0,0.0,0.0,0.0,0.0,0.0,0.0,0.0,0.0,0.0,-1.9198,-1.9247,-1.9258,-1.9172,-1.8916,-1.7253,-1.6439,-1.6439,-1.4144,-1.2952,-1.2896,-1.3859,-1.4092,-1.3809,-1.569,-1.6377,-1.6235,-1.8201,-2.0049,-2.1847,-2.4591,-2.6596,-2.8049,-2.9094,0.0,0.0,0.0,0.0,0.0,0.0,0.0,0.0,-2.7373,-2.7132,-2.7405,-2.9776,-3.1202,-3.223,-3.3106,-3.5241,-3.7392,-3.8117,-3.8576,-3.8526,-3.7347,-3.8894,-4.053,-4.0126,-4.0008,-4.0047,-4.0461,-3.8624,-3.6917,-3.6696,-3.5266,-3.4112,-3.3878,-3.2938,-3.2012,-3.1346,-3.0212,-2.9098,-2.8115,-2.7681,-2.7221,-2.6561,-2.5924,-2.5377,-2.4995,-2.3876,-2.2819,-2.1888,-2.1262,-2.0564,-1.97,-1.99,-1.9859,-1.9599,-1.9976,-2.0027,-1.9782,-2.0463,-2.0722,-2.0632,-2.0234,-1.9778,-1.9419,-2.0303,-2.0402,-1.9998,-2.0544,-2.0528,-2.0147,-1.941,-1.9387,-1.9666,0.0,0.0,0.0,0.0,0.0,0.0,0.0,0.0,0.0,0.0,0.0,0.0,0.0,0.0,0.0,0.0,0.0,0.0,0.0,0.0,-1.906,-1.9794,-1.9454,-1.9129,-1.897,-1.7375,-1.6707,-1.6927,-1.4734,-1.3835,-1.4145,-1.4932,-1.5386,-1.5623,-1.6418,-1.7036,-1.7542,-1.8769,-2.025,-2.1931,-2.3948,-2.585,-2.759,-2.8903,-3.0254,0.0,0.0,0.0,0.0,0.0,0.0,0.0,-2.496,-2.4692,-2.5317,-2.7448,-2.9762,-3.1686,-3.1891,-3.3847,-3.5899,-3.611,-3.6953,-3.7587,-3.6943,-3.7224,-3.7493,-3.6997,-3.7826,-3.8643,-3.8751,-3.7367,-3.6215,-3.6156,-3.3751,-3.1893,-3.1819,-3.066,-2.9709,-2.9539,-2.9038,-2.8528,-2.8066,-2.709,-2.6141,-2.5211,-2.4667,-2.3766,-2.2389,-2.2175,-2.1614,-2.0641,-2.0219,-1.9912,-1.97,-1.957,-1.9186,-1.8661,-1.8555,-1.8228,-1.7763,-1.9523,-2.01,-1.9772,-1.922,-1.8962,-1.8862,-1.9069,-1.9091,-1.9047,-1.9539,-1.9661,-1.9565,-1.9236,-1.9189,-1.9141,0.0,0.0,0.0,0.0,0.0,0.0,0.0,0.0,0.0,0.0,0.0,0.0,0.0,0.0,0.0,0.0,0.0,0.0,0.0,0.0,-1.9536,-1.9952,-1.9709,-1.9424,-1.9124,-1.7702,-1.695,-1.6885,-1.5656,-1.5168,-1.5447,-1.5806,-1.6085,-1.6334,-1.6924,-1.7393,-1.7896,-1.9183,-2.0713,-2.2461,-2.3806,-2.5782,-2.8005,-2.8917,-3.026,-3.1658,-3.1793,0.0,0.0,0.0,0.0,0.0,0.0,0.0,-2.4752,-2.5995,-2.7789,-2.9765,-3.138,-3.3433,-3.5332,-3.6342,-3.6995,-3.7261,-3.6806,-3.6591,-3.6374,-3.6045,-3.6864,-3.7502,-3.7007,-3.611,-3.5061,-3.3796,-3.1958,-3.0535,-3.0194,-2.9022,-2.8082,-2.7676,-2.6891,-2.6157,-2.5567,-2.4782,-2.4076,-2.3456,-2.3178,-2.2565,-2.1439,-2.1268,-2.077,-1.9824,-1.9298,-1.893,-1.8647,-1.8419,-1.8144,-1.7811,-1.7447,-1.6997,-1.6507,-1.8063,-1.8496,-1.8081,-1.828,-1.8359,-1.8381,-1.86,-1.8687,-1.872,-1.8776,-1.8749,-1.8553,-1.8568,-1.8273,-1.7839,0.0,0.0,0.0,0.0,0.0,0.0,0.0,0.0,0.0,0.0,0.0,0.0,0.0,0.0,0.0,0.0,0.0,0.0,0.0,0.0,0.0,-2.0092,-2.0043,-1.9789,-1.9295,-1.8047,-1.722,-1.6871,-1.6591,-1.6539,-1.6634,-1.6515,-1.6638,-1.6894,-1.7607,-1.7959,-1.812,-1.9826,-2.1471,-2.3055,-2.4143,-2.6134,-2.8544,-2.9045,-3.0179,-3.1487,-3.1751,-3.1839,-3.1703,-3.1136,0.0,0.0,0.0,0.0,-2.4513,-2.4884,-2.5862,-2.7512,-3.0717,-3.3144,-3.5147,-3.6842,-3.7224,-3.7129,-3.6708,-3.6444,-3.6216,-3.6019,-3.6454,-3.6508,-3.5448,-3.488,-3.376,-3.1318,-3.033,-2.9559,-2.878,-2.7707,-2.669,-2.5862,-2.4636,-2.3576,-2.2891,-2.2481,-2.2141,-2.1862,-2.1892,-2.16,-2.0849,-2.064,-2.0062,-1.9044,-1.8518,-1.8009,-1.7447,-1.718,-1.702,-1.693,-1.6394,-1.5925,-1.5596,-1.6468,-1.6685,-1.6448,-1.7278,-1.7671,-1.7781,-1.8163,-1.8359,-1.8447,-1.8162,-1.7941,-1.7687,-1.7637,-1.7161,-1.6552,0.0,0.0,0.0,0.0,0.0,0.0,0.0,0.0,0.0,0.0,0.0,0.0,0.0,0.0,0.0,0.0,0.0,0.0,-2.1126,0.0,0.0,-2.0852,-2.0346,-1.9808,-1.9247,-1.8075,-1.744,-1.7382,-1.7318,-1.7246,-1.7291,-1.7291,-1.775,-1.8677,-1.9125,-1.9359,-1.9478,-2.1348,-2.2623,-2.3515,-2.5213,-2.6794,-2.8217,-2.9353,-3.0221,-3.0941,-3.1776,-3.1751,-3.1487,-3.206,-3.0678,0.0,0.0,0.0,-2.3605,-2.3699,-2.47,-2.6228,-2.8602,-3.1818,-3.4539,-3.5028,-3.5786,-3.6409,-3.6343,-3.6191,-3.6019,-3.6019,-3.5868,-3.5476,-3.4404,-3.3623,-3.2637,-3.0983,-2.9549,-2.8344,-2.7479,-2.6191,-2.5089,-2.4543,-2.3567,-2.2925,-2.2828,-2.2362,-2.1789,-2.1196,-2.1485,-2.098,-1.9219,-1.962,-1.9252,-1.7773,-1.7677,-1.7514,-1.724,-1.6701,-1.6249,-1.5985,-1.5085,-1.4664,-1.4591,-1.5121,-1.5581,-1.5883,-1.6014,-1.6297,-1.6721,-1.6787,-1.7071,-1.7508,-1.7541,-1.7573,-1.7448,-1.6924,-1.6577,-1.6395,0.0,0.0,0.0,0.0,0.0,0.0,0.0,0.0,0.0,0.0,0.0,0.0,0.0,0.0,0.0,-2.1097,-2.1282,-2.1266,-2.0881,-2.0524,-2.0349,-2.0451,-2.0006,-1.9602,-1.9304,-1.8176,-1.7444,-1.7113,-1.7207,-1.7407,-1.7654,-1.8112,-1.8578,-1.904,-1.9371,-1.9976,-2.0746,-2.2005,-2.3554,-2.518,-2.5757,-2.7504,-2.9714,-2.9629,-3.0441,-3.1545,-3.1121,-3.1235,-3.1498,-3.102,-3.0018,-2.8528,-2.63,0.0,0.0,0.0,-2.2944,-2.4168,-2.7211,-3.0267,-3.2937,-3.4209,-3.513,-3.5783,-3.6215,-3.6131,-3.6019,-3.6019,-3.5622,-3.486,-3.3375,-3.2984,-3.217,-2.9845,-2.8665,-2.7732,-2.6951,-2.5378,-2.404,-2.3291,-2.2342,-2.16,-2.1126,-2.0855,-2.0587,-2.027,-2.0468,-2.0129,-1.9084,-1.9063,-1.8681,-1.7801,-1.7393,-1.7115,-1.7044,-1.625,-1.5579,-1.4994,-1.4605,-1.4373,-1.443,-1.4602,-1.4963,-1.5443,-1.5665,-1.5905,-1.6153,-1.6415,-1.6645,-1.6841,-1.68,-1.668,-1.6372,-1.6049,-1.552,-1.4979,0.0,0.0,0.0,0.0,0.0,0.0,0.0,0.0,0.0,0.0,0.0,0.0,0.0,0.0,0.0,0.0,-2.1808,-2.1492,-2.0695,-2.025,-2.0001,-1.9993,-1.9545,-1.9409,-1.9583,-1.8354,-1.7513,-1.7051,-1.7127,-1.7374,-1.7795,-1.8744,-1.9359,-1.9592,-1.9902,-2.0706,-2.1856,-2.2779,-2.4586,-2.6892,-2.6822,-2.8636,-3.1319,-3.0441,-3.1025,-3.2101,-3.0847,-3.0762,-3.115,-3.0112,-2.9097,-2.8062,-2.6633,-2.5075,0.0,0.0,0.0,-2.3202,-2.5914,-2.8711,-3.1303,-3.2984,-3.4158,-3.5027,-3.5574,-3.5735,-3.5756,-3.5756,-3.5199,-3.4157,-3.2471,-3.2409,-3.1687,-2.8762,-2.7875,-2.7251,-2.6439,-2.4657,-2.3132,-2.2339,-2.1316,-2.0397,-1.9771,-1.969,-1.969,-1.969,-1.9611,-1.9428,-1.9101,-1.8634,-1.8202,-1.7787,-1.7199,-1.6876,-1.6791,-1.5957,-1.5153,-1.4373,-1.4373,-1.4373,-1.4373,-1.4373,-1.458,-1.4941,-1.5301,-1.548,-1.5622,-1.6022,-1.6177,-1.6212,-1.5922,-1.5602,-1.5254,-1.4893,-1.4285,-1.3723,0.0,0.0,0.0,0.0,0.0,0.0,0.0,0.0,0.0,0.0,0.0,0.0,-2.1657,-2.2731,-2.3094,-2.2176,-2.2376,-2.2043,-2.077,-2.0256,-2.0056,-2.0075,-1.9293,0.0,-2.002,-1.8643,-1.7869,-1.7739,-1.7353,-1.7338,-1.7622,-1.8891,-2.0042,-2.1077,-2.1348,-2.1882,-2.2633,-2.4083,-2.5927,-2.8023,-2.9071,-3.0609,-3.2236,-3.2109,-3.2125,-3.2122,-3.1413,-3.0598,-2.9918,-3.0113,-2.8525,-2.6515,-2.6325,-2.5109,-2.3524,0.0,0.0,0.0,-2.4611,-2.7146,-2.9942,-3.0464,-3.2351,-3.4074,-3.4125,-3.4664,-3.5152,-3.5152,-3.4256,-3.3092,-3.1678,-3.1662,-3.0972,-2.8288,-2.7506,-2.6809,-2.5637,-2.3754,-2.2309,-2.1813,-2.0565,-1.9756,-1.969,-1.969,-1.969,-1.969,-1.9405,-1.9127,-1.8844,-1.8325,-1.7785,-1.724,-1.7002,-1.6791,-1.6522,-1.5824,-1.5153,-1.4373,-1.4373,-1.4373,-1.4373,-1.4373,-1.4395,-1.4417,-1.4439,-1.4712,-1.5148,-1.517,-1.5293,-1.5383,-1.4765,-1.4543,-1.4458,-1.3362,-1.3076,-1.3241,0.0,0.0,0.0,0.0,0.0,0.0,0.0,0.0,0.0,0.0,0.0,0.0,0.0,-2.2949,-2.3186,-2.2198,-2.1817,-2.1456,-2.1013,-2.037,-1.9948,-1.9716,-1.8815,-1.8446,-1.888,-1.8148,-1.7737,-1.7624,-1.7286,-1.7648,-1.8596,-1.8917,-1.9762,-2.1082,-2.2048,-2.3455,-2.5179,-2.64,-2.8401,-3.0794,-3.1207,-3.2115,-3.3156,-3.271,-3.2829,-3.3096,-3.1932,-3.1751,-3.1927,-3.1131,-2.9479,-2.7739,-2.727,-2.6008,-2.4475,-2.3607,-2.331,-2.359,-2.4984,-2.6447,-2.7951,-2.94,-3.0895,-3.2151,-3.2672,-3.3283,-3.3955,-3.4789,-3.435,-3.329,-3.1385,-3.0943,-3.0307,-2.8482,-2.7566,-2.6779,-2.5923,-2.4283,-2.2964,-2.2409,-2.1156,-2.0348,-2.0348,-1.9944,-1.9603,-1.9406,-1.9265,-1.9078,-1.8803,-1.8163,-1.7706,-1.7516,-1.6947,-1.6392,-1.5856,-1.5187,-1.4605,-1.415,-1.415,-1.415,-1.415,-1.4337,-1.4373,-1.4373,-1.4373,-1.4482,-1.4657,-1.4974,-1.5154,-1.5221,-1.5183,-1.484,-1.427,-1.3758,-1.3228,-1.2858,0.0,0.0,0.0,0.0,0.0,0.0,0.0,0.0,0.0,-2.479,0.0,0.0,0.0,0.0,-2.4119,-2.2979,-2.2075,-2.1486,-2.1253,-2.0441,-1.9799,-1.953,-1.8428,-1.7982,-1.8418,-1.7908,-1.7638,-1.7529,-1.7155,-1.7601,-1.8816,-1.8731,-1.9643,-2.1452,-2.2965,-2.4568,-2.6213,-2.7842,-3.0177,-3.2916,-3.3193,-3.3905,-3.4767,-3.4162,-3.4104,-3.4186,-3.3003,-3.2976,-3.3283,-3.2022,-3.0402,-2.8821,-2.8003,-2.6603,-2.5066,-2.4463,-2.3815,-2.3654,-2.5272,-2.6057,-2.6719,-2.8216,-2.9483,-3.0494,-3.0953,-3.1855,-3.2901,-3.3876,-3.3414,-3.2313,-3.0736,-2.967,-2.8747,-2.8035,-2.7252,-2.6552,-2.5878,-2.4295,-2.3098,-2.27,-2.1465,-2.0686,-2.0686,-2.0101,-1.9612,-1.9376,-1.9084,-1.8803,-1.8623,-1.7935,-1.7434,-1.7131,-1.6509,-1.5901,-1.5277,-1.4777,-1.4373,-1.415,-1.402,-1.4067,-1.415,-1.4337,-1.4373,-1.4373,-1.4373,-1.4373,-1.4406,-1.4638,-1.4672,-1.458,-1.4573,-1.4136,-1.3479,-1.3261,-1.289,-1.2385,0.0,0.0,0.0,0.0,0.0,0.0,0.0,0.0,-2.8864,-2.803,0.0,0.0,0.0,0.0,0.0,-2.4577,-2.3227,-2.2228,-2.169,-2.0398,-1.967,-1.9626,-1.8289,-1.7927,-1.8824,-1.8076,-1.7656,-1.7638,-1.7038,-1.7257,-1.8349,-1.8421,-1.9723,-2.2207,-2.4077,-2.5114,-2.5648,-2.8288,-3.1169,-3.4136,-3.4992,-3.5997,-3.6986,-3.6544,-3.5959,-3.5331,-3.4589,-3.4117,-3.3724,-3.2699,-3.1143,-2.9478,-2.841,-2.6794,-2.5232,-2.5082,-2.4924,-2.4934,0.0,0.0,0.0,-2.6862,-2.8128,-2.9175,-2.9014,-3.0347,-3.184,-3.2323,-3.1212,-3.006,-2.9766,-2.7788,-2.6361,-2.6797,-2.6512,-2.605,-2.5392,-2.3749,-2.258,-2.2537,-2.141,-2.0656,-2.0642,-2.0088,-1.9706,-1.9677,-1.8849,-1.8289,-1.8275,-1.7568,-1.6808,-1.5988,-1.5647,-1.5277,-1.4903,-1.464,-1.4466,-1.4373,-1.4104,-1.4161,-1.4384,-1.4373,-1.4373,-1.4373,-1.4373,-1.4373,-1.4384,-1.4104,-1.3868,-1.3563,-1.2929,-1.2497,-1.2211,-1.1814,-1.183,-1.2019,0.0,0.0,0.0,0.0,0.0,-3.3734,-3.2458,-3.121,-2.9772,0.0,0.0,0.0,-2.6918,-2.618,-2.5611,-2.5364,-2.3702,-2.2776,-2.3119,-2.2143,-2.1273,-2.0663,-1.9596,-1.9017,-1.902,-1.8512,-1.8087,-1.7727,-1.7298,-1.7916,-1.9293,-1.9147,-2.0379,-2.2825,-2.4718,-2.602,-2.698,-3.0135,-3.294,-3.5338,-3.5839,-3.6508,-3.7119,-3.6307,-3.5851,-3.5665,-3.4977,-3.4809,-3.4855,-3.4079,-3.2467,-3.0482,-2.8546,-2.7054,-2.5986,-2.5962,-2.5593,-2.527,-2.5749,0.0,0.0,0.0,0.0,0.0,-2.786,-2.8333,-2.9207,-3.0761,-2.9735,-2.8272,-2.7165,-2.6811,-2.6397,-2.5784,-2.5816,-2.5706,-2.5057,-2.468,-2.4191,-2.3264,-2.2466,-2.1825,-2.1368,-2.074,-2.0055,-1.9369,-1.8961,-1.844,-1.7773,-1.6976,-1.6281,-1.5647,-1.5277,-1.4903,-1.4582,-1.428,-1.4057,-1.38,-1.3962,-1.402,-1.4104,-1.4291,-1.4373,-1.4373,-1.4373,-1.4373,-1.4373,-1.4337,-1.4233,-1.4172,-1.407,-1.3671,-1.3133,-1.3141,-1.2814,-1.2404,0.0,0.0,0.0,0.0,0.0,-3.4747,-3.3572,-3.2258,-3.0935,0.0,0.0,0.0,-2.8935,-2.7369,-2.6394,-2.6526,-2.4623,-2.3505,-2.3694,-2.2695,-2.1815,-2.1058,-2.007,-1.9512,-1.9309,-1.8938,-1.8602,-1.8285,-1.7961,-1.8568,-1.9994,-1.9849,-2.105,-2.3447,-2.5463,-2.7051,-2.8356,-3.157,-3.3812,-3.5314,-3.6515,-3.7271,-3.7619,-3.7131,-3.6644,-3.6206,-3.5907,-3.5533,-3.5202,-3.4924,-3.3271,-3.0936,-2.8928,-2.7527,-2.6694,-2.6568,-2.5945,-2.5431,-2.5977,-2.6162,-2.6149,-2.6149,0.0,0.0,-2.6908,-2.7068,-2.744,-2.8448,-2.7929,-2.7015,-2.6203,-2.5685,-2.5317,-2.4835,-2.4937,-2.4969,-2.4573,-2.4612,-2.4357,-2.3622,-2.2691,-2.1994,-2.173,-2.0822,-1.9983,-1.9439,-1.9108,-1.8458,-1.745,-1.6792,-1.6061,-1.5277,-1.4994,-1.4812,-1.4686,-1.4373,-1.4186,-1.4129,-1.4057,-1.4067,-1.415,-1.4337,-1.4373,-1.4373,-1.4373,-1.4373,-1.4373,-1.4373,-1.4337,-1.423,-1.4211,-1.392,-1.3576,-1.3329,-1.3058,-1.2797,0.0,0.0,-3.3321,-3.4909,-3.4934,-3.4519,-3.3894,-3.2777,-3.1927,0.0,-3.1597,-3.1596,-3.1709,-2.9493,-2.8022,-2.8048,-2.5813,-2.4305,-2.4171,-2.2891,-2.1842,-2.136,-2.035,-1.98,-1.98,-1.945,-1.9126,-1.9069,-1.884,-1.9287,-2.0291,-2.0698,-2.2065,-2.4299,-2.6433,-2.8162,-2.9608,-3.251,-3.4018,-3.4627,-3.6835,-3.7984,-3.8377,-3.8319,-3.7642,-3.6799,-3.6862,-3.6107,-3.5063,-3.5126,-3.3516,-3.1114,-2.9413,-2.826,-2.7377,-2.6875,-2.6087,-2.545,-2.5863,-2.5839,-2.5791,-2.5835,-2.5905,0.0,-2.6068,-2.6212,-2.6204,-2.5785,-2.5729,-2.5778,-2.5794,-2.4411,-2.3449,-2.391,-2.3968,-2.3995,-2.4118,-2.3927,-2.375,-2.3572,-2.243,-2.1695,-2.1758,-2.0607,-1.9794,-1.9725,-1.917,-1.8349,-1.7235,-1.6815,-1.609,-1.5005,-1.4937,-1.4903,-1.4949,-1.4766,-1.4731,-1.4903,-1.4373,-1.4244,-1.4466,-1.443,-1.4419,-1.4466,-1.443,-1.4373,-1.4373,-1.4373,-1.4244,-1.402,-1.3763,-1.3713,-1.361,-1.2941,-1.2896,-1.3058,0.0,-3.1289,-3.3632,-3.4281,-3.4661,-3.4592,-3.3849,-3.2436,-3.1369,-3.1173,-3.1566,-3.2182,-3.299,-3.1297,-3.0115,-3.0363,-2.7386,-2.5873,-2.6804,-2.472,-2.3458,-2.3301,-2.2051,-2.1359,-2.1359,-2.0661,-2.0024,-1.9572,-1.9935,-1.9829,-1.9427,-2.1878,-2.4129,-2.6157,-2.7876,-2.9199,-3.0351,-3.2547,-3.3853,-3.4605,-3.6078,-3.7786,-3.9206,-3.7512,-3.6857,-3.6739,-3.632,-3.5834,-3.5274,-3.4239,-3.3186,-3.193,-3.0037,-2.9009,-2.8129,-2.6237,-2.5653,-2.5352,-2.4118,-2.4062,-2.438,-2.4875,-2.4512,0.0,-2.446,-2.4549,-2.4313,-2.3312,-2.3265,-2.3313,-2.316,-2.2184,-2.1704,-2.286,-2.3064,-2.3321,-2.4008,-2.4257,-2.3936,-2.2783,-2.2778,-2.2341,-2.1077,-2.073,-2.0335,-1.9729,-1.9016,-1.8129,-1.711,-1.661,-1.6092,-1.5468,-1.5119,-1.504,-1.5299,-1.5478,-1.5344,-1.4903,-1.4994,-1.4949,-1.4777,-1.4512,-1.4558,-1.4777,-1.4512,-1.4373,-1.4373,-1.4373,-1.4373,-1.4337,-1.428,-1.4005,-1.3585,-1.3418,-1.3123,-1.2793,-2.8138,-3.0236,-3.216,-3.3498,-3.4053,-3.4162,-3.3792,-3.2915,-3.2264,-3.221,-3.2658,-3.298,-3.3077,-3.1753,-3.0845,-3.1053,-2.8599,-2.7319,-2.7926,-2.6152,-2.4935,-2.4698,-2.347,-2.2715,-2.249,-2.1839,-2.1293,-2.0769,-2.1009,-2.1104,-2.1246,-2.2553,-2.4494,-2.6937,-2.8698,-2.9978,-3.1025,-3.3063,-3.4333,-3.5053,-3.6041,-3.7182,-3.8187,-3.7326,-3.6761,-3.6399,-3.6289,-3.5925,-3.531,-3.3948,-3.3275,-3.2721,-3.1076,-3.0033,-2.8966,-2.6931,-2.6042,-2.548,-2.4395,-2.421,-2.4385,-2.4695,-2.3983,0.0,0.0,-2.3339,-2.3102,-2.1889,-2.2112,-2.2483,-2.2373,-2.1939,-2.1828,-2.274,-2.2698,-2.2483,-2.2184,-2.2862,-2.3069,-2.2126,-2.1822,-2.1357,-2.0414,-2.0165,-1.9797,-1.9193,-1.8795,-1.8224,-1.742,-1.7161,-1.6773,-1.6138,-1.6054,-1.6065,-1.6051,-1.6182,-1.6095,-1.5788,-1.5433,-1.522,-1.5085,-1.4593,-1.4593,-1.4858,-1.4558,-1.4512,-1.464,-1.4466,-1.4373,-1.4373,-1.4373,-1.4279,-1.4052,-1.3417,-1.3129,-1.2948,-2.7987,-2.8884,-3.0038,-3.2048,-3.2607,-3.2882,-3.3137,-3.2951,-3.2928,-3.3361,-3.3758,-3.3818,-3.3155,-3.1985,-3.1316,-3.1516,-2.9611,-2.8396,-2.8445,-2.7209,-2.613,-2.5504,-2.4635,-2.3945,-2.3496,-2.3062,-2.2554,-2.2059,-2.1984,-2.2435,-2.3225,-2.3393,-2.4999,-2.7801,-2.9507,-3.0908,-3.2091,-3.3832,-3.5037,-3.5752,-3.6314,-3.6713,-3.7083,-3.7191,-3.6676,-3.5997,-3.6243,-3.594,-3.531,-3.3948,-3.3499,-3.3215,-3.1644,-3.0656,-2.9666,-2.7515,-2.6378,-2.5617,-2.475,-2.4249,-2.3979,-2.4048,-2.3234,-2.2333,0.0,0.0,0.0,-2.0789,-2.1076,-2.149,-2.1604,-2.1564,-2.1716,-2.2075,-2.1922,-2.1278,-1.9867,-2.0549,-2.1035,-2.0682,-2.0177,-1.9674,-1.926,-1.8942,-1.8632,-1.8259,-1.8468,-1.8412,-1.8076,-1.8088,-1.7822,-1.7142,-1.7289,-1.7245,-1.7004,-1.6888,-1.6837,-1.6752,-1.5964,-1.5522,-1.5478,-1.4869,-1.4777,-1.5006,-1.4651,-1.4593,-1.4766,-1.4512,-1.4373,-1.4373,-1.4395,-1.4434,-1.4366,-1.3377,-1.3013,-1.2978,-2.6671,-2.7473,-2.8329,-2.9023,-2.9329,-2.9809,-3.0897,-3.1004,-3.1607,-3.3246,-3.4031,-3.4485,-3.464,-3.3185,-3.2482,-3.306,-3.032,-2.8619,-2.8619,-2.766,-2.6625,-2.5635,-2.557,-2.526,-2.4646,-2.4241,-2.3663,-2.307,-2.294,-2.2969,-2.3091,-2.5217,-2.7485,-2.9769,-3.105,-3.2497,-3.4087,-3.4638,-3.5514,-3.6476,-3.6517,-3.6927,-3.7528,-3.6554,-3.5915,-3.5589,-3.5608,-3.5569,-3.531,-3.3948,-3.3499,-3.3066,-3.0582,-3.0241,-2.9973,-2.6418,-2.5549,-2.5348,-2.3314,-2.2111,-2.1394,-2.1367,-2.0914,-2.0463,-2.0131,0.0,-1.9973,-1.9527,0.0,-1.8646,-1.8993,0.0,0.0,-1.932,-1.9565,-1.9251,-1.7832,-1.7396,-1.7203,-1.7136,-1.7842,-1.7814,-1.6417,-1.6734,-1.6948,-1.6944,-1.789,-1.8605,-1.8874,-1.9108,-1.9113,-1.8915,-1.8326,-1.8087,-1.8203,-1.7686,-1.7256,-1.6951,-1.6667,-1.6411,-1.6182,-1.5635,-1.5424,-1.5424,-1.5006,-1.4686,-1.4466,-1.443,-1.4373,-1.4384,-1.4424,-1.4105,-1.3697,-1.342,-1.2917,-1.2325,-2.7356,-2.7443,-2.7917,-2.9398,-2.9115,-2.9288,-3.0881,-3.156,-3.2377,-3.3712,-3.4312,-3.4361,-3.393,-3.3276,-3.2881,-3.2895,-3.083,-2.9422,-2.9144,-2.8174,-2.7062,-2.5959,-2.6348,-2.6107,-2.5087,-2.5163,-2.4787,-2.3945,-2.3928,-2.4043,-2.4214,-2.5354,-2.7192,-2.9673,-3.1525,-3.2933,-3.3864,-3.4832,-3.5386,-3.5654,-3.6052,-3.63,-3.6411,-3.632,-3.5834,-3.523,-3.5073,-3.4773,-3.4359,-3.3441,-3.264,-3.1839,-3.0551,-2.9635,-2.8626,-2.654,-2.573,-2.5188,-2.3414,-2.2839,-2.2548,-2.1902,-2.1485,-2.1102,-2.0654,-2.022,-1.9797,-1.9312,0.0,0.0,0.0,0.0,0.0,0.0,-1.8556,-1.7767,-1.5707,-1.4879,-1.4768,-1.5713,-1.6253,-1.6066,-1.5007,-1.4995,-1.5195,-1.5543,-1.6955,-1.8259,-1.9389,-2.0073,-2.0428,-2.0584,-2.0137,-1.9692,-1.9224,-1.8755,-1.829,-1.7733,-1.7047,-1.6625,-1.6497,-1.5579,-1.5277,-1.5468,-1.4869,-1.464,-1.4686,-1.4466,-1.4291,-1.4161,-1.4131,-1.3921,-1.3546,-1.3096,-1.2516,-1.1954,-2.7803,-2.7681,-2.8137,-3.0035,-2.9766,-2.9868,-3.1604,-3.2402,-3.3138,-3.4098,-3.423,-3.3886,-3.3026,-3.2746,-3.2526,-3.2213,-3.0829,-2.9588,-2.8893,-2.8281,-2.7382,-2.6102,-2.6903,-2.6832,-2.5706,-2.5983,-2.5724,-2.4855,-2.4962,-2.4985,-2.509,-2.568,-2.6895,-2.8617,-3.1182,-3.2796,-3.3758,-3.4662,-3.491,-3.4823,-3.5462,-3.5675,-3.5569,-3.5846,-3.5544,-3.4898,-3.4324,-3.3864,-3.3439,-3.273,-3.1738,-3.075,-3.0221,-2.919,-2.7893,-2.6666,-2.6017,-2.5257,-2.3223,-2.3131,-2.3336,-2.239,-2.204,-2.1695,-2.11,-2.0481,-1.9812,-1.9156,-1.9003,0.0,0.0,0.0,-1.857,-1.7705,0.0,-1.6277,-1.399,-1.3163,-1.3284,-1.4513,-1.474,-1.4505,-1.3884,-1.3614,-1.377,-1.43,-1.6259,-1.8154,-1.9875,-2.1179,-2.1942,-2.2149,-2.1758,-2.1055,-2.0079,-1.9636,-1.9039,-1.8226,-1.738,-1.6892,-1.6723,-1.5668,-1.5322,-1.5468,-1.4834,-1.464,-1.472,-1.4512,-1.4291,-1.4114,-1.39,-1.3747,-1.3515,-1.2929,-1.2353,-1.1858,-2.7313,-2.7861,-2.8812,-2.9979,-3.0622,-3.1369,-3.2849,-3.2934,-3.3177,-3.4118,-3.3691,-3.3104,-3.2603,-3.1652,-3.1125,-3.1199,-3.0083,-2.8666,-2.7151,-2.7991,-2.7573,-2.5589,-2.6976,-2.7499,-2.6891,-2.6903,-2.6561,-2.5874,-2.5954,-2.5643,-2.4977,-2.6757,-2.7209,-2.6655,-2.9636,-3.2235,-3.4347,-3.3986,-3.4002,-3.4351,-3.4883,-3.527,-3.5424,-3.489,-3.4662,-3.4441,-3.3365,-3.2949,-3.2797,-3.1716,-3.1016,-3.0319,-2.9232,-2.8898,-2.8588,-2.653,-2.6199,-2.57,-2.214,-2.196,-2.2588,-2.1826,-2.1555,-2.1369,-2.0824,-2.0353,-1.9756,-1.8805,-1.826,-1.7822,-1.7456,-1.7132,-1.6624,-1.5828,-1.5334,0.0,0.0,-1.2727,-1.269,-1.2924,-1.3247,-1.3251,-1.2595,-1.2549,-1.2722,-1.3226,-1.6136,-1.8631,-2.0382,-2.2526,-2.3658,-2.3541,-2.2835,-2.188,-2.0669,-2.0067,-1.9199,-1.7988,-1.7787,-1.7393,-1.6876,-1.625,-1.5768,-1.5468,-1.504,-1.4686,-1.443,-1.4373,-1.4373,-1.4326,-1.381,-1.3621,-1.3525,-1.3065,-1.2627,-1.2234,-2.5732,-2.7013,-2.8541,-3.0209,-3.0751,-3.1361,-3.2344,-3.2151,-3.2388,-3.3788,-3.3529,-3.2845,-3.1832,-3.1599,-3.1272,-3.0584,-2.9658,-2.8566,-2.7019,-2.747,-2.7216,-2.5851,-2.6786,-2.715,-2.6716,-2.6395,-2.6146,-2.5895,-2.5981,-2.6106,-2.6481,-2.7048,-2.6898,-2.6196,-2.8794,-3.1097,-3.2998,-3.3801,-3.4042,-3.3988,-3.4192,-3.3848,-3.3303,-3.3888,-3.4056,-3.3959,-3.3224,-3.2597,-3.1935,-3.1181,-3.0036,-2.8919,-2.8356,-2.7262,-2.619,-2.5678,-2.5469,-2.5153,-2.4183,-2.4205,-2.4029,-2.2493,-2.2103,-2.1834,-2.0986,-1.9877,-1.8987,-1.8657,-1.7811,-1.7022,-1.6606,-1.6274,-1.5759,-1.4547,-1.4277,-1.3823,0.0,-1.2767,-1.2924,-1.2417,-1.2447,-1.2179,-1.1369,-1.1092,-1.1524,-1.3014,-1.5622,-1.8359,-2.1227,-2.301,-2.4085,-2.4498,-2.3845,-2.2813,-2.1374,-2.0773,-1.9746,-1.8305,-1.7679,-1.7199,-1.6876,-1.6044,-1.5603,-1.5468,-1.4823,-1.4512,-1.4373,-1.4373,-1.4291,-1.4104,-1.3763,-1.3515,-1.3314,-1.3017,-1.2627,-1.2262,-2.4914,-2.6521,-2.8291,-2.9934,-3.0651,-3.1202,-3.1987,-3.1784,-3.2141,-3.3587,-3.2961,-3.2045,-3.1248,-3.0798,-3.0243,-2.9602,-2.8878,-2.7915,-2.6548,-2.7088,-2.6854,-2.5704,-2.6354,-2.6552,-2.6108,-2.5807,-2.5549,-2.5369,-2.5979,-2.6407,-2.6738,-2.7042,-2.6702,-2.6012,-2.7934,-3.0025,-3.2263,-3.3003,-3.3437,-3.352,-3.352,-3.3189,-3.2711,-3.3099,-3.3254,-3.3125,-3.2443,-3.1816,-3.1196,-3.052,-2.934,-2.8135,-2.7921,-2.6777,-2.5479,-2.5737,-2.5618,-2.5357,-2.5205,-2.5149,-2.4715,-2.2838,-2.2526,-2.2355,-2.129,-2.0152,-1.9213,-1.8961,-1.7841,-1.68,-1.6607,-1.5984,-1.5219,-1.4335,-1.3958,-1.3564,0.0,-1.3081,-1.3259,-1.2401,-1.2387,-1.2045,-1.0857,-1.0819,-1.1301,-1.231,-1.5678,-1.89,-2.1678,-2.3538,-2.4704,-2.5134,-2.4461,-2.3288,-2.1535,-2.1155,-2.0,-1.8226,-1.7639,-1.7157,-1.6748,-1.5869,-1.5513,-1.5468,-1.4743,-1.4373,-1.4373,-1.4373,-1.4291,-1.4104,-1.3763,-1.3515,-1.3324,-1.3017,-1.2529,-1.2081,-2.4893,-2.6521,-2.8211,-2.9263,-3.0279,-3.111,-3.1649,-3.1734,-3.2275,-3.358,-3.2133,-3.0881,-3.0728,-2.9311,-2.8296,-2.8217,-2.7617,-2.6771,-2.5883,-2.6703,-2.6597,-2.5209,-2.5659,-2.5672,-2.5233,-2.5188,-2.502,-2.4498,-2.6041,-2.6517,-2.5848,-2.6749,-2.6747,-2.6005,-2.6952,-2.9163,-3.2118,-3.1815,-3.2214,-3.3044,-3.2988,-3.3227,-3.3518,-3.2561,-3.2132,-3.1944,-3.106,-3.073,-3.0586,-2.9783,-2.8733,-2.7876,-2.8006,-2.7344,-2.6533,-2.6533,-2.6533,-2.6264,-2.5054,-2.4798,-2.4394,-2.2768,-2.2686,-2.2784,-2.181,-2.0962,-2.0205,-1.9539,-1.8176,-1.7094,-1.7288,-1.6017,-1.5005,-1.4925,-1.4273,-1.3635,-1.3344,-1.3526,-1.3421,-1.2661,-1.3026,-1.2683,-1.1041,-1.1639,-1.1951,-1.1413,-1.6339,-2.0106,-2.1831,-2.412,-2.5378,-2.5363,-2.4648,-2.3288,-2.124,-2.1225,-2.0069,-1.776,-1.772,-1.7282,-1.6466,-1.5812,-1.5468,-1.5424,-1.4697,-1.4373,-1.4373,-1.4373,-1.4373,-1.4326,-1.38,-1.3621,-1.3525,-1.3065,-1.2372,-1.1731,-2.4416,-2.6569,-2.8639,-2.9521,-2.9934,-3.0216,-3.0456,-3.0971,-3.177,-3.2808,-3.2147,-3.0663,-2.8376,-2.8605,-2.8343,-2.7065,-2.7074,-2.6809,-2.5759,-2.6325,-2.6408,-2.5671,-2.5776,-2.5643,-2.5213,-2.553,-2.5285,-2.4498,-2.5622,-2.5884,-2.5421,-2.5979,-2.6447,-2.6865,-2.6744,-2.8464,-3.1376,-3.2423,-3.3028,-3.3198,-3.2605,-3.2148,-3.1695,-3.1726,-3.1487,-3.1101,-3.1315,-3.0961,-3.0452,-3.0226,-2.9173,-2.8053,-2.8059,-2.7344,-2.6533,-2.6533,-2.6533,-2.6321,-2.5391,-2.4917,-2.4437,-2.3259,-2.2632,-2.2176,-2.1387,-2.0662,-1.986,-1.8794,-1.824,-1.7482,-1.6084,-1.5303,-1.463,-1.4081,-1.3566,-1.3244,-1.3147,-1.2986,-1.2717,-1.2259,-1.2567,-1.2554,-1.1833,-1.1851,-1.2541,-1.397,-1.7079,-1.9819,-2.1953,-2.3849,-2.4748,-2.4433,-2.4364,-2.339,-2.1528,-2.1557,-2.0571,-1.8576,-1.8198,-1.742,-1.6324,-1.5768,-1.5322,-1.5051,-1.4605,-1.4373,-1.4373,-1.4373,-1.4373,-1.4373,-1.401,-1.3668,-1.3276,-1.3017,-1.2372,-1.1687,-2.386,-2.6242,-2.8524,-2.9443,-2.9677,-2.9708,-2.9517,-2.9671,-3.0372,-3.1846,-3.1233,-2.9781,-2.7483,-2.767,-2.762,-2.6592,-2.6486,-2.6294,-2.5742,-2.5907,-2.571,-2.5078,-2.501,-2.4756,-2.4128,-2.466,-2.469,-2.4166,-2.5115,-2.5464,-2.52,-2.5644,-2.6386,-2.7195,-2.7308,-2.8774,-3.1243,-3.2585,-3.3014,-3.2778,-3.239,-3.1901,0.0,-3.1022,-3.0738,-3.0477,-3.007,-3.0112,-3.0368,-3.0228,-2.9252,-2.8109,-2.8109,-2.7344,-2.6452,-2.607,-2.5988,-2.5742,-2.4578,-2.4412,-2.4294,-2.3356,-2.2811,-2.2357,-2.1682,-2.1119,-2.0389,-1.9439,-1.8579,-1.7624,-1.6528,-1.5607,-1.4852,-1.4209,-1.4049,-1.3882,-1.3632,-1.3461,-1.3147,-1.2617,-1.2582,-1.2677,-1.2845,-1.2928,-1.3795,-1.5782,-1.8056,-2.0373,-2.2715,-2.3725,-2.4075,-2.3746,-2.3721,-2.2936,-2.1405,-2.1405,-2.0589,-1.8886,-1.8341,-1.756,-1.6495,-1.5832,-1.5277,-1.4858,-1.4558,-1.4373,-1.4373,-1.4373,-1.4373,-1.4384,-1.3962,-1.3525,-1.3045,-1.2725,-1.2224,-1.1728,-2.3857,-2.6017,-2.8088,-2.8996,-2.9174,-2.8935,-2.8619,-2.8176,-2.8625,-3.052,-2.9848,-2.8572,-2.7052,-2.673,-2.643,-2.61,-2.5625,-2.544,-2.544,-2.5158,-2.4638,-2.3753,-2.3805,-2.3388,-2.2618,-2.332,-2.3744,-2.3754,-2.469,-2.52,-2.5115,-2.5633,-2.6408,-2.7301,-2.8247,-2.9739,-3.1476,-3.2349,-3.2489,-3.1996,-3.2015,-3.1723,-3.1158,-3.0139,-2.9884,-2.9859,-2.8187,-2.8691,-3.0101,-2.9526,-2.8687,-2.7865,-2.779,-2.7067,-2.6151,-2.5451,-2.5216,-2.4897,-2.3435,-2.3478,-2.3835,-2.3099,-2.2853,-2.2677,-2.2077,-2.1544,-2.0933,-2.0133,-1.8699,-1.7497,-1.7296,-1.6169,-1.5168,-1.4861,-1.4824,-1.4767,-1.4322,-1.4222,-1.3942,-1.3252,-1.2897,0.0,-1.3882,-1.4273,-1.5253,-1.6972,-1.8977,-2.1038,-2.321,-2.3348,-2.3267,-2.301,-2.2891,-2.2314,-2.1157,-2.1202,-2.0475,-1.9048,-1.8506,-1.7785,-1.6817,-1.5934,-1.5291,-1.4913,-1.4534,-1.4373,-1.4373,-1.4384,-1.4291,-1.4186,-1.361,-1.3172,-1.2812,-1.2407,-1.2086,-1.176,-2.6041,-2.7195,-2.8079,-2.797,-2.6528,-2.5695,-2.6891,-2.7569,-2.785,-2.7526,-2.8443,-2.8126,-2.565,-2.5448,-2.5109,-2.3926,-2.3728,-2.3728,-2.3728,-2.3412,-2.306,-2.2577,-2.2528,-2.2481,-2.218,-2.3057,-2.3367,-2.3222,-2.4509,-2.502,-2.4669,-2.5464,-2.6577,-2.7785,-2.9032,-3.0312,-3.1622,-3.1434,-3.122,-3.0966,-3.0162,-2.9669,-2.9397,-2.8888,-2.8463,-2.8074,-2.7472,-2.8017,-2.8893,-2.7464,-2.6828,-2.6526,-2.616,-2.5588,-2.5004,-2.485,-2.4838,-2.453,-2.3473,-2.3041,-2.276,-2.2331,-2.1958,-2.1453,-2.0937,-2.0205,-1.9185,-1.7573,-1.6937,-1.6519,-1.5732,-1.5146,-1.4689,-1.4633,-1.4383,-1.4219,-1.4159,-1.3902,-1.3693,-1.3505,-1.3431,-1.3687,-1.4269,-1.4484,-1.5414,-1.7349,-1.8851,-2.0053,-2.0815,-2.176,-2.2003,-2.1342,-2.2146,-2.2193,-2.1356,-2.1688,-2.1184,-1.9873,-1.9296,-1.8394,-1.7171,-1.6089,-1.5395,-1.5048,-1.4595,-1.4373,-1.4373,-1.415,-1.3752,-1.316,-1.2511,-1.2432,-1.2595,-1.2313,-1.214,-1.1927,-2.5585,-2.6279,-2.6769,-2.6389,-2.4973,-2.4018,-2.4449,-2.5102,-2.5868,-2.6577,-2.6809,-2.635,-2.4698,-2.415,-2.3656,-2.332,-2.3329,-2.3329,-2.3329,-2.2563,-2.1985,-2.1605,-2.1777,-2.1753,-2.1535,-2.2668,-2.3299,-2.3484,-2.4423,-2.485,-2.485,-2.5549,-2.661,-2.781,-2.9022,-2.9874,-3.0394,-3.0139,-2.9706,-2.9301,-2.895,-2.8802,-2.8603,-2.7573,-2.7246,-2.7198,-2.583,-2.6046,-2.6941,-2.6523,-2.6182,-2.5922,-2.5675,-2.5215,-2.4647,-2.4371,-2.4114,-2.3718,-2.2706,-2.1991,-2.1328,-2.096,-2.0245,-1.9596,-1.9665,-1.9078,-1.8302,-1.7676,-1.7024,-1.6346,-1.5386,-1.4887,-1.4569,-1.4569,-1.4427,-1.4387,-1.4387,-1.4236,-1.4061,-1.3878,-1.3854,-1.4058,-1.4664,-1.4761,-1.5523,-1.7307,-1.8364,-1.9188,-1.972,-2.0746,-2.1267,-2.1105,-2.1555,-2.193,-2.2309,-2.2097,-2.1574,-2.0822,-1.9838,-1.8758,-1.7535,-1.6486,-1.5825,-1.5415,-1.5077,-1.492,-1.4849,-1.4164,-1.3651,-1.3365,-1.2577,-1.2434,-1.2583,-1.2269,-1.2117,-1.2044,-2.4288,-2.4562,-2.4774,-2.4466,-2.368,-2.2964,-2.2521,-2.2911,-2.3862,-2.5761,-2.5488,-2.4803,-2.4017,-2.3134,-2.2733,-2.282,-2.2828,-2.2828,-2.2828,-2.1801,-2.1226,-2.1117,-2.1147,-2.1216,-2.1266,-2.2334,-2.3135,-2.3667,-2.4251,-2.4669,-2.502,-2.5633,-2.6539,-2.7649,-2.8688,-2.9101,-2.8998,-2.8858,-2.8415,-2.7798,-2.8024,-2.7959,-2.774,-2.6451,-2.6211,-2.632,-2.4426,-2.4128,-2.4878,-2.55,-2.5454,-2.5199,-2.5082,-2.4696,-2.4192,-2.3616,-2.3167,-2.2666,-2.1682,-2.0832,-2.0117,-1.9615,-1.8714,-1.8091,-1.8579,-1.8203,-1.7825,-1.8035,-1.7098,-1.5988,-1.5192,-1.4832,-1.4569,-1.4569,-1.4569,-1.4569,-1.4569,-1.4569,-1.4506,-1.4156,-1.4109,-1.4259,-1.4588,-1.4849,-1.5526,-1.6782,-1.7493,-1.8239,-1.9057,-2.0014,-2.0723,-2.1196,-2.144,-2.2047,-2.3152,-2.2457,-2.1877,-2.1419,-2.0185,-1.9085,-1.7944,-1.6865,-1.6247,-1.5875,-1.5549,-1.5289,-1.4987,-1.3999,-1.3537,-1.3366,-1.2627,-1.2429,-1.2492,-1.2212,-1.2157,-1.2224,-2.2912,-2.2553,-2.2097,-2.2364,-2.2443,-2.2515,-2.2533,-2.2533,-2.2963,-2.4086,-2.4748,-2.4757,-2.3607,-2.3358,-2.2619,-2.1224,-2.1121,-2.1121,-2.1121,-2.0488,-2.0386,-2.0933,-2.0424,-2.0654,-2.1971,-2.2148,-2.2501,-2.3135,-2.4069,-2.4498,-2.4584,-2.5464,-2.6313,-2.7056,-2.8051,-2.8291,-2.7995,-2.8279,-2.7867,-2.701,-2.7033,-2.6715,-2.608,-2.5513,-2.5073,-2.4634,-2.3929,-2.3243,-2.2757,-2.3207,-2.3545,-2.3798,-2.3348,-2.3183,-2.2988,-2.2196,-2.1972,-2.1675,-2.0331,-1.9882,-1.962,-1.8937,-1.8368,-1.7979,-1.8096,-1.8056,-1.7669,-1.672,-1.5572,-1.48,-1.4697,-1.4665,-1.4569,-1.4569,-1.4569,-1.4569,-1.4569,-1.4569,-1.4506,-1.4156,-1.4109,-1.387,-1.3316,-1.4355,-1.5097,-1.5396,-1.6215,-1.7164,-1.8405,-1.9445,-2.0213,-2.0831,-2.2268,-2.3024,-2.3089,-2.2855,-2.2161,-2.112,-2.0245,-1.9317,-1.8487,-1.7092,-1.6352,-1.6074,-1.5584,-1.4851,-1.3888,-1.3465,-1.2878,-1.2206,-1.1783,-1.1768,-1.2081,-1.2022,-1.2238,-1.2525,-2.1321,-2.1715,-2.1832,-2.1474,-2.1672,-2.1665,-2.1097,-2.131,-2.1681,-2.2128,-2.2859,-2.3213,-2.288,-2.2447,-2.2025,-2.146,-2.1106,-2.1172,-2.1539,-2.0313,-2.0132,-2.1251,-2.0824,-2.1069,-2.2059,-2.2501,-2.2862,-2.3135,-2.4079,-2.4498,-2.4498,-2.5464,-2.6063,-2.6313,-2.7103,-2.7185,-2.6693,-2.6846,-2.6704,-2.6313,-2.6313,-2.5979,-2.5378,-2.4686,-2.4272,-2.4031,-2.2921,-2.2442,-2.2315,-2.2273,-2.253,-2.2886,-2.2682,-2.2628,-2.2563,-2.2146,-2.1543,-2.0791,-1.9986,-1.9349,-1.8879,-1.8417,-1.7872,-1.752,-1.752,-1.6996,-1.6386,-1.5921,-1.5204,-1.4569,-1.4569,-1.4569,-1.4569,-1.4569,-1.4569,-1.4569,-1.4569,-1.4569,-1.4506,-1.4156,-1.4109,-1.4054,-1.3835,-1.4572,-1.528,-1.5938,-1.6779,-1.7551,-1.8369,-1.9233,-2.0178,-2.1215,-2.1753,-2.2527,-2.3624,-2.2745,-2.2059,-2.1621,-2.0558,-1.9517,-1.8589,-1.7754,-1.6832,-1.5808,-1.5411,-1.478,-1.385,-1.3217,-1.2917,-1.2739,-1.2059,-1.2027,-1.2369,-1.2583,-1.2623,-1.2653,-1.9924,-2.0605,-2.0973,-2.0461,-2.0639,-2.0685,-2.0005,-2.0243,-2.0465,-2.0411,-2.1003,-2.1492,-2.181,-2.1618,-2.1556,-2.1533,-2.1159,-2.13,-2.1942,-2.0771,-2.0568,-2.1758,-2.1473,-2.1704,-2.2413,-2.2872,-2.3135,-2.3135,-2.3907,-2.4327,-2.4498,-2.5285,-2.5633,-2.5549,-2.5957,-2.5957,-2.5464,-2.5464,-2.5464,-2.5454,-2.5398,-2.5082,-2.4724,-2.3773,-2.3499,-2.3408,-2.2195,-2.1838,-2.188,-2.1828,-2.1883,-2.2101,-2.2176,-2.2273,-2.2274,-2.1829,-2.1135,-2.0277,-1.9442,-1.8753,-1.8279,-1.7862,-1.7442,-1.7079,-1.695,-1.6272,-1.5513,-1.5284,-1.4927,-1.4569,-1.4569,-1.4569,-1.4569,-1.4569,-1.4569,-1.4569,-1.4569,-1.4554,-1.4395,-1.414,-1.4247,-1.4383,-1.4346,-1.5154,-1.594,-1.6618,-1.7475,-1.8063,-1.8434,-1.9365,-2.0466,-2.1599,-2.1707,-2.2438,-2.3986,-2.2825,-2.2104,-2.1898,-2.0761,-1.972,-1.8795,-1.7921,-1.6767,-1.5439,-1.505,-1.4469,-1.3743,-1.3186,-1.299,-1.3009,-1.2394,-1.2337,-1.2653,-1.2846,-1.2774,-1.2661,-1.8791,-1.9006,-1.9006,-1.8891,-1.9413,-1.9729,-1.9323,-1.9279,-1.9272,-1.9272,-1.965,-1.9918,-2.02,-2.1065,-2.1425,-2.1063,-2.1029,-2.13,-2.1942,-2.1693,-2.1859,-2.2583,-2.2283,-2.2413,-2.3047,-2.3135,-2.3135,-2.3135,-2.358,-2.409,-2.4498,-2.502,-2.4935,-2.4498,-2.4498,-2.4488,-2.4498,-2.4498,-2.4498,-2.4457,-2.4106,-2.393,-2.3826,-2.2891,-2.2538,-2.2486,-2.1963,-2.1578,-2.1282,-2.1655,-2.1502,-2.1282,-2.1655,-2.2012,-2.1973,-2.0855,-2.0514,-2.0155,-1.8478,-1.8008,-1.7872,-1.7304,-1.707,-1.6835,-1.6367,-1.6008,-1.5547,-1.4792,-1.4641,-1.4569,-1.4569,-1.4569,-1.4569,-1.4569,-1.4569,-1.4569,-1.4569,-1.4339,-1.4117,-1.4109,-1.4599,-1.4858,-1.4469,-1.6057,-1.7194,-1.7166,-1.8022,-1.8482,-1.8472,-1.9874,-2.1081,-2.1874,-2.2649,-2.3356,-2.392,-2.315,-2.238,-2.1563,-2.0619,-1.9896,-1.9302,-1.7287,-1.592,-1.5167,-1.4359,-1.3761,-1.3329,-1.3321,-1.3033,-1.2621,-1.2621,-1.2621,-1.2621,-1.2629,-1.2629,-1.2621,-1.848,-1.851,-1.8367,-1.8381,-1.8772,-1.8801,-1.8178,-1.8617,-1.8894,-1.8972,-1.9343,-1.9529,-1.9159,-1.9902,-2.0471,-2.0534,-2.1067,-2.1437,-2.1369,-2.0781,-2.0984,-2.2255,-2.2124,-2.2413,-2.3057,-2.3135,-2.3135,-2.3135,-2.358,-2.382,-2.3694,-2.3424,-2.324,-2.3066,-2.3066,-2.3337,-2.379,-2.379,-2.3876,-2.4116,-2.3971,-2.3557,-2.288,-2.229,-2.1928,-2.1581,-2.0635,-2.0138,-1.9885,-1.9756,-1.9608,-1.9529,-1.9687,-2.0275,-2.0876,-2.0139,-1.9367,-1.8447,-1.7496,-1.707,-1.6802,-1.6664,-1.6245,-1.5903,-1.5762,-1.5355,-1.4944,-1.4641,-1.4569,-1.4569,-1.4569,-1.4569,-1.4569,-1.4569,-1.4569,-1.4569,-1.4569,-1.4339,-1.3953,-1.3504,-1.4079,-1.4469,-1.4217,-1.5785,-1.6871,-1.702,-1.8517,-1.9304,-1.9022,-1.9375,-2.0191,-2.1384,-2.1603,-2.2253,-2.3244,-2.2398,-2.1838,-2.1585,-2.0596,-1.9511,-1.8383,-1.7232,-1.6086,-1.4899,-1.4409,-1.3827,-1.3162,-1.3162,-1.2962,-1.2621,-1.2621,-1.2621,-1.2653,-1.2838,-1.2774,-1.2661,-1.7978,-1.8306,-1.8333,-1.8331,-1.8603,-1.8611,-1.7975,-1.8094,-1.8373,-1.8583,-1.8724,-1.874,-1.8738,-1.9151,-1.9628,-2.007,-2.0676,-2.1057,-2.1006,-2.0799,-2.115,-2.2059,-2.2325,-2.2687,-2.3047,-2.3135,-2.296,-2.2687,-2.295,-2.2853,-2.2473,-2.2287,-2.2022,-2.1836,-2.1766,-2.1876,-2.2322,-2.215,-2.2186,-2.2365,-2.2207,-2.1807,-2.1279,-2.0864,-2.0569,-2.033,-1.9552,-1.9195,-1.9018,-1.8807,-1.8736,-1.8736,-1.8736,-1.8976,-1.9312,-1.9036,-1.8118,-1.7126,-1.6596,-1.6323,-1.6062,-1.6035,-1.5771,-1.5434,-1.5213,-1.4856,-1.4569,-1.4569,-1.4569,-1.4569,-1.4569,-1.4569,-1.4689,-1.4824,-1.4584,-1.4464,-1.4598,-1.4064,-1.3662,-1.35,-1.4375,-1.5009,-1.519,-1.649,-1.7316,-1.7302,-1.8283,-1.8672,-1.812,-1.9073,-2.001,-2.0845,-2.0889,-2.1381,-2.2531,-2.1581,-2.1169,-2.1169,-2.018,-1.9078,-1.7795,-1.7031,-1.5928,-1.4567,-1.4181,-1.3664,-1.3092,-1.3092,-1.2885,-1.2621,-1.2621,-1.2621,-1.2653,-1.2814,-1.2838,-1.2774,-1.7424,-1.8342,-1.8772,-1.8366,-1.8667,-1.8765,-1.8366,-1.7898,-1.7786,-1.829,-1.7846,-1.7924,-1.8784,-1.8831,-1.9153,-1.9737,-1.9803,-2.0076,-2.0817,-2.1526,-2.1971,-2.2059,-2.2599,-2.296,-2.3047,-2.2931,-2.2648,-2.2013,-2.1676,-2.1329,-2.0863,-2.1302,-2.1194,-2.072,-2.0439,-2.0367,-2.0341,-1.996,-1.9867,-1.9813,-1.9457,-1.9297,-1.9235,-1.887,-1.8736,-1.8656,-1.8665,-1.8656,-1.8656,-1.8576,-1.8576,-1.8576,-1.8541,-1.8038,-1.7446,-1.7596,-1.698,-1.6153,-1.5893,-1.5721,-1.5677,-1.548,-1.5434,-1.5284,-1.4713,-1.4569,-1.4569,-1.4569,-1.4569,-1.4569,-1.4569,-1.4593,-1.4792,-1.5133,-1.4603,-1.4275,-1.4597,-1.37,-1.326,-1.3988,-1.5171,-1.6175,-1.6928,-1.7906,-1.836,-1.781,-1.7437,-1.6936,-1.6316,-1.8816,-2.0323,-2.0247,-2.0396,-2.0852,-2.1669,-2.0793,-2.0318,-2.0175,-1.94,-1.8431,-1.7475,-1.6675,-1.5553,-1.433,-1.3856,-1.3473,-1.3163,-1.3163,-1.2941,-1.2661,-1.2661,-1.2645,-1.2621,-1.2621,-1.2774,-1.3004,-1.7318,-1.7748,-1.788,-1.7806,-1.7853,-1.788,-1.7806,-1.7687,-1.7607,-1.7488,-1.8454,-1.8914,-1.8193,-1.8827,-1.9209,-1.9036,-1.9096,-1.9096,-1.9279,-1.9985,-2.0709,-2.1257,-2.1436,-2.1793,-2.2325,-2.1489,-2.1071,-2.0896,-2.0471,-2.0112,-1.9766,-1.9312,-1.8896,-1.8537,-1.8447,-1.8762,-1.9281,-1.9187,-1.9227,-1.9439,-1.935,-1.9137,-1.8861,-1.8772,-1.8736,-1.8656,-1.8095,-1.7934,-1.7853,-1.7375,-1.7131,-1.7172,-1.6885,-1.6681,-1.6641,-1.7348,-1.6685,-1.5665,-1.5584,-1.5251,-1.4903,-1.4848,-1.4784,-1.4784,-1.4641,-1.4569,-1.4569,-1.4569,-1.4569,-1.4569,-1.4569,-1.4863,-1.5086,-1.5173,-1.4805,-1.4469,-1.4553,-1.37,-1.3242,-1.3855,-1.5076,-1.6132,-1.6818,-1.7515,-1.7893,-1.7613,-1.7216,-1.6837,-1.6444,-1.7617,-1.8479,-1.8831,-1.9482,-2.0092,-2.0587,-2.0025,-1.9191,-1.8114,-1.791,-1.7279,-1.6345,-1.6147,-1.5487,-1.4528,-1.4387,-1.4188,-1.387,-1.387,-1.3513,-1.2965,-1.2965,-1.2798,-1.2621,-1.2621,-1.2677,-1.2741,-1.6755,-1.7364,-1.7582,-1.7582,-1.7582,-1.7582,-1.7582,-1.7582,-1.7634,-1.7784,-1.8477,-1.888,-1.8372,-1.883,-1.9042,-1.8843,-1.8827,-1.8827,-1.8827,-1.9446,-2.0076,-2.0447,-2.0808,-2.1177,-2.1615,-2.0871,-2.0236,-1.98,-1.9209,-1.8855,-1.8674,-1.8234,-1.7954,-1.7763,-1.7612,-1.7806,-1.8132,-1.7959,-1.8021,-1.815,-1.815,-1.795,-1.7781,-1.7781,-1.7781,-1.7781,-1.7375,-1.7212,-1.7221,-1.6812,-1.6627,-1.646,-1.6269,-1.5991,-1.5851,-1.633,-1.5913,-1.5291,-1.5119,-1.4856,-1.4569,-1.4569,-1.4569,-1.4569,-1.4569,-1.4569,-1.4569,-1.4569,-1.4569,-1.4569,-1.4569,-1.4943,-1.5107,-1.495,-1.4698,-1.4493,-1.4561,-1.397,-1.392,-1.4792,-1.6067,-1.6991,-1.7388,-1.7806,-1.7917,-1.7412,-1.6859,-1.6416,-1.6185,-1.6514,-1.7081,-1.7961,-1.8471,-1.8779,-1.9014,-1.8587,-1.8076,-1.7489,-1.7263,-1.683,-1.6184,-1.5991,-1.5417,-1.4569,-1.4569,-1.4434,-1.4109,-1.4109,-1.3703,-1.3108,-1.3259,-1.3108,-1.2822,-1.2973,-1.3132,-1.3251,-1.6225,-1.6983,-1.7528,-1.7575,-1.7582,-1.7569,-1.7522,-1.7555,-1.7759,-1.8088,-1.8275,-1.8427,-1.8822,-1.8886,-1.879,-1.8743,-1.8735,-1.8735,-1.8827,-1.9363,-1.9803,-1.9894,-2.0357,-2.0727,-2.0808,-2.043,-1.967,-1.8648,-1.8094,-1.7747,-1.7691,-1.7691,-1.7668,-1.7604,-1.7326,-1.7199,-1.7175,-1.6865,-1.673,-1.673,-1.673,-1.673,-1.673,-1.673,-1.673,-1.673,-1.673,-1.673,-1.6722,-1.6675,-1.6452,-1.619,-1.6087,-1.565,-1.5173,-1.5118,-1.5102,-1.5038,-1.4728,-1.4569,-1.4569,-1.4569,-1.4569,-1.4569,-1.4569,-1.4569,-1.4569,-1.4569,-1.4569,-1.4569,-1.4569,-1.4943,-1.5122,-1.4787,-1.4659,-1.4543,-1.4658,-1.453,-1.4797,-1.594,-1.7102,-1.7836,-1.8006,-1.8079,-1.7839,-1.7098,-1.6254,-1.5741,-1.5663,-1.5554,-1.607,-1.7098,-1.7393,-1.7402,-1.734,-1.6949,-1.6839,-1.713,-1.6763,-1.6395,-1.6167,-1.5822,-1.5237,-1.4569,-1.4569,-1.4466,-1.4188,-1.4188,-1.3791,-1.3195,-1.3529,-1.3433,-1.3132,-1.3465,-1.3775,-1.3921,-1.6639,-1.7215,-1.7295,-1.7542,-1.7582,-1.7502,-1.7255,-1.7422,-1.7402,-1.7009,-1.8117,-1.8725,-1.8052,-1.8773,-1.8973,-1.8295,-1.8179,-1.8365,-1.8735,-1.892,-1.9271,-1.9886,-1.9455,-1.9455,-2.0076,-1.9093,-1.8249,-1.7528,-1.7722,-1.7628,-1.7358,-1.7358,-1.7191,-1.6889,-1.6841,-1.6818,-1.6818,-1.6754,-1.673,-1.673,-1.673,-1.673,-1.673,-1.673,-1.673,-1.673,-1.673,-1.673,-1.669,-1.6389,-1.6246,-1.6103,-1.5523,-1.5268,-1.5125,-1.4816,-1.4728,-1.4712,-1.4657,-1.4569,-1.4569,-1.4569,-1.4569,-1.4569,-1.4569,-1.4569,-1.4569,-1.4569,-1.4569,-1.4569,-1.4569,-1.4943,-1.5276,-1.5478,-1.5265,-1.5093,-1.5382,-1.5343,-1.5441,-1.598,-1.6649,-1.7269,-1.7565,-1.6924,-1.6439,-1.6277,-1.5381,-1.4952,-1.5245,-1.4975,-1.5016,-1.5543,-1.638,-1.6681,-1.6348,-1.579,-1.5365,-1.5078,-1.5007,-1.4935,-1.4856,-1.4792,-1.4721,-1.4569,-1.4569,-1.4537,-1.4482,-1.4482,-1.414,-1.3545,-1.3894,-1.3648,-1.3132,-1.3465,-1.3616,-1.3589,-1.615,-1.6839,-1.7241,-1.7528,-1.7455,-1.7301,-1.7174,-1.7128,-1.7014,-1.674,-1.7392,-1.7865,-1.7362,-1.7948,-1.8067,-1.7721,-1.7707,-1.78,-1.7986,-1.8265,-1.8542,-1.8896,-1.8819,-1.8827,-1.8782,-1.8266,-1.7676,-1.6984,-1.7135,-1.7135,-1.6984,-1.6984,-1.6897,-1.673,-1.673,-1.673,-1.6656,-1.6492,-1.6409,-1.6409,-1.6409,-1.6409,-1.6409,-1.6656,-1.673,-1.6706,-1.6516,-1.6444,-1.6397,-1.6039,-1.5801,-1.5602,-1.5284,-1.5046,-1.4855,-1.4617,-1.4569,-1.4569,-1.4569,-1.4498,-1.4403,-1.4522,-1.4498,-1.4411,-1.4522,-1.4569,-1.4569,-1.4569,-1.4569,-1.4569,-1.4569,-1.4943,-1.5091,-1.4895,-1.5142,-1.5339,-1.5309,-1.5701,-1.6186,-1.6583,-1.7004,-1.7252,-1.7052,-1.6485,-1.6045,-1.5871,-1.5274,-1.5086,-1.5427,-1.5118,-1.5014,-1.5181,-1.5446,-1.5487,-1.5315,-1.5033,-1.4808,-1.4569,-1.4569,-1.4569,-1.4569,-1.4569,-1.4569,-1.4569,-1.4569,-1.4569,-1.4569,-1.4569,-1.4339,-1.3902,-1.426,-1.4085,-1.368,-1.3815,-1.3987,-1.3964,-1.5757,-1.6527,-1.7041,-1.7328,-1.7194,-1.7021,-1.6954,-1.6814,-1.666,-1.652,-1.6751,-1.7015,-1.6938,-1.7101,-1.7239,-1.7145,-1.7145,-1.7044,-1.6958,-1.7426,-1.7807,-1.7893,-1.8288,-1.8234,-1.7604,-1.7691,-1.735,-1.673,-1.673,-1.673,-1.673,-1.673,-1.673,-1.673,-1.673,-1.673,-1.6648,-1.6245,-1.6087,-1.6079,-1.6003,-1.5973,-1.6055,-1.6456,-1.6555,-1.6468,-1.6269,-1.615,-1.6031,-1.5682,-1.5396,-1.5173,-1.5086,-1.4863,-1.4569,-1.4569,-1.4569,-1.4625,-1.4625,-1.4409,-1.4258,-1.4379,-1.4323,-1.429,-1.4561,-1.4569,-1.4569,-1.4569,-1.4569,-1.4569,-1.4569,-1.4943,-1.5043,-1.4545,-1.5173,-1.5643,-1.5381,-1.6039,-1.664,-1.6863,-1.7054,-1.6989,-1.6405,-1.5996,-1.5667,-1.5487,-1.5205,-1.5165,-1.5427,-1.5197,-1.5062,-1.5062,-1.4784,-1.4569,-1.4569,-1.4569,-1.4569,-1.4569,-1.4569,-1.4569,-1.4569,-1.4569,-1.4569,-1.4569,-1.4569,-1.4569,-1.4569,-1.4569,-1.4434,-1.4148,-1.4506,-1.4356,-1.3948,-1.3927,-1.3965,-1.388,-1.5993,-1.6339,-1.6426,-1.672,-1.6754,-1.6647,-1.638,-1.6547,-1.6506,-1.5965,-1.6491,-1.6931,-1.6651,-1.7066,-1.7145,-1.6676,-1.6676,-1.6393,-1.592,-1.6393,-1.6864,-1.7333,-1.7598,-1.7527,-1.7064,-1.7212,-1.7127,-1.673,-1.673,-1.673,-1.673,-1.673,-1.673,-1.673,-1.673,-1.673,-1.6648,-1.6245,-1.6087,-1.6057,-1.5744,-1.5622,-1.5702,-1.6086,-1.6039,-1.5793,-1.6095,-1.5991,-1.5666,-1.5332,-1.5205,-1.5125,-1.4784,-1.4593,-1.4569,-1.4569,-1.4569,-1.4577,-1.4579,-1.4559,-1.4449,-1.4063,-1.4295,-1.4547,-1.4569,-1.4569,-1.4569,-1.4569,-1.4569,-1.4569,-1.4569,-1.4943,-1.5276,-1.5554,-1.5866,-1.6119,-1.6087,-1.6735,-1.6776,-1.5907,-1.608,-1.5938,-1.537,-1.4968,-1.4689,-1.4712,-1.4697,-1.4617,-1.4648,-1.4697,-1.4609,-1.4609,-1.4657,-1.4569,-1.4569,-1.4569,-1.4569,-1.4569,-1.4569,-1.4569,-1.4569,-1.4569,-1.4569,-1.4569,-1.4569,-1.4569,-1.4569,-1.4569,-1.4434,-1.4148,-1.4506,-1.4143,-1.3537,-1.3345,-1.3018,-1.2579,-1.6025,-1.6377,-1.6359,-1.6534,-1.6447,-1.64,-1.6293,-1.6213,-1.6079,-1.5858,-1.6116,-1.6239,-1.6123,-1.6298,-1.6298,-1.6109,-1.6116,-1.6021,-1.5825,-1.6021,-1.6404,-1.704,-1.7098,-1.6877,-1.6327,-1.638,-1.6239,-1.5899,-1.5899,-1.5899,-1.5891,-1.5687,-1.5873,-1.6312,-1.5219,-1.5385,-1.6308,-1.4809,-1.4495,-1.5048,-1.4922,-1.4877,-1.4956,-1.5646,-1.5793,-1.5666,-1.5602,-1.5491,-1.5316,-1.4967,-1.4847,-1.4824,-1.4689,-1.4569,-1.4569,-1.4569,-1.4569,-1.4569,-1.4624,-1.4449,-1.4202,-1.3955,-1.4109,-1.4367,-1.4561,-1.4569,-1.4569,-1.4569,-1.4569,-1.4569,-1.4569,-1.4752,-1.4887,-1.5014,-1.534,-1.557,-1.557,-1.5976,-1.6053,-1.5487,-1.5476,-1.5381,-1.4863,-1.472,-1.4489,-1.4281,-1.4497,-1.4497,-1.4274,-1.4497,-1.4569,-1.4569,-1.4569,-1.4569,-1.4569,-1.4569,-1.4569,-1.4569,-1.4569,-1.4569,-1.4569,-1.4569,-1.4569,-1.4569,-1.4569,-1.4418,-1.4186,-1.4274,-1.406,-1.3746,-1.3875,-1.378,-1.3395,-1.2691,-1.2057,-1.1298,-1.5803,-1.6132,-1.6192,-1.6176,-1.6155,-1.6132,-1.6132,-1.5959,-1.5832,-1.5832,-1.5832,-1.5832,-1.5832,-1.5832,-1.5832,-1.5832,-1.5832,-1.5832,-1.5832,-1.5832,-1.598,-1.6415,-1.6294,-1.5995,-1.5727,-1.5526,-1.5283,-1.5061,-1.5311,-1.5311,-1.5054,-1.482,-1.5124,-1.5651,-1.4027,-1.4223,-1.5543,-1.3894,-1.3653,-1.4365,-1.4418,-1.4451,-1.4528,-1.5294,-1.5451,-1.5332,-1.5229,-1.511,-1.4975,-1.4728,-1.4569,-1.4569,-1.4569,-1.4569,-1.4569,-1.4569,-1.4569,-1.4569,-1.4624,-1.4445,-1.4252,-1.414,-1.4194,-1.4297,-1.4561,-1.4569,-1.4569,-1.4569,-1.4569,-1.4569,-1.4569,-1.4736,-1.4816,-1.4816,-1.511,-1.53,-1.5197,-1.538,-1.5396,-1.5054,-1.5014,-1.4919,-1.4665,-1.4569,-1.4497,-1.4274,-1.4346,-1.4281,-1.392,-1.4037,-1.4119,-1.4119,-1.4018,-1.3885,-1.3737,-1.4324,-1.4521,-1.4377,-1.4521,-1.4593,-1.4593,-1.4593,-1.4497,-1.425,-1.4529,-1.4225,-1.3665,-1.3513,-1.3302,-1.3185,-1.3032,-1.2893,-1.2673,-1.1774,-1.0944,-1.0271,-1.554,-1.5832,-1.5832,-1.5832,-1.5832,-1.5832,-1.5832,-1.5832,-1.5832,-1.5832,-1.5832,-1.5832,-1.5832,-1.5832,-1.5832,-1.5832,-1.5832,-1.5832,-1.5825,-1.5825,-1.5698,-1.5404,-1.4909,-1.479,-1.5203,-1.4633,-1.4398,-1.4398,-1.5061,-1.5061,-1.4384,-1.4159,-1.4427,-1.4904,-1.3366,-1.3317,-1.4435,-1.3782,-1.3867,-1.4421,-1.4464,-1.4471,-1.4553,-1.5024,-1.4959,-1.4617,-1.5046,-1.4951,-1.4569,-1.4569,-1.4569,-1.4569,-1.4569,-1.4569,-1.4569,-1.4569,-1.4569,-1.4577,-1.4633,-1.4622,-1.4569,-1.4616,-1.4612,-1.4624,-1.4569,-1.4569,-1.4569,-1.4569,-1.4569,-1.4569,-1.4569,-1.4935,-1.5181,-1.5181,-1.5451,-1.5554,-1.5229,-1.5181,-1.5046,-1.4609,-1.4569,-1.4569,-1.4569,-1.4569,-1.4569,-1.4569,-1.4274,-1.392,-1.3492,-1.3184,-1.3009,-1.3009,-1.277,-1.2323,-1.1819,-1.3618,-1.4351,-1.3915,-1.4351,-1.4568,-1.4568,-1.4568,-1.4217,-1.3548,-1.4302,-1.4011,-1.2997,-1.2211,-1.2151,-1.2492,-1.1896,-1.1465,-1.1037,-1.0421,-0.9981,-0.9544,-1.5428,-1.5823,-1.5803,-1.5838,-1.5832,-1.5832,-1.5832,-1.5832,-1.5832,-1.5832,-1.5832,-1.5832,-1.5832,-1.5832,-1.5832,-1.5832,-1.5832,-1.5547,-1.507,-1.507,-1.4571,-1.3646,-1.3901,-1.3723,-1.2997,-1.282,-1.2693,-1.2693,-1.2948,-1.2849,-1.2504,-1.2419,-1.2624,-1.3091,-1.1494,-1.1866,-1.3611,-1.1575,-1.191,-1.3543,-1.2995,-1.3077,-1.3705,-1.4228,-1.4367,-1.4289,-1.4615,-1.4728,-1.4569,-1.4569,-1.4418,-1.4274,-1.4274,-1.4425,-1.4569,-1.4569,-1.4569,-1.4625,-1.4601,-1.4569,-1.4569,-1.4616,-1.4628,-1.4601,-1.4625,-1.4569,-1.4569,-1.4569,-1.4569,-1.4569,-1.4569,-1.4728,-1.48,-1.48,-1.4887,-1.4911,-1.4816,-1.48,-1.4615,-1.4289,-1.4274,-1.4137,-1.3855,-1.3855,-1.3702,-1.3404,-1.3331,-1.3339,-1.3492,-1.3404,-1.3243,-1.3016,-1.2914,-1.2401,-1.1403,-1.2354,-1.2635,-1.2141,-1.2417,-1.2586,-1.2586,-1.3631,-1.3857,-1.3514,-1.3711,-1.2826,-1.1298,-1.1694,-1.1571,-1.1105,-1.0956,-1.0807,-1.0588,-0.9986,-0.969,-0.9544,-1.4545,-1.4936,-1.5019,-1.5267,-1.5356,-1.5445,-1.5737,-1.5832,-1.5832,-1.5832,-1.5832,-1.5832,-1.5832,-1.554,-1.5356,-1.5356,-1.5057,-1.4675,-1.4292,-1.4106,-1.3579,-1.2431,-1.2762,-1.2603,-1.202,-1.1757,-1.1585,-1.1585,-1.1843,-1.177,-1.1455,-1.1277,-1.156,-1.2035,-1.0412,-1.066,-1.227,-1.0734,-1.1006,-1.2401,-1.2117,-1.2273,-1.2757,-1.3316,-1.3535,-1.3608,-1.4201,-1.4425,-1.4418,-1.4569,-1.4497,-1.4274,-1.4274,-1.4425,-1.4569,-1.4418,-1.4497,-1.4569,-1.4593,-1.4585,-1.4522,-1.4238,-1.4411,-1.4569,-1.4569,-1.4569,-1.4569,-1.4569,-1.4569,-1.4569,-1.4569,-1.4569,-1.4689,-1.4832,-1.4736,-1.4689,-1.4832,-1.4584,-1.4346,-1.4129,-1.3992,-1.3783,-1.3492,-1.3492,-1.3346,-1.29,-1.29,-1.2973,-1.3046,-1.2933,-1.2634,-1.2226,-1.2102,-1.1457,-1.0309,-1.0704,-1.091,-1.0838,-1.1175,-1.1051,-1.0558,-1.2003,-1.2405,-1.2144,-1.2755,-1.2042,-1.0507,-1.0576,-1.0449,-1.0143,-0.9911,-0.976,-0.9771,-0.9489,-0.9316,-0.9175,-1.3227,-1.342,-1.3709,-1.4592,-1.4688,-1.4975,-1.5737,-1.5832,-1.5737,-1.573,-1.5737,-1.5635,-1.5635,-1.4968,-1.4592,-1.4592,-1.3902,-1.3511,-1.3414,-1.3193,-1.2664,-1.1686,-1.1452,-1.1481,-1.1849,-1.1241,-1.0901,-1.0901,-1.1499,-1.1488,-1.0864,-1.0683,-1.092,-1.1383,-0.9911,-0.9852,-1.0768,-1.0625,-1.0774,-1.1166,-1.16,-1.1702,-1.1713,-1.2285,-1.2492,-1.2572,-1.368,-1.3985,-1.4057,-1.4425,-1.4569,-1.4569,-1.4569,-1.4569,-1.4497,-1.4201,-1.4346,-1.4577,-1.448,-1.4457,-1.4266,-1.3628,-1.3939,-1.441,-1.4489,-1.4569,-1.4569,-1.4569,-1.4569,-1.4577,-1.4681,-1.4617,-1.4808,-1.5173,-1.4927,-1.4816,-1.5181,-1.4618,-1.4111,-1.4149,-1.3769,-1.3462,-1.3462,-1.3441,-1.3273,-1.29,-1.2826,-1.2673,-1.2298,-1.2051,-1.1611,-1.1006,-1.0624,-0.9991,-0.8931,-0.9093,-0.941,-0.9746,-1.0285,-0.9905,-0.8777,-0.9985,-1.0306,-0.99,-1.1496,-1.144,-1.0282,-0.912,-0.9059,-0.9468,-0.8932,-0.8703,-0.8727,-0.8921,-0.8869,-0.8727,-1.2462,-1.2764,-1.3255,-1.4496,-1.4688,-1.4975,-1.5737,-1.5832,-1.5547,-1.4975,-1.4975,-1.4682,-1.4094,-1.3902,-1.3806,-1.3806,-1.3607,-1.3227,-1.2657,-1.2427,-1.1817,-1.0857,-1.0648,-1.0524,-1.0472,-1.0294,-1.0207,-1.0207,-1.0381,-1.0211,-0.9885,-1.0086,-1.0142,-0.9971,-0.9499,-0.9705,-1.029,-0.9501,-0.9879,-1.0952,-1.0351,-1.0526,-1.1165,-1.1334,-1.1403,-1.1626,-1.2945,-1.3382,-1.3462,-1.4049,-1.4353,-1.4569,-1.4274,-1.4418,-1.4497,-1.4201,-1.4129,-1.4137,-1.379,-1.3411,-1.3171,-1.3397,-1.2983,-1.2736,-1.3803,-1.4338,-1.4569,-1.4569,-1.4569,-1.4728,-1.5014,-1.507,-1.5181,-1.5515,-1.5284,-1.5181,-1.5523,-1.4886,-1.4396,-1.4362,-1.3784,-1.3257,-1.2955,-1.2736,-1.2526,-1.2452,-1.2452,-1.2378,-1.2305,-1.1797,-1.137,-1.1013,-1.045,-0.9751,-0.8931,-0.9093,-0.9061,-0.8758,-0.897,-0.8988,-0.8742,-0.9523,-0.9513,-0.9025,-1.0338,-1.0181,-0.9044,-0.8836,-0.8775,-0.8856,-0.878,-0.8703,-0.8708,-0.8755,-0.8741,-0.8708,-1.178,-1.1883,-1.2473,-1.3913,-1.41,-1.4484,-1.5635,-1.5547,-1.5166,-1.4783,-1.4394,-1.4004,-1.3516,-1.3227,-1.2845,-1.2452,-1.2355,-1.2114,-1.1438,-1.1128,-1.0729,-1.0159,-0.9961,-0.9893,-1.0043,-1.0038,-0.9904,-0.9804,-0.9904,-0.9847,-0.9569,-0.9856,-0.9894,-0.9786,-0.9672,-0.9678,-0.9725,-0.9285,-0.9434,-0.9864,-0.9478,-0.9555,-0.993,-1.0262,-1.0588,-1.0962,-1.1842,-1.2652,-1.331,-1.3905,-1.4346,-1.4569,-1.4418,-1.4497,-1.4497,-1.3992,-1.3768,-1.3542,-1.2966,-1.2512,-1.2204,-1.2298,-1.2117,-1.2084,-1.307,-1.3448,-1.3528,-1.3302,-1.3455,-1.3784,-1.4126,-1.4419,-1.4736,-1.5225,-1.5034,-1.4935,-1.5263,-1.4624,-1.4176,-1.4116,-1.3606,-1.3199,-1.3044,-1.2511,-1.235,-1.2739,-1.1986,-1.1753,-1.2061,-1.1403,-1.0748,-1.0324,-1.0029,-0.9527,-0.8817,-0.8936,-0.8842,-0.8548,-0.8652,-0.8703,-0.8703,-0.9008,-0.8998,-0.8756,-0.9402,-0.9246,-0.868,-0.8694,-0.8703,-0.8703,-0.8703,-0.8703,-0.8713,-0.8817,-0.8855,-0.8841,-1.09,-1.09,-1.1385,-1.2931,-1.3221,-1.3703,-1.5153,-1.4873,-1.4496,-1.4304,-1.3715,-1.3227,-1.313,-1.2457,-1.178,-1.0998,-1.09,-1.0719,-1.0127,-0.9943,-0.9841,-0.9637,-0.9447,-0.9607,-0.9951,-1.0038,-0.9866,-0.97,-0.9866,-0.9866,-0.97,-0.9871,-1.0038,-1.0038,-0.9918,-0.9705,-0.9384,-0.9493,-0.9237,-0.877,-0.8911,-0.8859,-0.878,-0.9241,-0.9765,-1.0288,-1.0887,-1.2063,-1.3455,-1.3912,-1.4346,-1.4569,-1.4497,-1.4418,-1.4201,-1.3484,-1.3032,-1.2652,-1.1922,-1.1545,-1.1316,-1.118,-1.1248,-1.1533,-1.2124,-1.2345,-1.2271,-1.1822,-1.2124,-1.2533,-1.2891,-1.3425,-1.4029,-1.4669,-1.467,-1.4569,-1.4977,-1.4337,-1.3915,-1.3964,-1.3546,-1.3267,-1.3213,-1.2565,-1.246,-1.3054,-1.1708,-1.1093,-1.175,-1.0854,-1.0143,-0.962,-0.9468,-0.9241,-0.8703,-0.8703,-0.8703,-0.8703,-0.8703,-0.8703,-0.8703,-0.8703,-0.8703,-0.8703,-0.8703,-0.8703,-0.8703,-0.8703,-0.8703,-0.8703,-0.8703,-0.8722,-0.8784,-0.8996,-0.9053,-0.9001,-0.9826,-0.9826,-1.0212,-1.1663,-1.1853,-1.2339,-1.3607,-1.3709,-1.342,-1.2754,-1.2662,-1.2268,-1.1585,-1.0998,-1.0413,-0.9821,-0.9826,-0.9743,-0.9556,-0.9656,-0.9745,-0.9637,-0.9795,-0.9951,-1.0038,-1.0038,-1.0024,-0.9908,-1.0024,-1.0024,-0.9908,-1.0024,-1.0038,-1.0028,-0.9767,-0.9658,-0.9498,-0.9247,-0.9058,-0.8968,-0.8807,-0.8727,-0.8703,-0.878,-0.8856,-0.9155,-1.0582,-1.2358,-1.3985,-1.4057,-1.4346,-1.4569,-1.4274,-1.3833,-1.3237,-1.2445,-1.1781,-1.1254,-1.0812,-1.0288,-1.0137,-1.1111,-1.0588,-1.0067,-1.0663,-1.1316,-1.1822,-1.1749,-1.1749,-1.1983,-1.2511,-1.3086,-1.377,-1.4407,-1.4671,-1.4984,-1.5292,-1.465,-1.4225,-1.458,-1.3981,-1.3487,-1.3233,-1.2565,-1.2378,-1.2826,-1.1599,-1.1018,-1.1477,-1.0385,-0.9695,-0.962,-0.9084,-0.878,-0.8703,-0.8703,-0.8703,-0.8703,-0.8703,-0.8703,-0.8703,-0.8703,-0.8703,-0.8703,-0.8703,-0.8703,-0.8703,-0.8703,-0.8703,-0.8703,-0.8703,-0.8817,-0.9006,-0.9209,-0.9176,-0.902,-0.9628,-0.9628,-1.0015,-1.137,-1.156,-1.2052,-1.3318,-1.2926,-1.2344,-1.1965,-1.1287,-1.0703,-1.0314,-1.0117,-0.9826,-0.9628,-0.9535,-0.9397,-0.921,-0.9317,-0.9315,-0.9393,-0.9565,-0.9694,-0.9951,-1.0038,-1.0038,-1.0038,-1.0038,-0.9894,-0.9786,-0.9899,-1.0038,-1.0033,-0.9856,-0.9752,-0.9541,-0.9322,-0.9129,-0.9006,-0.8789,-0.8703,-0.8703,-0.8703,-0.8932,-0.9387,-1.0738,-1.1774,-1.2586,-1.3477,-1.3615,-1.3528,-1.3608,-1.3011,-1.2271,-1.17,-1.1105,-1.0501,-1.0143,-0.9539,-0.9236,-0.9755,-0.9458,-0.9194,-0.9545,-0.9951,-1.0171,-1.0171,-1.0512,-1.0954,-1.1392,-1.2032,-1.2738,-1.3484,-1.3703,-1.3998,-1.4559,-1.4379,-1.4178,-1.4314,-1.4052,-1.3841,-1.3714,-1.3029,-1.289,-1.3507,-1.1656,-1.0807,-1.1403,-0.9903,-0.9084,-0.9084,-0.8856,-0.8703,-0.8703,-0.8703,-0.8703,-0.8703,-0.8703,-0.8703,-0.8703,-0.8703,-0.8703,-0.8703,-0.8703,-0.8703,-0.8703,-0.8703,-0.8703,-0.8703,-0.8703,-0.876,-0.8855,-0.8944,-0.8921,-0.8768]},{"header":{"parameterUnit":"m.s-1","parameterCategory":1,"la1":30.6,"la2":28.766,"lo1":-90.7593,"lo2":-88.6598,"dy":0.0162,"dx":0.0183,"nx":116,"ny":114,"refTime":"2023-06-08T12:00:00:Z","depth":0,"parameterNumber":3,"parameterNumberName":"V-component_of_WINDS"},"data":[0.0,0.0,0.0,0.0,0.0,0.0,0.0,0.0,0.0,0.0,0.0,0.0,0.0,0.0,0.0,0.0,0.0,0.0,0.0,0.0,0.0,0.0,0.0,0.0,0.0,0.0,0.0,0.0,0.0,0.0,0.0,0.0,0.0,0.0,0.0,0.0,0.0,0.0,0.0,0.0,0.0,0.0,0.0,0.0,0.0,0.0,0.0,0.0,0.0,0.0,0.0,0.0,0.0,0.0,0.0,0.0,0.0,0.0,0.0,0.0,0.0,0.0,0.0,0.0,0.0,0.0,0.0,0.0,0.0,0.0,0.0,0.0,0.0,0.0,0.0,0.0,0.0,0.0,0.0,0.0,0.0,0.0,0.0,0.0,0.0,0.0,0.0,0.0,0.0,0.0,0.0,0.0,0.0,0.0,0.0,0.0,0.0,0.0,0.0,0.0,0.0,0.0,0.0,0.0,0.0,0.0,0.0,0.0,0.0,0.0,0.0,0.0,0.0,0.0,0.0,0.0,0.0,0.0,0.0,0.0,0.0,0.0,0.0,0.0,0.0,0.0,0.0,0.0,0.0,0.0,0.0,0.0,0.0,0.0,0.0,0.0,0.0,0.0,0.0,0.0,0.0,0.0,0.0,0.0,0.0,0.0,0.0,0.0,0.0,0.0,0.0,0.0,0.0,0.0,0.0,0.0,0.0,0.0,0.0,0.0,0.0,0.0,0.0,0.0,0.0,0.0,0.0,0.0,0.0,0.0,0.0,0.0,0.0,0.0,0.0,0.0,0.0,0.0,0.0,0.0,0.0,0.0,0.0,0.0,0.0,0.0,0.0,0.0,0.0,0.0,0.0,0.0,0.0,0.0,0.0,0.0,0.0,0.0,0.0,0.0,0.0,0.0,0.0,0.0,0.0,0.0,0.0,0.0,0.0,0.0,0.0,0.0,0.0,0.0,0.0,0.0,0.0,0.0,0.0,0.0,0.0,0.0,0.0,0.0,0.0,0.0,0.0,0.0,0.0,0.0,0.0,0.0,0.0,0.0,0.0,0.0,0.0,0.0,0.0,0.0,0.0,0.0,0.0,0.0,0.0,0.0,0.0,0.0,0.0,0.0,0.0,0.0,0.0,0.0,0.0,0.0,0.0,0.0,0.0,0.0,0.0,0.0,0.0,0.0,0.0,0.0,0.0,0.0,0.0,0.0,0.0,0.0,0.0,0.0,0.0,0.0,0.0,0.0,0.0,0.0,0.0,0.0,0.0,0.0,0.0,0.0,0.0,0.0,0.0,0.0,0.0,0.0,0.0,0.0,0.0,0.0,0.0,0.0,0.0,0.0,0.0,0.0,0.0,0.0,0.0,0.0,0.0,0.0,0.0,0.0,0.0,0.0,0.0,0.0,0.0,0.0,0.0,0.0,0.0,0.0,0.0,0.0,0.0,0.0,0.0,0.0,0.0,0.0,0.0,0.0,0.0,0.0,0.0,0.0,0.0,0.0,0.0,0.0,0.0,0.0,0.0,0.0,0.0,0.0,0.0,0.0,0.0,0.0,0.0,0.0,0.0,0.0,0.0,0.0,0.0,0.0,0.0,0.0,0.0,0.0,0.0,0.0,0.0,0.0,0.0,0.0,0.0,0.0,0.0,0.0,0.0,0.0,0.0,0.0,0.0,0.0,0.0,0.0,0.0,0.0,0.0,0.0,0.0,0.0,0.0,0.0,0.0,0.0,0.0,0.0,0.0,0.0,0.0,0.0,0.0,0.0,0.0,0.0,0.0,0.0,0.0,0.0,0.0,0.0,0.0,0.0,0.0,0.0,0.0,0.0,0.0,0.0,0.0,0.0,0.0,0.0,0.0,0.0,0.0,0.0,0.0,0.0,0.0,0.0,0.0,0.0,0.0,0.0,0.0,0.0,0.0,0.0,0.0,0.0,0.0,0.0,0.0,0.0,0.0,0.0,0.0,0.0,0.0,0.0,0.0,0.0,0.0,0.0,0.0,0.0,0.0,0.0,0.0,0.0,0.0,0.0,0.0,0.0,0.0,0.0,0.0,0.0,0.0,0.0,0.0,0.0,0.0,0.0,0.0,0.0,0.0,0.0,0.0,0.0,0.0,0.0,0.0,0.0,0.0,0.0,0.0,0.0,0.0,0.0,0.0,0.0,0.0,0.0,0.0,0.0,0.0,0.0,0.0,0.0,0.0,0.0,0.0,0.0,0.0,0.0,0.0,0.0,0.0,0.0,0.0,0.0,0.0,0.0,0.0,0.0,0.0,0.0,0.0,0.0,0.0,0.0,0.0,0.0,0.0,0.0,0.0,0.0,0.0,0.0,0.0,0.0,0.0,0.0,0.0,0.0,0.0,0.0,0.0,0.0,0.0,0.0,0.0,0.0,0.0,0.0,0.0,0.0,0.0,0.0,0.0,0.0,0.0,0.0,0.0,0.0,0.0,0.0,0.0,0.0,0.0,0.0,0.0,0.0,0.0,0.0,0.0,0.0,0.0,0.0,0.0,0.0,0.0,0.0,0.0,0.0,0.0,0.0,0.0,0.0,0.0,0.0,0.0,0.0,0.0,0.0,0.0,0.0,0.0,0.0,0.0,0.0,0.0,0.0,0.0,0.0,0.0,0.0,0.0,0.0,0.0,0.0,0.0,0.0,0.0,0.0,0.0,0.0,0.0,0.0,0.0,0.0,0.0,0.0,0.0,0.0,0.0,0.0,0.0,0.0,0.0,0.0,0.0,0.0,0.0,0.0,0.0,0.0,0.0,0.0,0.0,0.0,0.0,0.0,0.0,0.0,0.0,0.0,0.0,0.0,0.0,0.0,0.0,0.0,0.0,0.0,0.0,0.0,0.0,0.0,0.0,0.0,0.0,0.0,0.0,0.0,0.0,0.0,0.0,0.0,0.0,0.0,0.0,0.0,0.0,0.0,0.0,0.0,0.0,0.0,0.0,0.0,0.0,0.0,0.0,0.0,0.0,0.0,0.0,0.0,0.0,0.0,0.0,0.0,0.0,0.0,0.0,0.0,0.0,0.0,0.0,0.0,0.0,0.0,0.0,0.0,0.0,0.0,0.0,0.0,0.0,0.0,0.0,0.0,0.0,0.0,0.0,0.0,0.0,0.0,0.0,0.0,0.0,0.0,0.0,0.0,0.0,0.0,0.0,0.0,0.0,0.0,0.0,0.0,0.0,0.0,0.0,0.0,0.0,0.0,0.0,0.0,0.0,0.0,0.0,0.0,0.0,0.0,0.0,0.0,0.0,0.0,0.0,0.0,0.0,0.0,0.0,0.0,0.0,0.0,0.0,0.0,0.0,0.0,0.0,0.0,0.0,0.0,0.0,0.0,0.0,0.0,0.0,0.0,0.0,0.0,0.0,0.0,0.0,0.0,0.0,0.0,0.0,0.0,0.0,0.0,0.0,0.0,0.0,0.0,0.0,0.0,0.0,0.0,0.0,0.0,0.0,0.0,0.0,0.0,0.0,0.0,0.0,0.0,0.0,0.0,0.0,0.0,0.0,0.0,0.0,0.0,0.0,0.0,0.0,0.0,0.0,0.0,0.0,0.0,0.0,0.0,0.0,0.0,0.0,0.0,0.0,0.0,0.0,0.0,0.0,0.0,0.0,0.0,0.0,0.0,0.0,0.0,0.0,0.0,0.0,0.0,0.0,0.0,0.0,0.0,0.0,0.0,0.0,0.0,0.0,0.0,0.0,0.0,0.0,0.0,0.0,0.0,0.0,0.0,0.0,0.0,0.0,0.0,0.0,0.0,0.0,0.0,0.0,0.0,0.0,0.0,0.0,0.0,0.0,0.0,0.0,0.0,0.0,0.0,0.0,0.0,0.0,0.0,0.0,0.0,0.0,0.0,0.0,0.0,0.0,0.0,0.0,0.0,0.0,0.0,0.0,0.0,0.0,0.0,0.0,0.0,0.0,0.0,0.0,0.0,0.0,0.0,0.0,0.0,0.0,0.0,0.0,0.0,0.0,0.0,0.0,0.0,0.0,0.0,0.0,0.0,0.0,0.0,0.0,0.0,0.0,0.0,0.0,0.0,0.0,0.0,0.0,0.0,0.0,0.0,0.0,0.0,0.0,0.0,0.0,0.0,0.0,0.0,0.0,0.0,0.0,0.0,0.0,0.0,0.0,0.0,0.0,0.0,0.0,0.0,0.0,0.0,0.0,0.0,0.0,0.0,0.0,0.0,0.0,0.0,0.0,0.0,0.0,0.0,0.0,0.0,0.0,0.0,0.0,0.0,0.0,0.0,0.0,0.0,0.0,0.0,0.0,0.0,0.0,0.0,0.0,0.0,0.0,0.0,0.0,0.0,0.0,0.0,0.0,0.0,0.0,0.0,0.0,0.0,0.0,0.0,0.0,0.0,0.0,0.0,0.0,0.0,0.0,0.0,0.0,0.0,0.0,0.0,0.0,0.0,0.0,0.0,0.0,0.0,0.0,0.0,0.0,0.0,0.0,0.0,0.0,0.0,0.0,0.0,0.0,0.0,0.0,0.0,0.0,0.0,0.0,0.0,0.0,0.0,0.0,0.0,0.0,0.0,0.0,0.0,0.0,0.0,0.0,0.0,0.0,0.0,0.0,0.0,0.0,0.0,0.0,0.0,0.0,0.0,0.0,0.0,0.0,0.0,0.0,0.0,0.0,0.0,0.0,0.0,0.0,0.0,0.0,0.0,0.0,0.0,0.0,0.0,0.0,0.0,0.0,0.0,0.0,0.0,0.0,0.0,0.0,0.0,0.0,0.0,0.0,0.0,0.0,0.0,0.0,0.0,0.0,0.0,0.0,0.0,0.0,0.0,0.0,0.0,0.0,0.0,0.0,0.0,0.0,0.0,0.0,0.0,0.0,0.0,0.0,0.0,0.0,0.0,0.0,0.0,0.0,0.0,0.0,0.0,0.0,0.0,0.0,0.0,0.0,0.0,0.0,0.0,0.0,0.0,0.0,0.0,0.0,0.0,0.0,0.0,0.0,0.0,0.0,0.0,0.0,0.0,0.0,0.0,0.0,0.0,0.0,0.0,0.0,0.0,0.0,0.0,0.0,0.0,0.0,0.0,0.0,0.0,0.0,0.0,0.0,0.0,0.0,0.0,0.0,0.0,0.0,0.0,0.0,0.0,0.0,0.0,0.0,0.0,0.0,0.0,0.0,0.0,0.0,0.0,0.0,0.0,0.0,0.0,0.0,0.0,0.0,0.0,0.0,0.0,0.0,0.0,0.0,0.0,0.0,0.0,0.0,0.0,0.0,0.0,0.0,0.0,0.0,0.0,0.0,0.0,0.0,0.0,0.0,0.0,0.0,0.0,0.0,0.0,0.0,0.0,0.0,0.0,0.0,0.0,0.0,0.0,0.0,0.0,0.0,0.0,0.0,0.0,0.0,0.0,0.0,0.0,0.0,0.0,0.0,0.0,0.0,0.0,0.0,0.0,0.0,0.0,0.0,0.0,0.0,0.0,0.0,0.0,0.0,0.0,0.0,0.0,0.0,0.0,0.0,0.0,0.0,0.0,0.0,0.0,0.0,0.0,0.0,0.0,0.0,0.0,0.0,0.0,0.0,0.0,0.0,0.0,0.0,0.0,0.0,0.0,0.0,0.0,0.0,0.0,0.0,0.0,0.0,0.0,0.0,0.0,0.0,0.0,0.0,0.0,0.0,0.0,0.0,0.0,0.0,0.0,0.0,0.0,0.0,0.0,0.0,0.0,0.0,0.0,0.0,0.0,0.0,0.0,0.0,0.0,0.0,0.0,0.0,0.0,0.0,0.0,0.0,0.0,0.0,0.0,0.0,0.0,0.0,0.0,0.0,0.0,0.0,0.0,0.0,0.0,0.0,0.0,0.0,0.0,0.0,0.0,0.0,0.0,0.0,0.0,0.0,0.0,0.0,0.0,0.0,0.0,0.0,0.0,0.0,0.0,0.0,0.0,0.0,0.0,0.0,0.0,0.0,0.0,0.0,0.0,0.0,0.0,0.0,0.0,0.0,0.0,0.0,0.0,0.0,0.0,0.0,0.0,0.0,0.0,0.0,0.0,0.0,0.0,0.0,0.0,0.0,0.0,0.0,0.0,0.0,0.0,0.0,0.0,0.0,0.0,0.0,0.0,-3.1711,-3.1384,0.0,0.0,0.0,0.0,0.0,0.0,0.0,0.0,0.0,0.0,0.0,0.0,0.0,0.0,0.0,0.0,0.0,0.0,0.0,0.0,0.0,0.0,0.0,0.0,0.0,0.0,0.0,0.0,0.0,0.0,0.0,0.0,0.0,0.0,0.0,0.0,0.0,0.0,-1.3357,-1.537,-1.7727,-2.073,-2.3139,-2.4805,0.0,0.0,0.0,0.0,0.0,0.0,0.0,0.0,0.0,0.0,0.0,0.0,0.0,0.0,0.0,0.0,0.0,0.0,0.0,0.0,0.0,0.0,0.0,0.0,0.0,0.0,0.0,0.0,0.0,0.0,0.0,0.0,0.0,0.0,0.0,0.0,0.0,0.0,0.0,0.0,0.0,0.0,0.0,0.0,0.0,0.0,0.0,0.0,0.0,0.0,0.0,0.0,0.0,0.0,0.0,0.0,0.0,0.0,0.0,0.0,0.0,0.0,0.0,0.0,0.0,0.0,0.0,0.0,0.0,0.0,-3.3572,-3.3144,0.0,0.0,0.0,0.0,0.0,0.0,0.0,0.0,0.0,0.0,0.0,0.0,0.0,0.0,0.0,0.0,0.0,0.0,0.0,0.0,0.0,0.0,0.0,-2.4109,-2.3253,-2.2226,-2.2118,-2.2301,0.0,0.0,0.0,0.0,0.0,0.0,0.0,-1.4654,-1.2807,-1.0174,-1.2964,-1.6681,-2.1365,-2.3484,-2.5066,-2.6117,-2.6533,0.0,0.0,0.0,0.0,0.0,0.0,0.0,0.0,0.0,0.0,0.0,0.0,0.0,0.0,0.0,0.0,0.0,0.0,0.0,0.0,0.0,0.0,0.0,0.0,0.0,0.0,0.0,0.0,0.0,0.0,0.0,0.0,0.0,0.0,0.0,0.0,0.0,0.0,0.0,0.0,0.0,0.0,0.0,0.0,0.0,0.0,0.0,0.0,0.0,0.0,0.0,0.0,0.0,0.0,0.0,0.0,0.0,0.0,0.0,0.0,0.0,0.0,0.0,-3.2641,-3.3482,-3.3765,-3.4446,-3.5171,-3.5931,-3.5545,-3.5185,-3.4735,-3.4267,0.0,0.0,0.0,0.0,0.0,0.0,0.0,0.0,0.0,0.0,0.0,0.0,0.0,0.0,0.0,0.0,0.0,0.0,0.0,0.0,0.0,-2.3032,-2.2271,-2.1184,-2.1566,-2.2124,-2.2747,0.0,0.0,0.0,0.0,0.0,-1.4947,-1.302,-1.1559,-1.046,-1.5713,-2.0247,-2.4141,-2.5982,-2.7695,-2.9162,-2.8758,-2.939,-3.0777,0.0,0.0,0.0,0.0,0.0,0.0,0.0,0.0,0.0,0.0,0.0,0.0,0.0,0.0,0.0,0.0,0.0,0.0,0.0,0.0,0.0,0.0,0.0,0.0,0.0,0.0,0.0,0.0,0.0,0.0,0.0,0.0,0.0,0.0,0.0,0.0,0.0,0.0,0.0,0.0,0.0,-2.7334,-2.6634,0.0,0.0,0.0,0.0,0.0,0.0,0.0,0.0,0.0,0.0,0.0,0.0,0.0,-3.0854,-3.1304,-3.2454,-3.2982,-3.2994,-3.4923,-3.5889,-3.5978,-3.6974,-3.7515,-3.7676,-3.7623,0.0,-3.4652,-3.4111,0.0,0.0,0.0,0.0,0.0,0.0,0.0,0.0,0.0,0.0,0.0,0.0,0.0,0.0,0.0,0.0,0.0,0.0,0.0,0.0,0.0,-2.1156,-2.0274,-1.962,-2.049,-2.1315,-2.1859,-2.3315,0.0,0.0,0.0,-1.7805,-1.4058,-1.2726,-1.2745,-1.4293,-1.84,-2.2278,-2.5844,-2.7801,-2.961,-3.1251,-3.1696,-3.1929,-3.1874,-3.1845,0.0,0.0,0.0,0.0,0.0,0.0,0.0,0.0,0.0,0.0,0.0,0.0,0.0,0.0,0.0,0.0,0.0,0.0,0.0,0.0,0.0,0.0,0.0,0.0,0.0,0.0,0.0,0.0,0.0,0.0,0.0,0.0,0.0,0.0,0.0,0.0,0.0,0.0,0.0,-2.6981,-2.668,-2.5891,-2.5782,-2.5865,0.0,0.0,0.0,0.0,0.0,0.0,0.0,0.0,0.0,-3.1914,-3.243,-3.2934,-3.3499,-3.4129,-3.4739,-3.5049,-3.6617,-3.7508,-3.7819,-3.855,-3.8956,-3.8956,-3.8956,-3.8052,-3.6471,-3.5303,-3.4211,-3.3119,0.0,0.0,0.0,0.0,-3.2497,-3.3715,0.0,0.0,0.0,0.0,0.0,0.0,0.0,0.0,0.0,0.0,0.0,0.0,-2.0191,-1.9151,-1.8464,-1.8267,-1.9489,-2.0571,-2.1363,-2.3056,-2.3636,-2.2828,-2.028,-1.7096,-1.3296,-1.2494,-1.3733,-1.7105,-2.0533,-2.3772,-2.6912,-2.9125,-3.0984,-3.2602,-3.3757,-3.4134,-3.3913,-3.4049,-3.3704,-3.302,0.0,0.0,0.0,0.0,0.0,0.0,0.0,0.0,0.0,0.0,0.0,0.0,0.0,0.0,0.0,0.0,0.0,0.0,0.0,0.0,0.0,0.0,0.0,0.0,0.0,0.0,0.0,0.0,0.0,0.0,0.0,0.0,0.0,0.0,0.0,0.0,0.0,-2.6942,-2.7059,-2.6174,-2.6936,-2.7457,0.0,0.0,0.0,0.0,0.0,0.0,-3.1101,-3.1425,-3.2512,-3.4519,-3.4924,-3.5289,-3.5734,-3.597,-3.6237,-3.6555,-3.7688,-3.8409,-3.8841,-3.9374,-3.9622,-3.9484,-3.9484,-3.8843,-3.7701,-3.6471,-3.5479,-3.4587,-3.3354,-3.3213,-3.361,-3.3579,-3.4552,-3.6004,0.0,0.0,0.0,0.0,0.0,0.0,0.0,0.0,0.0,0.0,0.0,-1.9394,-1.7506,-1.7234,-1.7315,-1.7639,-1.8887,-2.0297,-2.1864,-2.2764,-2.2937,-2.2255,-1.9132,-1.5958,-1.2775,-1.1943,-1.3252,-1.6802,-2.1422,-2.4887,-2.7339,-2.9944,-3.1875,-3.3182,-3.3901,-3.5704,-3.819,-3.6368,-3.6515,-3.7619,-3.3811,0.0,0.0,0.0,0.0,0.0,0.0,0.0,0.0,0.0,0.0,0.0,0.0,0.0,0.0,0.0,0.0,0.0,0.0,0.0,0.0,0.0,0.0,0.0,0.0,0.0,0.0,0.0,0.0,0.0,0.0,0.0,0.0,0.0,0.0,0.0,0.0,0.0,0.0,-2.8331,-2.9829,0.0,0.0,0.0,0.0,-3.0873,-3.1804,-3.2747,-3.3817,-3.4824,-3.6149,-3.7808,-3.7792,-3.7855,-3.7853,-3.7808,-3.7619,-3.7096,-3.8185,-3.8736,-3.8841,-3.9374,-3.9408,-3.8906,-3.8906,-3.8266,-3.7211,-3.7136,-3.6157,-3.4753,-3.4825,-3.4913,-3.5046,-3.6334,-3.7218,-3.7906,0.0,0.0,0.0,0.0,0.0,0.0,0.0,0.0,-2.2014,-2.0201,-1.864,-1.7063,-1.5476,-1.5813,-1.6602,-1.7833,-1.9739,-2.1298,-2.2315,-2.3309,-2.2992,-2.1051,-1.8389,-1.5264,-1.1752,-1.2007,-1.4098,-1.8151,-2.1597,-2.4668,-2.7457,-2.8915,-3.0649,-3.2523,-3.346,-3.5471,-3.8026,-3.7361,-3.7248,-3.7485,-3.6111,-3.4746,0.0,0.0,0.0,0.0,0.0,0.0,0.0,0.0,0.0,0.0,0.0,0.0,0.0,0.0,0.0,0.0,0.0,0.0,0.0,0.0,0.0,0.0,0.0,0.0,0.0,0.0,0.0,0.0,0.0,0.0,0.0,0.0,0.0,0.0,0.0,0.0,0.0,-2.9305,-3.0974,0.0,-3.124,-3.1563,-3.2192,-3.29,-3.3691,-3.4551,-3.5565,-3.6642,-3.7676,-3.8521,-3.8558,-3.8331,-3.7974,-3.7986,-3.7868,-3.7667,-3.8409,-3.8773,-3.8851,-3.9055,-3.8856,-3.8316,-3.8316,-3.7877,-3.7186,-3.7186,-3.6621,-3.581,-3.5968,-3.6302,-3.677,-3.7383,-3.8256,-3.9142,0.0,0.0,0.0,0.0,0.0,0.0,0.0,0.0,-2.057,-1.8144,-1.627,-1.4689,-1.337,-1.4427,-1.5988,-1.7798,-1.9895,-2.1493,-2.2302,-2.2867,-2.2213,-2.0018,-1.6753,-1.38,-1.119,-1.1984,-1.4399,-1.8363,-2.1008,-2.3764,-2.6538,-2.7893,-2.9622,-3.1595,-3.2773,-3.4681,-3.7056,-3.74,-3.7624,-3.7727,-3.7345,-3.622,-3.469,0.0,0.0,0.0,0.0,0.0,0.0,0.0,0.0,0.0,0.0,0.0,0.0,0.0,0.0,0.0,0.0,0.0,0.0,0.0,0.0,0.0,0.0,0.0,0.0,0.0,0.0,0.0,0.0,0.0,0.0,0.0,0.0,0.0,0.0,-3.0539,-3.1298,-3.0495,-3.2353,-3.3287,-3.246,-3.3104,-3.3839,-3.4792,-3.531,-3.6013,-3.6896,-3.7665,-3.8136,-3.8372,-3.8161,-3.7844,-3.7524,-3.7737,-3.7878,-3.8036,-3.8755,-3.8885,-3.858,-3.8781,-3.8454,-3.7726,-3.7726,-3.7412,-3.6897,-3.6709,-3.642,-3.6163,-3.67,-3.7219,-3.7704,-3.831,-3.9074,-3.9746,0.0,0.0,0.0,0.0,0.0,0.0,0.0,-2.1518,-1.8765,-1.5632,-1.3729,-1.2289,-1.1194,-1.3094,-1.5351,-1.7556,-1.9256,-2.0705,-2.1818,-2.144,-2.0526,-1.9101,-1.4337,-1.1606,-1.1358,-1.1978,-1.395,-1.7195,-1.9966,-2.2382,-2.4498,-2.7021,-2.8981,-3.0443,-3.1827,-3.3524,-3.5453,-3.657,-3.7689,-3.8631,-3.7462,-3.6746,-3.6274,0.0,0.0,0.0,0.0,0.0,0.0,0.0,0.0,0.0,0.0,0.0,0.0,0.0,0.0,0.0,0.0,0.0,0.0,0.0,0.0,0.0,0.0,0.0,0.0,0.0,0.0,0.0,0.0,0.0,0.0,0.0,0.0,0.0,-3.1046,-3.219,-3.2826,-3.2017,-3.4043,-3.5167,-3.4176,-3.4982,-3.5756,-3.6274,-3.6849,-3.7346,-3.7868,-3.7986,-3.7737,-3.7465,-3.693,-3.6619,-3.6619,-3.7263,-3.7661,-3.8042,-3.91,-3.9082,-3.8002,-3.8567,-3.8216,-3.7161,-3.7149,-3.6822,-3.6295,-3.5742,-3.5516,-3.5554,-3.6919,-3.7597,-3.7859,-3.9155,-3.9626,-3.9676,0.0,0.0,0.0,0.0,0.0,0.0,0.0,-1.9895,-1.652,-1.3523,-1.1604,-1.0385,-0.9933,-1.259,-1.5484,-1.8059,-1.9932,-2.1171,-2.1645,-2.0965,-1.9045,-1.5637,-1.3255,-1.1936,-1.1796,-1.3178,-1.4881,-1.6907,-1.9761,-2.1946,-2.3507,-2.5321,-2.684,-2.8249,-3.0117,-3.1749,-3.3138,-3.4834,-3.6257,-3.7362,-3.8271,-3.7839,-3.6572,0.0,0.0,0.0,0.0,0.0,0.0,0.0,0.0,0.0,0.0,0.0,0.0,0.0,0.0,0.0,0.0,0.0,0.0,0.0,0.0,0.0,0.0,0.0,0.0,0.0,0.0,0.0,0.0,0.0,0.0,0.0,-3.2828,-3.4052,-3.3273,-3.4285,-3.5064,-3.5023,-3.562,-3.6114,-3.6215,-3.614,-3.6275,-3.6813,-3.7049,-3.6904,-3.646,-3.6762,-3.6619,-3.5945,-3.6391,-3.6619,-3.6619,-3.7832,-3.8338,-3.8042,-3.8714,-3.8504,-3.7412,-3.7575,-3.7262,-3.6571,-3.6169,-3.5906,-3.573,-3.5177,-3.4713,-3.4488,-3.6283,-3.7016,-3.723,-3.8615,-3.9089,-3.903,0.0,0.0,0.0,0.0,0.0,0.0,0.0,-1.8774,-1.5017,-1.2444,-1.0417,-0.9252,-0.945,-1.2665,-1.5779,-1.8341,-2.0177,-2.0971,-2.0522,-1.8992,-1.6821,-1.3977,-1.3061,-1.2712,-1.2782,-1.4249,-1.5781,-1.7493,-1.9199,-2.0849,-2.2387,-2.4114,-2.545,-2.6559,-2.8982,-3.0688,-3.1846,-3.3537,-3.49,-3.6023,-3.7388,-3.7618,-3.7126,-3.6474,-3.5758,-3.5087,-3.4329,-3.3968,-3.3631,-3.2321,0.0,0.0,0.0,0.0,0.0,0.0,0.0,0.0,0.0,0.0,0.0,0.0,0.0,0.0,0.0,0.0,0.0,0.0,0.0,0.0,0.0,0.0,0.0,0.0,-3.4762,-3.5925,-3.5025,-3.5385,-3.5757,-3.564,-3.5853,-3.6064,-3.6386,-3.6356,-3.6375,-3.67,-3.6808,-3.6472,-3.5806,-3.5881,-3.5421,-3.4403,-3.478,-3.5117,-3.5432,-3.6638,-3.7242,-3.7341,-3.8191,-3.7927,-3.6847,-3.7073,-3.6885,-3.6345,-3.6031,-3.5755,-3.5504,-3.4951,-3.4399,-3.4035,0.0,0.0,0.0,0.0,-3.7882,-3.7907,0.0,0.0,0.0,0.0,0.0,0.0,0.0,-1.7581,-1.327,-1.1374,-0.9129,-0.8031,-0.8899,-1.2869,-1.6365,-1.8644,-2.0146,-2.0291,-1.8759,-1.6262,-1.4454,-1.3406,-1.3414,-1.3518,-1.3874,-1.5071,-1.6509,-1.816,-1.8533,-1.9577,-2.125,-2.3205,-2.4469,-2.5271,-2.8118,-2.9924,-3.1002,-3.2571,-3.3811,-3.4786,-3.5535,-3.6635,-3.7731,-3.6467,-3.6376,-3.689,-3.6504,-3.671,-3.7068,-3.629,0.0,0.0,0.0,0.0,0.0,0.0,0.0,0.0,0.0,0.0,0.0,0.0,0.0,0.0,0.0,0.0,0.0,0.0,0.0,0.0,0.0,0.0,0.0,0.0,-3.6471,-3.7263,-3.5979,-3.5638,-3.5391,-3.4822,-3.5167,-3.5462,-3.5508,-3.5921,-3.6208,-3.6266,-3.6157,-3.5904,-3.5508,-3.488,0.0,0.0,0.0,-3.309,-3.3824,-3.4619,-3.5466,-3.6284,-3.7381,-3.7277,-3.6288,-3.6872,-3.6822,-3.6358,-3.6295,-3.5956,-3.5416,-3.4851,-3.4299,-3.3859,-3.4438,-3.4754,-3.507,-3.5677,-3.6195,-3.6443,0.0,0.0,0.0,0.0,0.0,0.0,0.0,-1.4302,-0.7852,-0.7143,-0.4548,-0.3404,-0.5061,-1.1973,-1.7341,-1.9465,-2.0261,-1.9413,-1.6591,-1.4987,-1.368,-1.276,-1.3159,-1.3515,-1.38,-1.5342,-1.6356,-1.6722,-1.8525,-1.9833,-2.0614,-2.2067,-2.3299,-2.4348,-2.6771,-2.8235,-2.9098,-3.1699,-3.3379,-3.4277,-3.4563,-3.5853,-3.7546,-3.7276,-3.7528,-3.8002,-3.7899,-3.8629,-3.9554,-3.9175,-3.9341,-3.9642,-3.9432,-3.8201,0.0,0.0,0.0,0.0,0.0,0.0,0.0,0.0,0.0,0.0,0.0,0.0,0.0,0.0,0.0,0.0,0.0,0.0,0.0,-3.5454,-3.6106,-3.6297,-3.5489,-3.4607,-3.4183,-3.474,-3.4866,-3.5095,-3.5485,-3.5611,-3.583,-3.6243,-3.5587,-3.4637,-3.3472,-3.3033,-3.2509,-3.1922,-3.249,-3.342,-3.469,-3.5283,-3.5615,-3.5803,-3.6395,0.0,-3.5812,-3.6281,-3.6458,-3.6332,-3.5893,-3.5391,-3.4839,-3.4286,-3.3734,-3.333,-3.3935,-3.4575,-3.504,-3.5136,-3.4981,-3.4781,0.0,0.0,0.0,0.0,0.0,0.0,0.0,-1.3031,-0.7366,-1.1335,-0.6424,-0.4708,-1.0434,-1.5688,-1.9402,-2.0936,-1.9387,-1.7452,-1.5306,-1.3646,-1.2654,-1.2342,-1.3797,-1.4737,-1.5028,-1.6622,-1.7638,-1.7956,-1.8997,-1.9891,-2.0725,-2.1884,-2.285,-2.3695,-2.6234,-2.7823,-2.8737,-3.0849,-3.2501,-3.3709,-3.3861,-3.5083,-3.6812,-3.6504,-3.6998,-3.7911,-3.8449,-3.9411,-4.0533,-4.1417,-4.159,-4.1435,-4.1364,-4.0093,-3.8371,0.0,0.0,0.0,0.0,0.0,0.0,0.0,0.0,0.0,0.0,0.0,0.0,0.0,0.0,-3.4257,-3.4926,0.0,-3.5343,-3.6042,-3.6218,-3.5672,-3.4237,-3.3806,-3.3573,-3.3604,-3.3919,-3.4234,-3.4705,-3.5003,-3.5043,-3.495,-3.4411,-3.3541,-3.1991,-3.1871,-3.1687,-3.1227,-3.1981,-3.2847,-3.3877,-3.4439,-3.4775,-3.4825,-3.5306,-3.5563,-3.562,-3.5895,-3.5936,-3.5931,-3.5667,-3.5077,-3.4274,-3.3721,-3.3319,-3.3154,-3.3496,-3.3823,-3.4063,-3.4063,-3.4131,-3.4202,0.0,0.0,0.0,0.0,0.0,0.0,0.0,-1.3081,-0.8805,-1.5665,-0.9816,-0.806,-1.6099,-1.9504,-2.1313,-2.167,-1.8283,-1.5542,-1.4147,-1.2354,-1.1635,-1.2287,-1.4568,-1.6018,-1.6442,-1.7918,-1.8953,-1.9486,-1.9627,-2.0154,-2.1049,-2.2021,-2.2748,-2.3361,-2.5989,-2.7661,-2.8627,-3.0206,-3.177,-3.3201,-3.3431,-3.4527,-3.5967,-3.5496,-3.624,-3.7616,-3.8477,-3.9427,-4.0497,-4.2284,-4.2431,-4.1869,-4.1673,-4.0643,-3.9057,-3.682,-3.6625,0.0,0.0,0.0,0.0,0.0,0.0,0.0,0.0,-3.597,-3.5445,-3.6679,-3.5866,-3.5367,-3.6873,-3.6037,-3.5282,-3.5728,-3.5276,-3.4208,-3.2357,-3.238,-3.2406,-3.2025,-3.2563,-3.3212,-3.3809,-3.4245,-3.4255,-3.3793,-3.3475,-3.2566,-3.1086,-3.1157,-3.1197,-3.0966,-3.1692,-3.2383,-3.2975,-3.36,-3.3843,-3.3843,-3.4433,-3.4932,-3.5416,-3.5524,-3.5598,-3.5449,-3.5316,-3.4726,-3.3859,-3.3307,-3.3006,-3.2918,-3.2918,-3.2842,-3.278,-3.2993,-3.3428,-3.3832,0.0,0.0,0.0,0.0,0.0,0.0,0.0,0.0,-1.0351,-1.1994,-1.0708,-1.0693,-1.3429,-1.9019,-2.1873,-2.0125,-1.7374,-1.4829,-1.271,-1.1267,-1.1167,-1.2563,-1.4821,-1.6318,-1.6896,-1.8319,-1.9084,-1.9174,-2.0154,-2.0828,-2.1183,-2.2022,-2.2781,-2.3562,-2.5655,-2.6953,-2.7714,-3.0135,-3.1787,-3.2832,-3.3681,-3.4582,-3.5398,-3.5383,-3.6402,-3.7855,-3.8049,-3.8633,-3.9461,-4.0292,-4.0688,-4.0791,-4.0363,-3.9896,-3.8876,-3.5795,-3.5198,-3.5239,-3.3841,-3.467,-3.6045,-3.6476,-3.6729,-3.7671,0.0,-3.9829,-3.8633,-3.8839,-3.8417,-3.771,-3.674,-3.5453,-3.4307,-3.3489,-3.1514,-3.005,-3.0067,-2.9416,-2.9228,-3.0041,-3.1235,-3.2317,-3.3269,-3.3419,-3.3832,-3.4623,-3.3263,-3.2084,-3.1455,-3.0742,-3.0701,-3.1349,-3.1847,-3.2703,-3.38,-3.3522,-3.3381,-3.3381,-3.3854,-3.4335,-3.4932,-3.5416,-3.5598,-3.5491,-3.4512,-3.401,-3.3859,-3.3307,-3.2767,-3.2303,-3.2303,-3.2014,-3.17,-3.2704,-3.3072,-3.3014,0.0,0.0,0.0,0.0,0.0,0.0,0.0,0.0,0.0,-1.6502,-1.3424,-1.3126,-1.9639,-2.2661,-2.2791,-1.9318,-1.662,-1.4263,-1.2175,-1.0988,-1.1474,-1.4125,-1.6161,-1.7608,-1.8432,-1.9597,-2.0226,-2.0311,-2.1262,-2.1877,-2.2153,-2.2858,-2.3479,-2.4026,-2.5568,-2.6782,-2.7738,-2.9358,-3.0847,-3.2204,-3.3134,-3.4028,-3.4842,-3.5417,-3.5795,-3.6095,-3.6513,-3.6798,0.0,-3.7728,-3.7747,-3.7441,-3.6878,-3.6468,-3.5768,-3.3405,-3.3603,-3.4464,-3.4051,-3.4377,-3.5084,-3.6073,-3.7309,-3.8663,-4.036,-3.9483,-3.8675,-3.9914,-3.9081,-3.7885,-3.6878,-3.5294,-3.339,-3.116,-2.9605,-2.8343,-2.7515,-2.7682,-2.8077,-2.8479,-2.9645,-3.095,-3.2248,-3.2397,-3.229,-3.2068,-3.1381,-3.0569,-2.9693,-2.9987,-3.0462,-3.1083,-3.1952,-3.2823,-3.3591,-3.3384,-3.3281,-3.3281,-3.3469,-3.4052,-3.4823,-3.503,-3.5141,-3.5002,-3.3897,-3.342,-3.3382,-3.2805,-3.2428,-3.2177,-3.1863,-3.1599,-3.1449,-3.1913,-3.2406,-3.2856,0.0,0.0,0.0,0.0,0.0,0.0,0.0,0.0,0.0,0.0,-1.674,-1.6805,-2.4554,-2.5301,-2.3678,-1.9813,-1.741,-1.5284,-1.3401,-1.2525,-1.3325,-1.6049,-1.7903,-1.9291,-2.0206,-2.1075,-2.1599,-2.1748,-2.2476,-2.2929,-2.3133,-2.3749,-2.4199,-2.4538,-2.5696,-2.6811,-2.7923,-2.8839,-3.022,-3.1835,-3.2773,-3.3665,-3.4508,-3.5204,-3.513,-3.471,-3.5248,-3.5146,-3.4866,-3.538,-3.5112,-3.4385,-3.3406,-3.3091,-3.2677,-3.0762,-3.0838,-3.1526,-3.134,-3.1815,-3.2766,-3.4408,-3.6517,-3.8356,-3.9206,-3.8538,-3.821,-3.9631,-3.8513,-3.6878,-3.557,-3.3561,-3.1087,-2.8176,-2.6853,-2.5819,-2.4941,-2.5722,-2.6557,-2.6762,-2.7902,-2.9216,-3.0616,-3.1266,-3.1179,-3.0259,-3.0019,-2.963,-2.8815,-2.9688,-3.0535,-3.1105,-3.2192,-3.2844,-3.3292,-3.3281,-3.3281,-3.3281,-3.3281,-3.3784,-3.4595,-3.4593,-3.4502,-3.4449,-3.3483,-3.2993,-3.2805,-3.239,-3.2039,-3.1738,-3.1336,-3.1153,-3.1149,-3.1309,-3.2006,-3.3055,0.0,0.0,0.0,0.0,0.0,0.0,0.0,0.0,0.0,0.0,0.0,0.0,0.0,-2.5273,-2.4453,-2.2102,-2.052,-1.8818,-1.6879,-1.6673,-1.7108,-1.8253,-2.0019,-2.1367,-2.2117,-2.2593,-2.2941,-2.3145,-2.3617,-2.3896,-2.3982,-2.4459,-2.4784,-2.5015,-2.6046,-2.7052,-2.8055,-2.8922,-3.0311,-3.1981,-3.2931,-3.3776,-3.4514,-3.4609,-3.4586,-3.4523,-3.4684,-3.4105,-3.3309,-3.3601,-3.3237,-3.2367,-3.0666,-3.0545,-3.0523,-2.8126,-2.6496,-2.5244,-2.4208,-2.5935,-2.8661,-3.1404,-3.4088,-3.6374,-3.7738,-3.8006,-3.7882,-3.7582,-3.6607,-3.4836,-3.1835,-2.9302,-2.6816,-2.4035,-2.2149,-2.1352,-2.2266,-2.3069,-2.383,-2.4716,-2.5845,-2.7064,-2.8319,-2.9967,-3.0944,-3.063,-3.0227,-2.9992,-2.9992,-3.0139,-3.0736,-3.1936,-3.2388,-3.2844,-3.3292,-3.3281,-3.3281,-3.3281,-3.3281,-3.3511,-3.403,-3.3921,-3.396,-3.3884,-3.3319,-3.2754,-3.224,-3.2227,-3.1599,-3.067,-3.0645,-3.066,-3.0659,-3.1084,-3.2159,-3.3532,0.0,0.0,0.0,0.0,0.0,0.0,0.0,0.0,0.0,0.0,0.0,0.0,0.0,0.0,0.0,0.0,-2.0308,-1.9187,-1.7905,-1.8166,-1.9414,-2.169,-2.2719,-2.3509,-2.4166,-2.3921,-2.3779,-2.3796,-2.4176,-2.442,-2.4541,-2.4822,-2.5368,-2.6073,-2.647,-2.7468,-2.8886,-2.9216,-3.035,-3.1933,-3.2285,-3.2866,-3.3515,-3.3531,-3.3117,-3.2522,0.0,-3.2464,-3.2019,-3.1283,-3.0395,-2.9477,-2.8716,-2.8101,-2.6988,-2.3649,-2.0397,-1.8098,-1.9038,-2.1421,-2.4529,-2.7981,-3.0749,-3.3276,-3.5663,-3.5877,-3.5656,-3.6097,-3.4511,-3.2165,-2.9551,-2.6197,-2.3091,-2.0741,-1.9491,-1.9086,-1.9783,-2.1599,-2.2867,-2.3166,-2.5169,-2.6836,-2.7731,-2.8193,-2.8677,-2.9257,-2.8943,-2.8938,-2.9259,-3.0161,-3.1048,-3.1924,-3.2712,-3.314,-3.3281,-3.3281,-3.3097,-3.2753,-3.3074,-3.3481,-3.3942,-3.3866,-3.3897,-3.3847,-3.2905,-3.239,-3.2152,-3.1449,-3.0947,-3.0583,-3.0624,-3.0776,-3.1106,-3.2263,-3.3171,-3.3845,0.0,0.0,0.0,0.0,0.0,0.0,0.0,0.0,0.0,0.0,0.0,0.0,0.0,0.0,0.0,0.0,0.0,-2.1376,-2.0538,-2.0823,-2.1803,-2.3527,-2.3933,-2.4345,-2.4805,-2.4335,-2.4124,-2.4179,-2.4438,-2.4658,-2.4842,-2.5249,-2.5779,-2.6408,-2.668,-2.7683,-2.9156,-2.9278,-3.0095,-3.1322,-3.1651,-3.1907,-3.2116,-3.2188,-3.1843,0.0,-3.1142,-3.1078,-3.0887,-2.9787,-2.872,-2.7589,-2.6175,-2.4249,-2.1823,-1.8153,-1.5071,-1.3146,-1.4549,-1.6835,-1.9834,-2.3919,-2.7116,-3.0054,-3.2941,-3.3587,-3.3913,-3.5094,-3.3071,-3.0228,-2.7397,-2.3594,-1.996,-1.7314,-1.6522,-1.6505,-1.7533,-1.9344,-2.1003,-2.1778,-2.3584,-2.531,-2.6641,-2.6502,-2.7018,-2.8614,-2.8617,-2.8801,-2.9505,-3.0638,-3.1607,-3.2443,-3.2969,-3.3189,-3.3005,-3.2994,-3.2828,-3.2503,-3.2909,-3.3302,-3.3563,-3.337,-3.3294,-3.3244,-3.2315,-3.1813,-3.1587,-3.1124,-3.0785,-3.0635,-3.0989,-3.1415,-3.1988,-3.3199,-3.3973,-3.4327,0.0,0.0,0.0,0.0,0.0,0.0,0.0,0.0,0.0,0.0,0.0,0.0,0.0,0.0,0.0,0.0,0.0,0.0,-2.4464,-2.4386,-2.4219,-2.3888,-2.387,-2.3945,-2.4136,-2.4038,-2.4082,-2.4324,-2.4455,-2.4647,-2.4909,-2.5581,-2.5929,-2.6022,-2.6665,-2.7662,-2.884,-2.9054,-2.9531,-3.0227,-3.0954,-3.0956,-3.0513,-3.0659,-3.0781,-3.0776,-3.0204,-3.0006,-2.9881,-2.9089,-2.7998,-2.6386,-2.2905,-1.9054,-1.5208,-1.2,-1.0538,-1.0069,-1.0592,-1.2153,-1.4854,-1.9505,-2.3328,-2.6769,-2.9745,-3.1358,-3.2647,-3.42,-3.2097,-2.8828,-2.5221,-2.1163,-1.7248,-1.3834,-1.3111,-1.3625,-1.5354,-1.6662,-1.8162,-2.0412,-2.1494,-2.2902,-2.5089,-2.4883,-2.5935,-2.8872,-2.9235,-2.9655,-3.0511,-3.144,-3.2398,-3.3235,-3.3224,-3.2971,-3.2489,-3.2431,-3.2456,-3.2535,-3.292,-3.3125,-3.3088,-3.2448,-3.2215,-3.2177,-3.1599,-3.1153,-3.0687,-3.1241,-3.1189,-3.0758,-3.1783,-3.2533,-3.3115,-3.3837,-3.4409,-3.5001,0.0,0.0,0.0,0.0,0.0,0.0,0.0,0.0,0.0,0.0,0.0,0.0,0.0,0.0,0.0,0.0,0.0,0.0,-2.4784,-2.4937,-2.4965,-2.4781,-2.4774,-2.476,-2.4778,-2.4836,-2.4746,-2.4447,-2.4769,-2.4864,-2.474,-2.4757,-2.5135,-2.5868,-2.6209,-2.6874,-2.7807,-2.8048,-2.8766,-2.9714,-2.9384,-2.9776,-3.0518,-2.9982,-2.9925,-3.0151,-3.0094,-2.9508,-2.8655,-2.8,-2.4915,-2.0806,-1.7489,-1.3193,-0.9194,-0.8222,-0.6172,-0.4562,-0.6205,-0.8821,-1.2182,-1.7225,-2.0592,-2.3719,-2.7544,-2.9627,-3.0768,-3.091,-2.8548,-2.5131,-2.0785,-1.5974,-1.2236,-1.0935,-1.0154,-1.0986,-1.4427,-1.605,-1.7757,-2.002,-2.1338,-2.2793,-2.4492,-2.482,-2.5898,-2.8341,-2.8557,-2.8739,-2.9139,-3.0636,-3.1872,-3.2684,-3.234,-3.2259,-3.2489,-3.2111,-3.2042,-3.2476,-3.2487,-3.276,-3.3083,-3.2456,-3.2215,-3.2152,-3.1669,-3.1408,-3.1241,-3.1402,-3.1562,-3.1783,-3.2461,-3.3157,-3.3837,-3.4423,-3.4935,-3.5359,0.0,0.0,0.0,0.0,0.0,0.0,0.0,0.0,0.0,0.0,0.0,0.0,0.0,0.0,0.0,0.0,0.0,0.0,0.0,-2.474,-2.4627,-2.445,-2.4392,-2.4307,-2.4206,-2.4551,-2.446,-2.3952,-2.4816,-2.4974,-2.45,-2.4881,-2.5314,-2.578,-2.6301,-2.6824,-2.7355,-2.7836,-2.8375,0.0,0.0,-2.8998,-2.9606,-2.9347,-2.9474,-2.9827,-3.0025,-2.783,-2.4403,-2.1556,-1.8129,-1.4569,-1.1804,-0.8154,-0.4875,-0.4512,-0.3219,-0.2308,-0.4432,-0.7236,-1.0626,-1.538,-1.897,-2.2314,-2.5895,-2.8096,-2.9405,-2.9454,-2.6736,-2.2968,-1.8519,-1.3735,-0.9825,-0.7935,-0.7835,-0.9057,-1.2365,-1.4118,-1.6147,-1.9104,-2.0264,-2.1618,-2.3573,-2.4024,-2.4903,-2.6723,-2.7503,-2.8488,-2.9657,-3.0544,-3.1356,-3.2156,-3.1903,-3.1872,-3.2109,-3.1875,-3.1926,-3.2386,-3.2364,-3.2448,-3.2667,-3.1876,-3.1512,-3.1461,-3.1188,-3.1112,-3.1163,-3.187,-3.2318,-3.2605,-3.3465,-3.4085,-3.4476,-3.4986,-3.5294,-3.5504,0.0,0.0,0.0,0.0,0.0,0.0,0.0,0.0,0.0,0.0,0.0,0.0,0.0,0.0,0.0,0.0,0.0,0.0,0.0,0.0,-2.3803,-2.3522,-2.3414,-2.3318,-2.3206,-2.3829,-2.3919,-2.3414,-2.4678,-2.4896,-2.4213,-2.5245,-2.5678,-2.5595,-2.6404,-2.686,-2.7048,-2.7794,-2.7963,-2.7794,-2.8308,-2.8475,-2.8512,0.0,-2.9334,-2.9748,-2.961,-2.5322,-1.8889,-1.3491,-1.049,-0.8549,-0.6207,-0.388,-0.1867,-0.1389,-0.1315,-0.1949,-0.4164,-0.6746,-0.9865,-1.4166,-1.8285,-2.2004,-2.4797,-2.6996,-2.848,-2.8795,-2.5861,-2.1856,-1.7362,-1.3,-0.8894,-0.5302,-0.5844,-0.7601,-1.0178,-1.1836,-1.431,-1.8259,-1.9016,-2.0076,-2.2414,-2.3072,-2.3638,-2.4771,-2.6221,-2.8156,-3.0532,-3.0594,-3.0914,-3.1441,-3.1628,-3.1692,-3.1619,-3.1621,-3.1937,-3.2388,-3.2237,-3.2215,-3.2177,-3.111,-3.0608,-3.0729,-3.0726,-3.0758,-3.0833,-3.2461,-3.3129,-3.3185,-3.4438,-3.4935,-3.5001,-3.5359,-3.5504,-3.5504,0.0,0.0,0.0,0.0,0.0,0.0,0.0,0.0,0.0,0.0,-2.2471,-2.3012,0.0,0.0,0.0,0.0,0.0,0.0,0.0,0.0,0.0,-2.2972,-2.3069,-2.3171,-2.32,-2.4118,-2.4402,-2.404,-2.4505,-2.4506,-2.4016,-2.3933,-2.4172,-2.471,-2.4954,-2.5417,-2.6052,-2.6247,-2.6567,-2.6995,-2.727,-2.7946,-2.8856,-2.914,0.0,0.0,-2.7601,-2.2216,-1.5613,-1.1762,-0.8349,-0.5044,-0.1731,-0.041,-0.0137,-0.0404,-0.0803,-0.1733,-0.4119,-0.6861,-1.0119,-1.4808,-1.894,-2.2469,-2.5053,-2.736,-2.8516,-2.6889,-2.4866,-2.1589,-1.5825,-1.1639,-0.804,-0.4783,-0.4484,-0.602,-0.9704,-1.1091,-1.3565,-1.8497,-1.8957,-1.9714,-2.1897,-2.2547,-2.3308,-2.4172,-2.466,-2.5919,-2.8376,-3.009,-3.0753,-3.0491,-3.0916,-3.1078,-3.1078,-3.1443,-3.1937,-3.2388,-3.2237,-3.2215,-3.2177,-3.111,-3.0833,-3.1319,-3.132,-3.1355,-3.1429,-3.3044,-3.3534,-3.3506,-3.4505,-3.5082,-3.5424,-3.5439,-3.5504,-3.5504,0.0,0.0,0.0,0.0,0.0,0.0,0.0,-2.1855,-2.2635,-2.3791,-2.3762,-2.386,-2.4445,-2.505,-2.5425,0.0,0.0,0.0,0.0,0.0,0.0,0.0,0.0,0.0,-2.3666,-2.4551,-2.4772,-2.4253,0.0,-2.507,-2.4251,-2.4373,-2.4535,-2.4647,-2.4794,-2.5014,-2.527,-2.5471,-2.5962,-2.673,-2.6975,-2.7936,-2.9225,0.0,0.0,0.0,-2.6817,-2.24,-1.675,-1.0503,-0.7203,-0.4856,0.0,0.1481,0.1256,0.0689,-0.0475,-0.2009,-0.4389,-0.7418,-1.1001,-1.5535,-1.9606,-2.2978,-2.4774,-2.6654,-2.7474,-2.56,-2.3755,-2.0798,-1.525,-1.1501,-0.8083,-0.4493,-0.4023,-0.5227,-0.8267,-1.0012,-1.2496,-1.6452,-1.7548,-1.8706,-2.0627,-2.1396,-2.2262,-2.3374,-2.3937,-2.5262,-2.7698,-2.9128,-2.9814,-2.9848,-3.0089,-3.0461,-3.0902,-3.144,-3.1879,-3.2288,-3.1968,-3.165,-3.1361,-3.0557,-3.0468,-3.1021,-3.1338,-3.1809,-3.239,-3.3618,-3.4182,-3.4288,-3.4935,-3.5359,-3.5504,-3.5504,-3.5504,-3.5504,0.0,0.0,0.0,0.0,0.0,0.0,0.0,-2.2816,-2.3513,-2.4743,-2.4652,-2.4551,-2.4801,-2.5205,-2.5458,0.0,0.0,0.0,0.0,0.0,0.0,0.0,0.0,0.0,-2.4302,0.0,0.0,-2.4463,-2.5476,0.0,0.0,0.0,0.0,0.0,-2.5063,-2.5126,-2.512,-2.534,-2.5948,0.0,0.0,-2.819,-2.9568,0.0,0.0,0.0,0.0,-2.323,-1.8573,-1.1443,-0.8388,-0.6639,-0.1522,0.0764,0.1406,0.0625,-0.0821,-0.2695,-0.5176,-0.8458,-1.2196,-1.6497,-2.0574,-2.3734,-2.4683,-2.602,-2.6591,-2.5052,-2.3172,-2.0311,-1.5488,-1.2153,-0.8646,-0.4225,-0.3873,-0.4873,-0.6712,-0.8852,-1.1558,-1.4879,-1.64,-1.7927,-1.9922,-2.0525,-2.1325,-2.2453,-2.3379,-2.5087,-2.7547,-2.8181,-2.871,-2.9309,-2.942,-2.9846,-3.0711,-3.1207,-3.1712,-3.2026,-3.1486,-3.1009,-3.0595,-3.0186,-3.0279,-3.0833,-3.1429,-3.2173,-3.3058,-3.3991,-3.4534,-3.4773,-3.5279,-3.5504,-3.5504,-3.5504,-3.5504,-3.5504,0.0,0.0,0.0,0.0,0.0,0.0,0.0,-2.3515,-2.3986,-2.4246,-2.4515,-2.4727,-2.4867,-2.515,-2.539,0.0,0.0,0.0,0.0,0.0,0.0,0.0,0.0,0.0,0.0,0.0,0.0,-2.5034,-2.4974,0.0,0.0,0.0,0.0,0.0,0.0,-2.5554,-2.616,-2.6121,0.0,0.0,0.0,0.0,0.0,0.0,0.0,0.0,0.0,-2.3093,-1.8679,-1.7186,-1.4053,-1.0407,-0.8377,-0.4498,-0.086,-0.1773,-0.2458,-0.3584,-0.6763,-1.0133,-1.3717,-1.8118,-2.1995,-2.4909,-2.5473,-2.6374,-2.6782,-2.5726,-2.3857,-2.1085,-1.6638,-1.3682,-0.9873,-0.3795,-0.3751,-0.4912,-0.5763,-0.8061,-1.1376,-1.6273,-1.7042,-1.8309,-2.0962,-2.1071,-2.1015,-2.113,-2.2606,-2.48,-2.7513,-2.7744,-2.8105,-2.8769,-2.9211,-2.9638,-3.0158,-3.0614,-3.103,-3.1461,-3.0934,-3.0658,-3.0595,-3.0522,-3.0833,-3.1429,-3.2042,-3.2561,-3.3058,-3.3991,-3.4303,-3.4177,-3.5133,-3.5504,-3.5504,-3.5504,-3.5504,-3.5504,0.0,0.0,0.0,0.0,0.0,0.0,-2.3795,-2.4155,-2.4522,-2.4986,-2.4912,-2.5036,-2.5551,-2.5925,-2.5966,-2.5532,0.0,0.0,0.0,0.0,0.0,0.0,0.0,0.0,0.0,0.0,-2.5601,-2.6111,-2.6043,0.0,0.0,0.0,0.0,0.0,0.0,-2.5779,-2.5552,-2.5327,0.0,0.0,0.0,0.0,0.0,0.0,0.0,0.0,0.0,0.0,-2.1116,-1.7402,-1.5714,-1.4355,-0.974,-0.7345,-0.597,-0.494,-0.4651,-0.5333,-0.8467,-1.1887,-1.565,-1.9898,-2.281,-2.4963,-2.6162,-2.6307,-2.5987,-2.5283,-2.3761,-2.1236,-1.6916,-1.3793,-1.0275,-0.5417,-0.4639,-0.5041,-0.6151,-0.8192,-1.1024,-1.4721,-1.6201,-1.7947,-2.0194,-2.045,-2.082,-2.1383,-2.2599,-2.3961,-2.5538,-2.6334,-2.733,-2.8579,-2.8843,-2.9273,-3.0041,-3.0511,-3.0745,-3.0922,-3.0708,-3.0444,-3.0105,-3.0432,-3.0908,-3.1516,-3.2403,-3.3199,-3.3908,-3.4452,-3.4787,-3.492,-3.5359,-3.5504,-3.5504,-3.5504,-3.5504,-3.5504,0.0,0.0,0.0,0.0,0.0,-2.3911,-2.4424,-2.4594,-2.4818,-2.5261,-2.5048,-2.5196,-2.6117,-2.6505,-2.658,-2.6253,-2.5871,0.0,0.0,0.0,0.0,0.0,0.0,0.0,0.0,0.0,-2.6408,-2.7212,-2.6933,-2.7201,0.0,0.0,-2.744,-2.6528,0.0,0.0,0.0,0.0,0.0,0.0,0.0,0.0,0.0,0.0,0.0,0.0,0.0,0.0,0.0,0.0,0.0,-1.8062,-1.2913,-1.1422,-1.0857,-0.7676,-0.6713,-0.745,-1.0565,-1.4127,-1.805,-2.2235,-2.4508,-2.5965,-2.6889,-2.6666,-2.6013,-2.5175,-2.3658,-2.1259,-1.7239,-1.3919,-1.052,-0.6741,-0.5572,-0.5582,-0.6957,-0.8694,-1.0807,-1.3628,-1.5678,-1.7565,-1.9304,-2.0121,-2.0826,-2.1642,-2.2441,-2.3396,-2.4423,-2.5348,-2.6601,-2.8033,-2.8386,-2.897,-2.9733,-3.017,-3.0425,-3.0369,-3.0369,-3.0234,-3.0062,-3.062,-3.1206,-3.1809,-3.2832,-3.3701,-3.4414,-3.4735,-3.5148,-3.5504,-3.5504,-3.5504,-3.5504,-3.5504,-3.5504,-3.5504,0.0,0.0,0.0,0.0,0.0,0.0,-2.4657,-2.4746,-2.4779,-2.4707,-2.4707,-2.5154,-2.6351,-2.6612,-2.7103,-2.8086,-2.7254,0.0,0.0,0.0,0.0,0.0,0.0,0.0,0.0,0.0,-2.7391,-2.8193,-2.7265,-2.7256,-2.8102,-2.8027,-2.7497,-2.6603,0.0,0.0,0.0,0.0,0.0,0.0,0.0,0.0,0.0,0.0,0.0,0.0,0.0,0.0,0.0,0.0,0.0,0.0,0.0,-1.7634,-1.4834,-0.9656,-0.8575,-0.9826,-1.3207,-1.6995,-2.0989,-2.5179,-2.741,-2.8399,-2.7731,-2.7684,-2.7342,-2.5804,-2.3701,-2.1105,-1.7881,-1.4359,-1.0791,-0.7271,-0.6447,-0.6634,-0.8047,-0.9172,-1.0911,-1.3959,-1.5888,-1.7476,-1.883,-2.0196,-2.1177,-2.1651,-2.2176,-2.3212,-2.5115,-2.52,-2.5684,-2.6823,-2.7926,-2.8669,-2.9143,-2.9559,-2.9804,-2.9804,-2.9804,-3.0062,-3.0607,-3.1206,-3.1809,-3.2417,-3.3409,-3.3991,-3.4414,-3.4735,-3.5148,-3.5504,-3.5504,-3.5504,-3.5504,-3.5504,-3.5504,-3.5504,0.0,0.0,0.0,0.0,0.0,0.0,0.0,-2.4839,-2.4836,-2.4704,-2.4823,-2.5297,-2.6381,-2.7222,-2.7878,-2.8244,-2.7936,0.0,0.0,0.0,0.0,0.0,0.0,0.0,0.0,0.0,-2.8198,-2.8956,-2.8467,-2.8616,-2.9339,-2.9361,-2.8873,-2.7983,-2.8236,-2.7498,0.0,0.0,0.0,0.0,0.0,0.0,-2.5837,0.0,0.0,0.0,0.0,0.0,0.0,0.0,0.0,0.0,0.0,0.0,0.0,-1.2964,-1.1706,-1.2043,-1.5377,-1.8498,-2.1745,-2.5827,-2.6987,-2.7278,-2.799,-2.7193,-2.6078,-2.5305,-2.3364,-2.0731,-1.7123,-1.4308,-1.143,-0.8174,-0.7675,-0.8072,-0.9009,-1.0135,-1.1691,-1.38,-1.6635,-1.8737,-1.9828,-2.0896,-2.1553,-2.1731,-2.2862,-2.3897,-2.4509,-2.5359,-2.6517,-2.7914,-2.8339,-2.8828,-2.9546,-2.9714,-2.9792,-2.9792,-2.9792,-3.0062,-3.0607,-3.1489,-3.2245,-3.2917,-3.4031,-3.4587,-3.4735,-3.5148,-3.5359,-3.5504,-3.5504,-3.5504,-3.5504,-3.5504,-3.5504,-3.5504,0.0,0.0,0.0,0.0,0.0,0.0,0.0,-2.4977,-2.4948,-2.4898,-2.4991,-2.557,-2.6992,-2.7743,-2.8446,-2.9182,-2.9179,0.0,0.0,0.0,0.0,0.0,0.0,0.0,0.0,-2.8714,-2.9038,-2.9682,-2.9025,-2.8922,-2.9339,-2.9284,-2.883,-2.8076,-2.8371,-2.7714,0.0,0.0,0.0,0.0,0.0,0.0,-2.458,0.0,0.0,0.0,0.0,0.0,0.0,0.0,0.0,0.0,0.0,0.0,0.0,0.0,-1.4987,-1.546,-1.7766,-2.0511,-2.3472,-2.6786,-2.7398,-2.7332,-2.771,-2.6764,-2.5527,-2.4425,-2.2604,-2.0197,-1.6845,-1.4254,-1.1851,-0.9658,-0.9041,-0.9196,-1.0324,-1.108,-1.2457,-1.4783,-1.7067,-1.8933,-2.0391,-2.1284,-2.1731,-2.1909,-2.3135,-2.3993,-2.4594,-2.5359,-2.6693,-2.8431,-2.851,-2.8907,-2.9792,-2.9792,-2.9792,-2.9792,-2.9998,-3.0419,-3.0983,-3.2015,-3.2747,-3.3339,-3.4438,-3.4935,0.0,-3.5359,-3.5504,-3.5504,-3.5504,-3.5504,-3.5504,-3.5504,-3.5504,-3.5504,0.0,0.0,0.0,0.0,0.0,0.0,0.0,-2.5158,-2.5138,-2.5216,-2.5158,-2.589,-2.7964,-2.814,-2.8807,-3.0623,0.0,0.0,0.0,0.0,0.0,0.0,0.0,0.0,-2.9474,-2.9596,-2.9786,-3.0087,-2.8876,-2.8272,-2.8282,-2.7937,-2.7601,-2.7274,-2.7399,-2.6968,0.0,0.0,0.0,0.0,0.0,0.0,0.0,0.0,0.0,0.0,0.0,0.0,0.0,0.0,0.0,0.0,0.0,0.0,0.0,0.0,0.0,0.0,0.0,-2.2734,-2.5803,-2.7837,-2.8458,-2.8192,-2.6954,-2.6371,0.0,-2.3251,-2.1457,-1.9478,-1.6949,-1.419,-1.2022,-1.1392,-1.0383,-1.0329,-1.1919,-1.2062,-1.3149,-1.647,-1.7094,-1.8203,-2.0683,-2.1445,-2.1909,-2.2353,-2.296,-2.382,-2.5115,-2.5285,-2.6268,-2.8371,-2.845,-2.887,-2.9792,-2.9792,-2.9792,-2.9792,-3.033,-3.0908,-3.1589,-3.2618,-3.3339,-3.3908,-3.4654,-3.4935,-3.5001,-3.5359,-3.5504,-3.5504,-3.5504,-3.5504,-3.5504,-3.5504,-3.5504,-3.5619,0.0,0.0,0.0,0.0,0.0,0.0,0.0,0.0,0.0,0.0,-2.5335,-2.6025,-2.7852,-2.8001,-2.8655,0.0,0.0,0.0,0.0,0.0,0.0,0.0,0.0,0.0,-2.934,-2.9817,-2.9381,-2.8011,-2.7405,-2.7122,-2.7146,-2.6185,-2.6494,-2.7943,-2.7268,-2.6572,0.0,0.0,0.0,0.0,0.0,0.0,0.0,0.0,0.0,0.0,-1.6712,-1.6532,0.0,0.0,0.0,0.0,0.0,0.0,0.0,0.0,-1.9234,-2.1004,-2.0894,0.0,-2.5849,-2.771,-2.7954,-2.7339,0.0,-2.5098,-2.4295,-2.2133,-2.0225,-1.8456,-1.6824,-1.4634,-1.2798,-1.2009,-1.1462,-1.1415,-1.2016,-1.2411,-1.3596,-1.615,-1.6574,-1.7742,-2.0315,-2.1282,-2.1909,-2.2353,-2.382,-2.4861,-2.52,-2.6135,-2.7117,-2.7843,-2.7909,-2.8492,-2.9792,-2.9792,-2.9792,-2.9792,-3.033,-3.1057,-3.2015,-3.2946,-3.3865,-3.4654,-3.5148,-3.5359,-3.5359,-3.5439,-3.5504,-3.5504,-3.5504,-3.5504,-3.5504,-3.5504,-3.5748,-3.6022,0.0,0.0,0.0,0.0,0.0,0.0,0.0,0.0,0.0,0.0,0.0,-2.5913,-2.7295,-2.7651,0.0,0.0,0.0,0.0,0.0,0.0,0.0,0.0,0.0,-2.8347,-2.8786,-2.8372,-2.7401,-2.5932,-2.5371,-2.4927,-2.4547,-2.4587,-2.5247,-2.6401,-2.6348,-2.6094,0.0,0.0,0.0,0.0,-2.3272,0.0,0.0,0.0,0.0,0.0,-1.5434,-1.5332,0.0,-1.5205,-1.5401,-1.5665,0.0,0.0,0.0,0.0,-1.8915,-2.0717,-2.068,-2.2664,-2.4897,-2.5379,-2.547,-2.5002,-2.3591,-2.3068,-2.2365,-2.0544,-1.9062,-1.762,-1.6105,-1.4483,-1.3168,-1.248,-1.2165,-1.22,-1.262,-1.3245,-1.4372,-1.6483,-1.715,-1.8344,-2.0509,-2.1337,-2.1998,-2.2862,-2.4069,-2.4925,-2.5297,-2.6192,-2.685,-2.7356,-2.7496,-2.8022,-2.9013,-2.9013,-2.9164,-2.9389,-2.993,-3.069,-3.1611,-3.2588,-3.3419,-3.4065,-3.4763,-3.4861,-3.4607,-3.4906,-3.4861,-3.4607,-3.4921,-3.5153,-3.5374,-3.5676,-3.6148,-3.6554,0.0,0.0,0.0,0.0,0.0,0.0,0.0,0.0,0.0,0.0,0.0,0.0,0.0,0.0,0.0,0.0,0.0,0.0,0.0,0.0,0.0,0.0,-2.7919,-2.7501,-2.7198,-2.5675,-2.433,-2.326,-2.2755,-2.2221,-2.1769,-2.3095,-2.3932,-2.4385,-2.5465,-2.5738,0.0,0.0,-2.4796,-2.5112,-2.2983,0.0,0.0,0.0,0.0,0.0,0.0,0.0,0.0,-1.4316,-1.4375,-1.473,-1.4993,0.0,0.0,0.0,0.0,0.0,-1.9747,-2.1406,-2.3073,-2.2487,-2.2641,-2.2498,-2.1181,-2.0714,-2.0203,-1.8753,-1.7745,-1.6655,-1.5429,-1.4172,-1.3259,-1.291,-1.2706,-1.274,-1.3363,-1.4192,-1.5295,-1.6965,-1.7895,-1.9084,-2.0784,-2.1362,-2.2145,-2.3352,-2.3941,-2.4535,-2.5297,-2.5734,-2.6283,-2.6791,-2.7163,-2.7569,-2.799,-2.8167,-2.846,-2.8892,-2.9574,-3.031,-3.1121,-3.2069,-3.2723,-3.3096,-3.3958,-3.4008,-3.3544,-3.4098,-3.3993,-3.3559,-3.4113,-3.4619,-3.511,-3.5676,-3.623,-3.6789,0.0,0.0,0.0,0.0,0.0,0.0,0.0,0.0,0.0,0.0,0.0,0.0,0.0,0.0,0.0,0.0,0.0,0.0,0.0,0.0,0.0,-2.5925,-2.5342,-2.4314,-2.2663,-2.165,-2.0243,-1.8472,-1.9033,-1.993,-2.1066,-2.1774,-2.2932,-2.454,-2.5998,-2.5875,-2.4616,-2.4811,-2.4521,-2.3843,-2.3079,0.0,0.0,0.0,0.0,0.0,0.0,0.0,0.0,-1.444,-1.512,-1.5912,-1.6267,0.0,0.0,0.0,0.0,0.0,-1.825,-1.8802,-1.9867,-2.1468,-2.2197,-2.1942,-1.9468,-1.8891,-1.843,-1.6851,-1.5749,-1.5265,-1.5673,-1.4075,-1.2988,-1.3906,-1.3683,-1.3471,-1.3819,-1.4635,-1.5685,-1.6641,-1.7485,-1.8604,-2.0382,-2.11,-2.1855,-2.2786,-2.3987,-2.4686,-2.4768,-2.5707,-2.6252,-2.62,-2.653,-2.693,-2.7365,-2.8331,-2.8821,-2.8892,-2.9937,-3.0813,-3.1519,-3.2198,-3.2849,-3.3438,-3.3604,-3.3589,-3.3499,-3.3604,-3.3589,-3.3499,-3.3604,-3.3925,-3.4256,-3.4363,-3.4984,-3.5879,0.0,0.0,0.0,0.0,0.0,0.0,0.0,0.0,0.0,0.0,0.0,0.0,0.0,0.0,0.0,0.0,0.0,0.0,0.0,0.0,-2.6048,-2.3743,-2.1778,-2.0436,-1.9819,-1.8086,-1.6784,-1.6057,-1.6629,-1.7838,-1.9711,-2.1756,-2.3396,-2.4599,-2.5745,-2.5744,-2.4911,-2.54,-2.5169,-2.4374,0.0,0.0,0.0,0.0,0.0,0.0,0.0,0.0,0.0,0.0,-1.4049,-1.4328,-1.5321,0.0,0.0,0.0,0.0,0.0,-1.6465,-1.6869,-1.7668,-1.8035,-1.9059,-1.9545,-1.7962,-1.7647,-1.7432,-1.6657,-1.6049,-1.5754,-1.5906,-1.4819,-1.4002,-1.3891,-1.3636,-1.3721,-1.4447,-1.5312,-1.6349,-1.7389,-1.8169,-1.8986,-2.0032,-2.0597,-2.1462,-2.2666,-2.3658,-2.4437,-2.4932,-2.5487,-2.56,-2.5288,-2.5723,-2.6108,-2.6259,-2.7367,-2.8212,-2.8825,-2.9572,-3.0289,-3.1051,-3.1486,-3.1928,-3.2452,-3.2811,-3.2766,-3.2467,-3.2826,-3.2766,-3.2467,-3.3125,-3.3584,-3.4079,-3.4965,-3.557,-3.6033,0.0,0.0,0.0,0.0,0.0,0.0,0.0,0.0,0.0,0.0,0.0,0.0,0.0,0.0,0.0,0.0,0.0,0.0,0.0,0.0,-2.4514,-2.1743,-1.8634,-1.699,-1.7077,-1.4681,-1.3611,-1.4083,-1.4888,-1.6824,-1.98,-2.2671,-2.4396,-2.5117,-2.58,-2.5946,-2.5685,-2.5991,-2.5785,-2.5179,0.0,0.0,0.0,0.0,0.0,0.0,0.0,0.0,0.0,0.0,0.0,0.0,0.0,0.0,0.0,-1.5521,-1.6178,-1.6528,-1.5184,-1.5604,-1.612,-1.5213,-1.6019,-1.699,-1.6724,-1.6492,-1.6531,-1.6852,-1.668,-1.6484,-1.6323,-1.5777,-1.4924,-1.3843,-1.3727,-1.413,-1.5119,-1.6119,-1.7148,-1.804,-1.8742,-1.9253,-1.9587,-2.019,-2.1002,-2.2241,-2.3099,-2.3902,-2.4696,-2.485,-2.4783,-2.4418,-2.5113,-2.5534,-2.5673,-2.6587,-2.7475,-2.8379,-2.8907,-2.9596,-3.0409,-3.0733,-3.1102,-3.1497,-3.1898,-3.1854,-3.1569,-3.203,-3.197,-3.1742,-3.2756,-3.3392,-3.3983,-3.531,-3.5898,-3.608,0.0,0.0,0.0,0.0,0.0,0.0,0.0,0.0,0.0,0.0,0.0,0.0,0.0,0.0,0.0,0.0,0.0,0.0,0.0,0.0,-2.3065,-2.0019,-1.6927,-1.4725,-1.3517,-1.1298,-1.062,-1.1564,-1.3731,-1.7597,-2.3075,-2.4597,-2.5682,-2.6465,-2.6839,-2.6912,-2.6749,-2.6287,-2.5932,-2.5516,-2.381,0.0,0.0,0.0,0.0,0.0,0.0,0.0,0.0,0.0,0.0,0.0,0.0,0.0,-1.66,-1.6308,-1.6507,-1.6483,-1.5013,-1.5151,-1.5497,-1.4661,-1.4813,-1.5271,-1.5734,-1.5311,-1.5276,-1.6733,-1.681,-1.6733,-1.7379,-1.6399,-1.5246,-1.4333,-1.4478,-1.4949,-1.5785,-1.7139,-1.8013,-1.8088,-1.8422,-1.8824,-1.9199,-1.9947,-2.0579,-2.1068,-2.2165,-2.2926,-2.3311,-2.3668,-2.3966,-2.4181,-2.5039,-2.5722,-2.6233,-2.6769,-2.7051,-2.7146,-2.8223,-2.9092,-2.9668,-3.0351,-3.094,-3.1437,-3.0911,-3.0986,-3.1495,-3.1359,-3.1616,-3.2191,-3.2648,-3.3112,-3.3582,-3.4094,-3.4683,-3.5318,0.0,0.0,0.0,0.0,0.0,0.0,0.0,0.0,0.0,0.0,0.0,0.0,0.0,0.0,0.0,0.0,0.0,0.0,0.0,-2.4752,-2.2992,-2.0412,-1.7433,-1.5054,-1.3527,-1.0795,-1.0262,-1.1925,-1.623,-2.0096,-2.3505,-2.523,-2.6364,-2.7005,-2.7585,-2.7718,-2.7507,-2.7181,-2.6485,-2.5484,-2.383,-2.242,0.0,0.0,0.0,0.0,0.0,0.0,0.0,0.0,-1.4307,-1.4616,-1.584,-1.6066,-1.5903,-1.5859,-1.5958,-1.5838,-1.4832,-1.5031,-1.527,-1.4551,-1.4565,-1.4832,-1.5227,-1.5583,-1.6094,-1.6836,-1.7779,-1.8445,-1.836,-1.7108,-1.5873,-1.4935,-1.523,-1.5685,-1.612,-1.7257,-1.8216,-1.8431,-1.8311,-1.8414,-1.8825,-1.9295,-1.997,-2.0917,-2.184,-2.2353,-2.2263,-2.2858,-2.3123,-2.3044,-2.387,-2.4368,-2.4529,-2.5329,-2.5744,-2.5758,-2.7783,-2.88,-2.9101,-3.0072,-3.0446,-3.0328,-3.0447,-3.0657,-3.0866,-3.1125,-3.1595,-3.2247,-3.2942,-3.3471,-3.3899,-3.425,-3.4529,-3.4807,0.0,0.0,0.0,0.0,0.0,0.0,0.0,0.0,0.0,0.0,0.0,0.0,0.0,0.0,0.0,0.0,0.0,0.0,-2.5259,-2.4409,-2.3039,-2.1077,-1.8226,-1.5933,-1.4447,-1.2035,-1.1511,-1.3012,-1.8225,-2.1901,-2.4144,-2.5342,-2.6467,-2.7505,-2.781,-2.7985,-2.7993,-2.7264,-2.632,-2.516,-2.326,-2.1732,0.0,0.0,0.0,0.0,0.0,0.0,0.0,0.0,-1.4003,-1.4146,-1.5281,-1.5395,-1.5083,-1.528,-1.5576,-1.5679,-1.4881,-1.5,-1.5312,-1.4981,-1.4675,-1.4627,-1.5488,-1.6046,-1.6606,-1.7588,-1.8866,-1.9749,-1.9273,-1.7697,-1.6366,-1.5894,-1.5951,-1.619,-1.6608,-1.7612,-1.8405,-1.837,-1.8327,-1.8362,-1.8667,-1.9049,-1.9716,-2.0748,-2.1297,-2.1609,-2.1475,-2.191,-2.2152,-2.209,-2.2923,-2.3353,-2.3398,-2.4267,-2.4737,-2.4841,-2.6827,-2.7984,-2.8446,-2.9578,-2.9858,-2.9594,-2.9898,-3.0162,-3.0383,-3.0791,-3.143,-3.2211,-3.3022,-3.3526,-3.3794,-3.3794,-3.4104,-3.4561,0.0,0.0,0.0,0.0,0.0,0.0,0.0,0.0,0.0,0.0,0.0,0.0,0.0,0.0,0.0,0.0,0.0,0.0,-2.5091,-2.421,-2.3098,-2.1685,-1.905,-1.7151,-1.6033,-1.4853,-1.4363,-1.4521,-1.8959,-2.2565,-2.5383,-2.505,-2.6046,-2.8053,-2.7449,-2.7592,-2.8175,-2.636,-2.5239,-2.4481,-2.1916,-2.0506,-1.9657,0.0,0.0,0.0,0.0,0.0,0.0,0.0,-1.4003,-1.3949,-1.468,-1.4639,-1.4364,-1.4625,-1.5458,-1.6045,-1.4994,-1.501,-1.5521,-1.5853,-1.5049,-1.4638,-1.6714,-1.6458,-1.6557,-1.9123,-1.996,-2.0283,-2.0167,-1.8105,-1.6667,-1.7011,-1.6455,-1.6338,-1.7363,-1.8305,-1.8637,-1.8091,-1.838,-1.8751,-1.8823,-1.9282,-1.9781,-2.0324,-2.0427,-2.0523,-2.0864,-2.0734,-2.0962,-2.1678,-2.2389,-2.299,-2.3371,-2.3849,-2.419,-2.4412,-2.5358,-2.6431,-2.7733,-2.8679,-2.9262,-2.9574,-2.9234,-2.9501,-3.0118,-3.0336,-3.1021,-3.2077,-3.2789,-3.308,-3.3032,-3.2504,-3.3236,-3.4463,0.0,0.0,0.0,0.0,0.0,0.0,0.0,0.0,0.0,0.0,0.0,0.0,0.0,0.0,0.0,0.0,0.0,0.0,-2.4751,-2.4719,-2.4096,-2.2804,-2.1153,-1.9613,-1.815,-1.8315,-1.8139,-1.7611,-2.0653,-2.305,-2.4783,-2.5393,-2.6241,-2.7232,-2.6864,-2.705,-2.7465,-2.5664,-2.4505,-2.3616,-2.1191,-1.9728,-1.876,0.0,0.0,0.0,0.0,0.0,0.0,0.0,0.0,0.0,-1.4595,-1.4797,-1.4909,-1.3992,-1.425,-1.4775,-1.4287,-1.4493,-1.498,-1.5476,-1.5631,-1.5561,-1.5688,-1.602,-1.717,-2.003,-2.0491,-2.0332,-2.0257,-1.9254,-1.8183,-1.7274,-1.7335,-1.7343,-1.6982,-1.7674,-1.8195,-1.8001,-1.7879,-1.8115,-1.8773,-1.8724,-1.9028,-1.9794,-2.0087,-2.017,-2.0067,-2.0839,-2.1268,-2.1184,-2.2041,-2.2524,-2.2554,-2.3119,-2.3526,-2.3783,-2.4659,-2.5646,-2.6711,-2.8091,-2.8726,-2.8647,-2.8976,-2.9392,-2.9859,-3.0684,-3.1438,-3.2028,-3.2238,-3.2336,-3.2351,-3.2508,-3.2871,-3.3264,0.0,0.0,0.0,0.0,0.0,0.0,0.0,0.0,0.0,0.0,0.0,0.0,0.0,0.0,0.0,0.0,0.0,0.0,0.0,-2.4655,-2.4379,-2.3593,-2.2423,-2.1198,-1.9844,-2.0735,-2.0971,-2.0457,-2.2166,-2.3589,-2.4721,-2.5084,-2.5552,-2.5985,-2.6219,-2.6296,-2.6224,-2.4906,-2.3643,-2.2394,-2.0332,-1.8678,-1.7296,0.0,0.0,0.0,0.0,0.0,0.0,0.0,0.0,0.0,-1.4405,-1.467,-1.4819,-1.4259,-1.456,-1.51,-1.4907,-1.5284,-1.5747,-1.6194,-1.6387,-1.6315,-1.6087,-1.6672,-1.812,-2.0916,-2.0947,-2.0457,-2.0863,-1.9694,-1.8456,-1.7846,-1.7726,-1.7588,-1.7294,-1.7674,-1.7944,-1.7786,-1.7741,-1.7959,-1.8522,-1.8541,-1.8905,-1.9715,-1.9796,-1.9767,-1.9701,-2.0511,-2.0809,-2.0479,-2.1299,-2.1663,-2.1482,-2.2151,-2.2634,-2.2939,-2.4195,-2.5124,-2.5777,-2.7048,-2.7516,-2.7407,-2.8338,-2.8967,-2.9437,-3.064,-3.1148,-3.1186,-3.1461,-3.1621,-3.1727,-3.1803,-3.2226,-3.2823,0.0,0.0,0.0,0.0,0.0,0.0,0.0,0.0,0.0,0.0,0.0,0.0,0.0,0.0,0.0,0.0,0.0,0.0,0.0,0.0,-2.4135,-2.4197,-2.3155,-2.2152,-2.1286,-2.2384,-2.2941,-2.2941,-2.3424,-2.4104,-2.4906,-2.4496,-2.4408,-2.4658,-2.5478,-2.5461,-2.4762,-2.4044,-2.2761,-2.1097,-1.9473,-1.7604,-1.5789,-1.5714,0.0,0.0,0.0,0.0,0.0,0.0,0.0,0.0,-1.4249,-1.4579,-1.4648,-1.5171,-1.5813,-1.6334,-1.6416,-1.6715,-1.7139,-1.7572,-1.7175,-1.6852,-1.7514,-1.8033,-1.9007,-2.1674,-2.1273,-2.0736,-2.1627,-1.9574,-1.8006,-1.8496,-1.7775,-1.7287,-1.7824,-1.7884,-1.7745,-1.7375,-1.7708,-1.8006,-1.8171,-1.8583,-1.9149,-1.9924,-1.9535,-1.9385,-1.9528,-1.9858,-1.9924,-1.9708,-2.0354,-2.0564,-2.04,-2.1154,-2.1672,-2.1959,-2.3701,-2.4622,-2.4869,-2.5725,-2.6168,-2.6289,-2.7595,-2.8377,-2.879,-3.0101,-3.0247,-2.9789,-3.0457,-3.0868,-3.1024,-3.0615,-3.1482,-3.273,0.0,0.0,0.0,0.0,0.0,0.0,0.0,0.0,0.0,0.0,0.0,0.0,0.0,0.0,0.0,0.0,0.0,0.0,0.0,0.0,-2.4616,-2.4884,-2.4131,-2.3413,-2.2709,-2.3588,-2.3971,-2.384,-2.4163,-2.433,-2.4377,-2.4728,-2.4863,-2.4761,-2.4688,-2.4788,-2.4936,-2.3178,-2.2002,-2.1179,-1.9307,-1.7767,-1.6578,-1.6021,-1.5002,0.0,0.0,0.0,0.0,0.0,0.0,0.0,-1.4849,-1.5731,-1.6599,-1.6168,-1.6244,-1.6495,-1.6778,-1.6235,-1.5983,-1.7612,-1.7527,-1.7229,-1.8218,-1.8357,-1.8693,-2.0192,-2.0752,-2.109,-2.1259,-2.0289,-1.9256,-1.8822,-1.823,-1.7678,-1.7366,-1.7083,-1.698,-1.6883,-1.7276,-1.774,-1.8139,-1.8445,-1.8646,-1.8826,-1.9186,-1.916,-1.8621,-1.9533,-1.998,-1.9759,-2.0219,-2.044,-2.04,-2.0713,-2.1122,-2.1562,-2.2113,-2.261,-2.315,-2.5443,-2.6673,-2.6965,-2.7576,-2.7849,-2.7964,-2.8271,-2.8304,-2.8239,-2.8968,-2.9286,-2.942,-3.0194,-3.0709,-3.1083,0.0,0.0,0.0,0.0,0.0,0.0,0.0,0.0,0.0,0.0,0.0,0.0,0.0,0.0,0.0,0.0,0.0,0.0,0.0,0.0,-2.4341,-2.5083,-2.4777,-2.4529,-2.4368,-2.4703,-2.4895,-2.4915,-2.5177,-2.4996,-2.4364,-2.4691,-2.4533,-2.399,-2.451,-2.4611,-2.4296,-2.3065,-2.2212,-2.1502,-1.9451,-1.7969,-1.691,-1.6277,-1.5252,-1.4178,-1.3824,0.0,0.0,0.0,0.0,0.0,0.0,0.0,-1.8232,-1.7866,-1.7704,-1.7621,-1.7754,-1.7497,-1.7424,-1.8417,-1.7844,-1.7375,-1.8451,-1.8745,-1.9036,-1.9775,-2.0434,-2.0895,-2.0938,-2.0222,-1.9335,-1.8637,-1.8081,-1.7541,-1.6996,-1.6841,-1.6707,-1.6548,-1.6967,-1.7313,-1.749,-1.7759,-1.8061,-1.8326,-1.8519,-1.8684,-1.8802,-1.9403,-1.9624,-1.9312,-1.981,-1.9948,-1.965,-2.0367,-2.0872,-2.1132,-2.1934,-2.2555,-2.3036,-2.4634,-2.5575,-2.5942,-2.6848,-2.7219,-2.7251,-2.7575,-2.7705,-2.7753,-2.8233,-2.8461,-2.8706,-2.9715,-3.0262,-3.0588,0.0,0.0,0.0,0.0,0.0,0.0,0.0,0.0,0.0,0.0,0.0,0.0,0.0,0.0,0.0,0.0,0.0,0.0,0.0,0.0,0.0,-2.5146,-2.531,-2.5558,-2.5958,-2.5774,-2.5772,-2.5979,-2.6043,-2.5589,-2.4661,-2.4717,-2.4209,-2.3359,-2.4458,-2.4493,-2.3615,-2.3213,-2.2625,-2.1783,-1.9902,-1.8385,-1.7151,-1.6685,-1.571,-1.4599,-1.4303,-1.401,-1.3785,-1.3619,0.0,0.0,0.0,0.0,-1.9851,-1.9794,-1.9488,-1.9175,-1.9101,-1.9232,-1.9382,-1.9281,-1.8357,-1.761,-1.8603,-1.9073,-1.946,-1.9863,-2.0207,-2.055,-2.0672,-1.9936,-1.9101,-1.8448,-1.7777,-1.7238,-1.6868,-1.6648,-1.6516,-1.6476,-1.6774,-1.6894,-1.6708,-1.7095,-1.7533,-1.7941,-1.7966,-1.8286,-1.9021,-1.9163,-1.9121,-1.8796,-1.926,-1.9312,-1.8874,-2.0027,-2.0647,-2.0721,-2.2055,-2.2849,-2.3122,-2.3519,-2.3939,-2.4385,-2.5616,-2.6199,-2.6361,-2.6927,-2.7219,-2.7348,-2.7702,-2.7892,-2.8169,-2.9209,-2.9875,-3.0328,0.0,0.0,0.0,0.0,0.0,0.0,0.0,0.0,0.0,0.0,0.0,0.0,0.0,0.0,0.0,0.0,0.0,0.0,-2.236,0.0,0.0,-2.5183,-2.6041,-2.6647,-2.6983,-2.6798,-2.6727,-2.6765,-2.5918,-2.5449,-2.5277,-2.5277,-2.4885,-2.4122,-2.4044,-2.3906,-2.3734,-2.3195,-2.2427,-2.1548,-2.0692,-1.9377,-1.7976,-1.755,-1.6666,-1.568,-1.567,-1.523,-1.4599,-1.5035,-1.6398,0.0,0.0,0.0,-2.1536,-2.1433,-2.1002,-2.0677,-2.0876,-2.0466,-1.9941,-1.9516,-1.9229,-1.9054,-1.9222,-1.9548,-1.9863,-1.9863,-2.0293,-2.0585,-2.0672,-2.0303,-1.9707,-1.8893,-1.8019,-1.7369,-1.7171,-1.6208,-1.5907,-1.6633,-1.6501,-1.6428,-1.6662,-1.7314,-1.7566,-1.7088,-1.8028,-1.8318,-1.7765,-1.8537,-1.8919,-1.8811,-1.8874,-1.8946,-1.9064,-1.9641,-2.0066,-2.0277,-2.1148,-2.1536,-2.1633,-2.2312,-2.2991,-2.3659,-2.3854,-2.4275,-2.479,-2.4887,-2.5308,-2.5956,-2.6755,-2.706,-2.7257,-2.8589,-2.9151,-2.9276,0.0,0.0,0.0,0.0,0.0,0.0,0.0,0.0,0.0,0.0,0.0,0.0,0.0,0.0,0.0,-1.9846,-2.0642,-2.1546,-2.2589,-2.403,-2.5241,-2.6058,-2.667,-2.7354,-2.8088,-2.7856,-2.7514,-2.7123,-2.6623,-2.5929,-2.5096,-2.4816,-2.4542,-2.4261,-2.3921,-2.3701,-2.3656,-2.3087,-2.245,-2.1792,-2.1138,-2.0259,-1.9296,-1.8335,-1.7664,-1.7217,-1.681,-1.6347,-1.6049,-1.6668,-1.8036,-1.9698,-2.0363,0.0,0.0,0.0,-2.2547,-2.2049,-2.126,-2.0512,-1.9889,-1.985,-1.9373,-1.9026,-1.9256,-1.9618,-1.9863,-1.9863,-2.0566,-2.105,-2.0855,-2.0411,-1.9908,-1.9381,-1.8616,-1.8009,-1.767,-1.7037,-1.6677,-1.6922,-1.676,-1.6574,-1.658,-1.6888,-1.697,-1.6709,-1.7174,-1.7421,-1.7334,-1.7932,-1.8358,-1.8514,-1.8898,-1.9176,-1.9265,-1.9889,-2.0395,-2.0828,-2.1151,-2.1309,-2.1294,-2.1649,-2.2183,-2.2896,-2.3335,-2.3691,-2.3948,-2.4337,-2.4677,-2.5086,-2.6118,-2.6564,-2.6847,-2.8081,-2.8733,-2.9084,0.0,0.0,0.0,0.0,0.0,0.0,0.0,0.0,0.0,0.0,0.0,0.0,0.0,0.0,0.0,0.0,-2.0515,-2.168,-2.3598,-2.4565,-2.5716,-2.7142,-2.7275,-2.7849,-2.9032,-2.881,-2.8301,-2.7553,-2.7276,-2.6374,-2.4948,-2.4318,-2.3906,-2.3767,-2.3405,-2.3301,-2.3336,-2.2879,-2.2431,-2.1972,-2.1624,-2.1093,-2.0339,-1.9393,-1.9012,-1.9004,-1.817,-1.785,-1.7804,-1.8183,-1.9626,-2.1339,-2.1857,-2.3485,0.0,0.0,0.0,-2.3202,-2.1744,-2.0859,-2.0328,-2.0411,-1.9821,-1.9316,-1.9618,-2.0012,-2.0333,-2.0333,-2.0941,-2.1447,-2.1289,-2.0846,-2.0382,-2.0046,-1.9338,-1.8729,-1.8427,-1.7832,-1.7431,-1.7375,-1.7032,-1.674,-1.6516,-1.6522,-1.6522,-1.6522,-1.6675,-1.6888,-1.7199,-1.776,-1.8202,-1.85,-1.9101,-1.9413,-1.9487,-2.015,-2.0761,-2.1309,-2.1309,-2.1309,-2.1309,-2.1309,-2.1616,-2.2151,-2.2685,-2.3059,-2.327,-2.3754,-2.4097,-2.4379,-2.5357,-2.5966,-2.642,-2.7429,-2.8188,-2.877,0.0,0.0,0.0,0.0,0.0,0.0,0.0,0.0,0.0,0.0,0.0,0.0,-1.9932,-1.9847,-1.9724,-1.962,-2.1421,-2.3535,-2.5879,-2.5465,-2.6019,-2.8144,-2.7811,0.0,-2.9821,-2.9691,-2.916,-2.8252,-2.7503,-2.6444,-2.5166,-2.4179,-2.326,-2.2406,-2.2203,-2.2365,-2.2831,-2.2458,-2.2242,-2.2091,-2.2206,-2.1732,-2.0935,-2.0951,-2.0962,-2.086,-2.0302,-2.0157,-2.0085,-1.9649,-2.0915,-2.2546,-2.2286,-2.362,-2.5226,0.0,0.0,0.0,-2.275,-2.2278,-2.1955,-2.153,-2.1009,-2.0575,-2.0606,-2.1035,-2.1436,-2.1436,-2.151,-2.1696,-2.2181,-2.1965,-2.1486,-2.0742,-1.9893,-1.9389,-1.9495,-1.8227,-1.7508,-1.8062,-1.718,-1.6504,-1.6522,-1.6522,-1.6522,-1.6522,-1.7093,-1.7374,-1.7192,-1.8245,-1.8906,-1.9064,-1.9302,-1.9487,-1.969,-2.0254,-2.0761,-2.1309,-2.1309,-2.1309,-2.1309,-2.1309,-2.1341,-2.1374,-2.1406,-2.1811,-2.2458,-2.2491,-2.2996,-2.3801,-2.4213,-2.4936,-2.5817,-2.651,-2.7261,-2.7917,0.0,0.0,0.0,0.0,0.0,0.0,0.0,0.0,0.0,0.0,0.0,0.0,0.0,-1.9774,-2.0067,-2.07,-2.2592,-2.4359,-2.5834,-2.6072,-2.6835,-2.8421,-2.8698,-2.9376,-3.051,-3.0656,-3.0263,-2.9331,-2.8486,-2.7175,-2.5478,-2.4431,-2.3447,-2.2509,-2.2338,-2.2355,-2.2473,-2.2349,-2.1892,-2.1263,-2.1248,-2.1156,-2.1021,-2.0739,-2.1421,-2.2429,-2.164,-2.1315,-2.1333,-2.1496,-2.2315,-2.3276,-2.3705,-2.4573,-2.5455,-2.5095,-2.4244,-2.3283,-2.2893,-2.1898,-2.0967,-2.0971,-2.0839,-2.0779,-2.1016,-2.1511,-2.1946,-2.2056,-2.2414,-2.2666,-2.2594,-2.2071,-2.1618,-2.1658,-2.1248,-2.0828,-2.0528,-1.9576,-1.8846,-1.872,-1.7752,-1.7074,-1.7074,-1.6735,-1.6595,-1.6795,-1.7044,-1.7253,-1.7381,-1.8242,-1.874,-1.8784,-1.9325,-1.9797,-2.0204,-2.0712,-2.1151,-2.1481,-2.1481,-2.1481,-2.1481,-2.1356,-2.1309,-2.1309,-2.1309,-2.1471,-2.173,-2.2199,-2.2573,-2.2997,-2.4299,-2.5192,-2.5877,-2.6857,-2.7578,-2.8053,0.0,0.0,0.0,0.0,0.0,0.0,0.0,0.0,0.0,-1.6721,0.0,0.0,0.0,0.0,-2.06,-2.2287,-2.3985,-2.5493,-2.6719,-2.7125,-2.7885,-2.9091,-2.9779,-3.0527,-3.1268,-3.1652,-3.1334,-3.0362,-2.9269,-2.7762,-2.5898,-2.4745,-2.3724,-2.2804,-2.2469,-2.2219,-2.1995,-2.1753,-2.1327,-2.0668,-2.0741,-2.1186,-2.1725,-2.1659,-2.268,-2.4048,-2.3217,-2.2983,-2.3089,-2.2946,-2.3646,-2.4507,-2.4558,-2.5025,-2.5507,-2.4894,-2.4024,-2.3245,-2.3157,-2.2059,-2.1064,-2.107,-2.1225,-2.1352,-2.1273,-2.1996,-2.2612,-2.2635,-2.3072,-2.3477,-2.3372,-2.287,-2.2561,-2.2702,-2.2365,-2.1985,-2.1908,-2.0934,-2.0079,-1.9733,-1.8742,-1.8061,-1.8061,-1.7244,-1.6824,-1.7067,-1.7334,-1.761,-1.7828,-1.8411,-1.886,-1.9109,-1.9675,-2.017,-2.0646,-2.1007,-2.1309,-2.1481,-2.1589,-2.1559,-2.1481,-2.1356,-2.1309,-2.1309,-2.1309,-2.1309,-2.1357,-2.1907,-2.2166,-2.2344,-2.3666,-2.4608,-2.535,-2.6167,-2.7025,-2.7817,0.0,0.0,0.0,0.0,0.0,0.0,0.0,0.0,-1.6331,-1.7943,0.0,0.0,0.0,0.0,0.0,-2.4257,-2.5684,-2.7085,-2.8654,-2.8729,-2.9162,-3.0222,-3.1049,-3.1686,-3.2117,-3.261,-3.2351,-3.1334,-2.981,-2.816,-2.6326,-2.5123,-2.4139,-2.33,-2.255,-2.1928,-2.1331,-2.0742,-2.0533,-2.0511,-2.0715,-2.1736,-2.3111,-2.3732,-2.4714,-2.567,-2.513,-2.5245,-2.5413,-2.3976,-2.4883,-2.631,-2.4805,-2.4877,-2.5342,-2.4327,-2.4069,-2.3974,0.0,0.0,0.0,-2.1947,-2.2274,-2.2488,-2.1469,-2.2558,-2.3561,-2.3163,-2.352,-2.4018,-2.432,-2.4477,-2.4368,-2.3917,-2.3148,-2.2845,-2.3575,-2.2243,-2.1149,-2.1109,-2.0141,-1.9431,-1.9418,-1.8087,-1.7282,-1.7256,-1.8044,-1.853,-1.8516,-1.8922,-1.942,-2.01,-2.0392,-2.0646,-2.0893,-2.1103,-2.1246,-2.1309,-2.1511,-2.1497,-2.1325,-2.1309,-2.1309,-2.1309,-2.1309,-2.1309,-2.1325,-2.1511,-2.1664,-2.1811,-2.2169,-2.3017,-2.4094,-2.4356,-2.5516,-2.6996,0.0,0.0,0.0,0.0,0.0,-1.4843,-1.5743,-1.677,-1.8066,0.0,0.0,0.0,-2.1316,-2.2065,-2.3162,-2.4709,-2.6439,-2.8126,-2.9724,-3.0337,-3.0953,-3.1667,-3.2293,-3.2773,-3.3109,-3.3396,-3.3139,-3.2312,-3.1367,-2.9817,-2.7811,-2.6719,-2.5392,-2.3844,-2.3151,-2.2223,-2.1174,-2.0808,-2.0483,-2.0198,-1.9866,-2.0866,-2.2635,-2.2797,-2.4525,-2.6632,-2.6118,-2.647,-2.6988,-2.6268,-2.6291,-2.6381,-2.5034,-2.4682,-2.4768,-2.4423,-2.4075,-2.3876,-2.4222,0.0,0.0,0.0,0.0,0.0,-2.2763,-2.3356,-2.4076,-2.4359,-2.4511,-2.4577,-2.4675,-2.5002,-2.527,-2.5118,-2.4606,-2.4182,-2.3987,-2.342,-2.2657,-2.1789,-2.1042,-2.0441,-2.0014,-1.9256,-1.8702,-1.8461,-1.8797,-1.8929,-1.8729,-1.9273,-1.9839,-2.0392,-2.0646,-2.0893,-2.1119,-2.1371,-2.1542,-2.1661,-2.1603,-2.1589,-2.1511,-2.1388,-2.1309,-2.1309,-2.1309,-2.1309,-2.1309,-2.1356,-2.1402,-2.1513,-2.2299,-2.2979,-2.3693,-2.5109,-2.6128,-2.6907,0.0,0.0,0.0,0.0,0.0,-1.6111,-1.7013,-1.8344,-1.9708,0.0,0.0,0.0,-2.1804,-2.317,-2.4505,-2.5615,-2.7108,-2.8641,-3.0191,-3.1094,-3.1742,-3.2272,-3.3238,-3.3795,-3.3956,-3.4165,-3.4082,-3.3676,-3.2071,-3.0449,-2.8822,-2.732,-2.5879,-2.4493,-2.3641,-2.2698,-2.1758,-2.1094,-2.0518,-2.0082,-2.0137,-2.1302,-2.3053,-2.3541,-2.5303,-2.7408,-2.7058,-2.7389,-2.7876,-2.7408,-2.6943,-2.6422,-2.5369,-2.5004,-2.4784,-2.4345,-2.3983,-2.3819,-2.4436,-2.366,-2.2731,-2.2731,0.0,0.0,-2.3288,-2.4053,-2.4925,-2.5058,-2.5258,-2.5413,-2.5415,-2.5911,-2.6217,-2.6056,-2.5823,-2.552,-2.5224,-2.472,-2.4145,-2.3417,-2.2691,-2.209,-2.1635,-2.0913,-2.0424,-2.0218,-2.0048,-1.9881,-1.9637,-2.01,-2.0466,-2.0646,-2.0828,-2.0958,-2.1071,-2.1309,-2.1433,-2.1448,-2.1542,-2.1559,-2.1481,-2.1356,-2.1309,-2.1309,-2.1309,-2.1309,-2.1309,-2.1309,-2.1356,-2.1499,-2.2094,-2.2715,-2.3397,-2.4677,-2.5767,-2.6679,0.0,0.0,-2.1125,-1.8757,-1.7608,-1.7304,-1.8212,-1.989,-2.1333,0.0,-2.2331,-2.2433,-2.2409,-2.4097,-2.5678,-2.685,-2.7924,-2.9094,-3.0387,-3.1363,-3.2079,-3.2425,-3.3868,-3.4643,-3.4643,-3.4908,-3.5042,-3.4939,-3.2469,-3.0716,-2.9661,-2.7592,-2.618,-2.5272,-2.4116,-2.3318,-2.2822,-2.162,-2.0744,-2.0295,-2.116,-2.2486,-2.3981,-2.5123,-2.6603,-2.7983,-2.803,-2.821,-2.8393,-2.794,-2.7262,-2.6574,-2.5794,-2.5445,-2.5196,-2.4093,-2.38,-2.3941,-2.4329,-2.3781,-2.302,-2.3059,-2.3738,0.0,-2.3267,-2.4443,-2.5638,-2.5229,-2.5729,-2.6231,-2.6133,-2.664,-2.6975,-2.6672,-2.662,-2.6649,-2.6669,-2.5997,-2.5469,-2.55,-2.4693,-2.3989,-2.364,-2.2786,-2.2178,-2.2004,-2.1478,-2.1108,-2.1001,-2.114,-2.1159,-2.1037,-2.0941,-2.0893,-2.0861,-2.0991,-2.1039,-2.0893,-2.1309,-2.1419,-2.1246,-2.1294,-2.1277,-2.1246,-2.1294,-2.1309,-2.1309,-2.1309,-2.1419,-2.1589,-2.1708,-2.2269,-2.3106,-2.371,-2.4906,-2.6335,0.0,-2.4888,-2.2578,-2.0497,-1.9411,-1.9175,-2.0038,-2.1165,-2.2583,-2.4246,-2.4885,-2.5143,-2.5087,-2.6145,-2.7354,-2.8438,-2.9368,-3.0428,-3.1662,-3.2656,-3.3192,-3.3278,-3.4282,-3.4855,-3.4855,-3.5251,-3.5213,-3.4593,-3.3842,-3.2677,-3.109,-2.9974,-2.8502,-2.6734,-2.5432,-2.4392,-2.3394,-2.2056,-2.1671,-2.1834,-2.1678,-2.2704,-2.4498,-2.5661,-2.7025,-2.8447,-2.8761,-2.9147,-2.9337,-2.835,-2.7601,-2.6911,-2.5428,-2.5217,-2.5328,-2.4041,-2.4238,-2.4805,-2.4329,-2.3749,-2.3339,-2.3298,-2.3568,0.0,-2.3621,-2.4229,-2.485,-2.4889,-2.5279,-2.5553,-2.5164,-2.5745,-2.6329,-2.6297,-2.63,-2.636,-2.6663,-2.6357,-2.6121,-2.6208,-2.5745,-2.5141,-2.4353,-2.4059,-2.3393,-2.2105,-2.1589,-2.1605,-2.2198,-2.1745,-2.1549,-2.1786,-2.1196,-2.0795,-2.0581,-2.0447,-2.0548,-2.0893,-2.0828,-2.0861,-2.1007,-2.1214,-2.1183,-2.1007,-2.1214,-2.1309,-2.1309,-2.1309,-2.1309,-2.1356,-2.1371,-2.1669,-2.2278,-2.396,-2.4942,-2.5659,-2.8759,-2.6986,-2.5013,-2.2915,-2.2009,-2.1659,-2.1945,-2.2728,-2.3874,-2.5392,-2.621,-2.6588,-2.6311,-2.736,-2.8638,-2.9727,-3.0534,-3.1427,-3.2553,-3.3624,-3.432,-3.4467,-3.5291,-3.5828,-3.5992,-3.6346,-3.6148,-3.5436,-3.4793,-3.3611,-3.1797,-3.0618,-2.9062,-2.7173,-2.6067,-2.5043,-2.4022,-2.2617,-2.2724,-2.3755,-2.3071,-2.346,-2.4681,-2.6136,-2.745,-2.8566,-2.8736,-2.9221,-2.9628,-2.8486,-2.7921,-2.7457,-2.6076,-2.5764,-2.574,-2.4786,-2.4821,-2.5149,-2.5043,-2.421,-2.3446,-2.3744,-2.3774,0.0,0.0,-2.4595,-2.5322,-2.507,-2.5549,-2.5977,-2.5737,-2.6031,-2.6479,-2.6862,-2.7051,-2.7154,-2.7273,-2.7245,-2.725,-2.7446,-2.7189,-2.661,-2.5664,-2.5238,-2.4557,-2.3387,-2.3106,-2.3014,-2.3117,-2.2774,-2.2259,-2.1612,-2.1113,-2.0562,-2.0,-1.9894,-1.9965,-2.0208,-2.0481,-2.0663,-2.0763,-2.1135,-2.1135,-2.0926,-2.1183,-2.1214,-2.1103,-2.1246,-2.1309,-2.1309,-2.1309,-2.1676,-2.238,-2.3714,-2.4563,-2.5275,-3.0276,-2.901,-2.7525,-2.5378,-2.446,-2.389,-2.3636,-2.416,-2.5039,-2.6299,-2.7459,-2.8002,-2.7821,-2.8926,-3.0242,-3.1516,-3.1754,-3.2379,-3.36,-3.436,-3.4992,-3.5427,-3.6013,-3.6522,-3.6882,-3.7086,-3.6986,-3.6532,-3.5525,-3.4219,-3.2711,-3.1185,-2.953,-2.7801,-2.6803,-2.582,-2.4847,-2.3361,-2.3744,-2.5384,-2.4609,-2.4647,-2.5249,-2.6897,-2.8016,-2.8633,-2.87,-2.9234,-2.9628,-2.8486,-2.8109,-2.7871,-2.6553,-2.6298,-2.6246,-2.5103,-2.4922,-2.5065,-2.4967,-2.4143,-2.336,-2.3736,-2.3747,-2.3638,0.0,0.0,0.0,-2.5108,-2.5681,-2.6302,-2.6208,-2.6393,-2.6697,-2.7261,-2.7808,-2.8109,-2.7981,-2.8284,-2.8558,-2.8598,-2.8287,-2.771,-2.6878,-2.6313,-2.5645,-2.4902,-2.4845,-2.4545,-2.3771,-2.3467,-2.2709,-2.1454,-2.0881,-2.028,-1.956,-1.9428,-1.9369,-1.9442,-2.007,-2.0413,-2.0447,-2.0942,-2.1007,-2.0844,-2.1119,-2.1135,-2.0991,-2.1214,-2.1309,-2.1309,-2.1341,-2.1808,-2.2551,-2.3287,-2.4093,-2.493,-3.1366,-3.0113,-2.8954,-2.7183,-2.5948,-2.5124,-2.4909,-2.4995,-2.5709,-2.7651,-2.9323,-3.0644,-3.1465,-3.2187,-3.3198,-3.4838,-3.3674,-3.3657,-3.5658,-3.4774,-3.4543,-3.5284,-3.5355,-3.5577,-3.6029,-3.6279,-3.6612,-3.692,-3.6009,-3.52,-3.4558,-3.3161,-3.1618,-3.003,-2.8328,-2.7268,-2.6512,-2.4593,-2.4637,-2.6018,-2.5927,-2.6462,-2.7265,-2.8431,-2.8954,-2.9077,-2.9484,-2.9714,-2.9628,-2.8486,-2.8109,-2.7745,-2.5661,-2.5942,-2.6518,-2.3373,-2.3721,-2.4585,-2.2221,-2.2111,-2.2644,-2.232,-2.2824,-2.3333,-2.3363,0.0,-2.4338,-2.4222,0.0,-2.5199,-2.4865,0.0,0.0,-2.611,-2.7429,-2.8408,-2.8262,-2.924,-2.9648,-2.8803,-2.8141,-2.7695,-2.7595,-2.7175,-2.6603,-2.5721,-2.5789,-2.5375,-2.4266,-2.2975,-2.228,-2.2245,-2.0713,-1.9825,-1.9692,-1.9132,-1.8997,-1.9244,-1.9515,-1.9732,-1.9894,-2.0376,-2.0561,-2.0561,-2.0844,-2.1071,-2.1246,-2.1294,-2.1309,-2.1325,-2.1486,-2.172,-2.2026,-2.3127,-2.379,-2.4321,-3.3186,-3.199,-3.087,-2.9656,-2.8611,-2.7672,-2.7082,-2.7194,-2.7531,-2.8038,-2.9565,-3.1075,-3.2058,-3.2987,-3.4198,-3.5899,-3.5465,-3.5533,-3.6639,-3.6061,-3.6076,-3.6901,-3.6769,-3.694,-3.7546,-3.766,-3.7628,-3.7406,-3.7023,-3.6153,-3.4904,-3.4109,-3.284,-3.1132,-2.9656,-2.8503,-2.7668,-2.5657,-2.5827,-2.7359,-2.6799,-2.7478,-2.8833,-2.8761,-2.9147,-2.9693,-3.0088,-3.0495,-3.0667,-2.9848,-2.9132,-2.8417,-2.7629,-2.7155,-2.6694,-2.5741,-2.5285,-2.4861,-2.4035,-2.3858,-2.3865,-2.3693,-2.4072,-2.4382,-2.397,-2.4312,-2.4557,-2.417,0.0,0.0,0.0,0.0,0.0,0.0,-2.8168,-2.8993,-2.8631,-2.9201,-2.9782,-3.0024,-2.9779,-2.9436,-2.8982,-2.7906,-2.6994,-2.6387,-2.5738,-2.4902,-2.3731,-2.2688,-2.181,-2.1038,-2.0492,-1.9778,-1.8892,-1.8837,-1.8693,-1.8525,-1.9184,-1.9551,-1.966,-2.0395,-2.0646,-2.0527,-2.0942,-2.1103,-2.1071,-2.1246,-2.1388,-2.1497,-2.1657,-2.1746,-2.189,-2.2569,-2.3052,-2.3589,-3.511,-3.388,-3.2655,-3.165,-3.069,-2.9738,-2.8707,-2.9047,-2.9189,-2.8612,-3.0284,-3.1877,-3.2739,-3.4057,-3.5496,-3.7057,-3.7233,-3.7533,-3.7997,-3.753,-3.7515,-3.8157,-3.7716,-3.7791,-3.8472,-3.8521,-3.8318,-3.791,-3.7536,-3.6696,-3.5338,-3.4864,-3.3661,-3.1922,-3.0911,-2.9921,-2.8832,-2.7203,-2.7521,-2.8962,-2.8082,-2.8504,-2.9714,-2.9287,-2.9561,-3.0203,-3.0501,-3.0895,-3.1183,-3.0655,-2.9856,-2.9054,-2.9184,-2.8311,-2.7291,-2.7493,-2.6707,-2.5702,-2.5344,-2.5243,-2.5134,-2.465,-2.4911,-2.529,-2.4924,-2.4957,-2.5019,-2.474,-2.5103,0.0,0.0,0.0,-2.7147,-2.7394,0.0,-2.9365,-2.8684,-2.9052,-2.9661,-3.0427,-3.073,-3.0582,-2.9774,-2.8865,-2.7922,-2.7037,-2.5768,-2.4422,-2.2965,-2.1931,-2.0914,-1.9856,-2.0025,-1.9634,-1.8561,-1.8634,-1.8466,-1.8068,-1.8884,-1.9347,-1.9493,-2.0326,-2.0613,-2.0527,-2.099,-2.1103,-2.1023,-2.1214,-2.1388,-2.1528,-2.1713,-2.1787,-2.184,-2.2169,-2.2517,-2.3024,-3.6911,-3.566,-3.4185,-3.2717,-3.171,-3.0692,-2.9191,-2.9915,-3.0401,-2.9789,-3.2112,-3.3982,-3.4356,-3.6251,-3.7926,-3.9047,-3.9029,-3.9455,-4.0442,-3.8883,-3.8125,-3.8479,-3.7472,-3.7163,-3.77,-3.7716,-3.7934,-3.8359,-3.7238,-3.6622,-3.6512,-3.5669,-3.436,-3.2624,-3.2342,-3.1539,-3.0387,-2.9674,-2.9951,-3.0794,-3.019,-2.9858,-2.9856,-3.033,-3.0532,-3.0605,-3.0573,-3.0591,-3.0583,-3.0362,-2.9822,-2.9279,-2.9104,-2.9024,-2.8588,-2.6998,-2.713,-2.7201,-2.4481,-2.493,-2.5756,-2.4134,-2.4687,-2.5693,-2.6062,-2.5588,-2.5287,-2.6002,-2.56,-2.5217,-2.5518,-2.6508,-2.7128,-2.6605,-2.8389,0.0,0.0,-2.8925,-2.9538,-2.9372,-3.0105,-3.0295,-2.9493,-3.0297,-2.997,-2.773,-2.6075,-2.4281,-2.2146,-2.0371,-1.9416,-1.9405,-1.9246,-1.9188,-1.9274,-1.8631,-1.8299,-1.8305,-1.85,-1.8898,-1.9413,-1.9889,-2.0273,-2.0527,-2.0795,-2.1071,-2.1294,-2.1309,-2.1309,-2.134,-2.1678,-2.1797,-2.1857,-2.218,-2.2432,-2.2649,-3.8149,-3.701,-3.5721,-3.4296,-3.3121,-3.2053,-3.1371,-3.1457,-3.1689,-3.1924,-3.3093,-3.4611,-3.6457,-3.7659,-3.8964,-4.0587,-4.0448,-4.0607,-4.1606,-4.0345,-3.9785,-4.0384,-3.9156,-3.8595,-3.8872,-3.8405,-3.8221,-3.8391,-3.7979,-3.7632,-3.7297,-3.7058,-3.5857,-3.3986,-3.3713,-3.2769,-3.1451,-3.0703,-3.0786,-3.1281,-3.1057,-3.0477,-2.9855,-3.0782,-3.1206,-3.1254,-3.1667,-3.2173,-3.264,-3.2148,-3.1514,-3.0877,-3.0945,-3.0145,-2.9087,-2.9151,-2.8788,-2.8181,-2.7214,-2.7845,-2.851,-2.7045,-2.754,-2.8199,-2.7349,-2.6498,-2.5894,-2.6157,-2.5915,-2.5717,-2.5941,-2.6952,-2.7572,-2.7215,-2.8324,-2.8981,0.0,-2.8844,-2.9372,-2.9611,-3.0423,-3.0721,-3.0008,-2.9278,-2.8522,-2.7593,-2.5245,-2.3081,-2.1227,-2.0002,-1.9073,-1.8377,-1.8967,-1.9058,-1.858,-1.8786,-1.8575,-1.7988,-1.863,-1.9101,-1.9413,-2.008,-2.0426,-2.0527,-2.0974,-2.1214,-2.1309,-2.1309,-2.1388,-2.1511,-2.1708,-2.184,-2.194,-2.2209,-2.2432,-2.2701,-3.8734,-3.77,-3.6538,-3.5359,-3.4191,-3.3314,-3.2835,-3.3058,-3.3283,-3.3587,-3.4582,-3.5904,-3.7571,-3.8892,-4.0134,-4.1309,-4.1628,-4.1975,-4.2485,-4.1514,-4.1154,-4.1538,-4.0197,-3.9551,-3.9822,-3.8991,-3.86,-3.8694,-3.8335,-3.8065,-3.7833,-3.7737,-3.6585,-3.4519,-3.4805,-3.3937,-3.2122,-3.201,-3.1869,-3.1809,-3.1809,-3.1221,-3.0503,-3.1685,-3.1834,-3.1573,-3.2301,-3.2946,-3.3454,-3.3307,-3.2585,-3.1801,-3.2404,-3.1352,-3.0097,-3.0672,-3.0261,-2.9559,-2.9252,-2.9839,-3.025,-2.91,-2.949,-2.9937,-2.8904,-2.7993,-2.7438,-2.7589,-2.6955,-2.6627,-2.7367,-2.7825,-2.8029,-2.7834,-2.8461,-2.8759,0.0,-2.8703,-2.9094,-2.9215,-3.0279,-3.0774,-3.0239,-2.913,-2.8148,-2.7487,-2.461,-2.2129,-2.0482,-1.9317,-1.8363,-1.7599,-1.8685,-1.8943,-1.8393,-1.8799,-1.8732,-1.8068,-1.8669,-1.9139,-1.9523,-2.022,-2.0494,-2.0527,-2.1055,-2.1309,-2.1309,-2.1309,-2.1388,-2.1511,-2.1708,-2.184,-2.1957,-2.2209,-2.2487,-2.2842,-3.8701,-3.77,-3.66,-3.5816,-3.4986,-3.4249,-3.3644,-3.4632,-3.5222,-3.4773,-3.6479,-3.7797,-3.7946,-3.9976,-4.1365,-4.1442,-4.2731,-4.3473,-4.3076,-4.2526,-4.2154,-4.1954,-4.0668,-4.0104,-4.0382,-3.9347,-3.8898,-3.9206,-3.8246,-3.787,-3.8141,-3.7849,-3.6479,-3.4353,-3.5767,-3.491,-3.2542,-3.338,-3.3213,-3.2331,-3.2417,-3.2087,-3.1669,-3.2846,-3.2556,-3.1667,-3.2588,-3.2954,-3.3087,-3.3812,-3.3199,-3.221,-3.3229,-3.2587,-3.1482,-3.1482,-3.1482,-3.13,-3.0528,-3.076,-3.1082,-3.0214,-3.0519,-3.0932,-3.0577,-3.0076,-2.9814,-3.0231,-2.8808,-2.8031,-2.9644,-2.9196,-2.852,-2.8518,-2.8784,-2.8747,-2.7977,-2.8517,-2.8782,-2.8271,-2.9605,-3.0431,-3.0131,-2.9737,-2.8853,-2.7385,-2.4223,-2.1656,-1.9917,-1.8424,-1.7523,-1.7269,-1.8405,-1.8943,-1.8791,-1.8779,-1.8715,-1.8634,-1.8673,-1.9026,-1.9711,-2.0239,-2.0527,-2.0561,-2.1087,-2.1309,-2.1309,-2.1309,-2.1309,-2.134,-2.1661,-2.1797,-2.1857,-2.218,-2.2552,-2.3023,-3.9073,-3.7594,-3.6166,-3.5653,-3.5359,-3.5067,-3.4728,-3.5316,-3.6226,-3.7575,-3.8142,-3.9247,-4.1287,-4.1816,-4.2418,-4.3313,-4.3538,-4.3748,-4.417,-4.3813,-4.3306,-4.2724,-4.1654,-4.0839,-4.0348,-3.9126,-3.875,-3.9206,-3.8528,-3.8375,-3.859,-3.8335,-3.7249,-3.549,-3.6142,-3.5307,-3.35,-3.3283,-3.2599,-3.178,-3.2747,-3.243,-3.1695,-3.3141,-3.318,-3.2631,-3.3289,-3.3936,-3.442,-3.4618,-3.4006,-3.3138,-3.344,-3.2587,-3.1482,-3.1482,-3.1482,-3.1507,-3.1637,-3.2037,-3.2282,-3.1868,-3.2173,-3.2418,-3.2008,-3.1365,-3.1024,-3.159,-3.0965,-3.0434,-3.0733,-3.0693,-3.0501,-3.0026,-2.9597,-2.9229,-2.9016,-2.866,-2.8396,-2.8362,-2.9251,-2.9575,-2.8923,-2.809,-2.736,-2.6835,-2.4735,-2.2599,-2.0561,-2.0012,-1.9336,-1.8496,-1.878,-1.9281,-1.9813,-1.9753,-1.9521,-1.9069,-1.943,-1.9689,-1.9803,-2.0273,-2.0613,-2.0811,-2.1151,-2.1309,-2.1309,-2.1309,-2.1309,-2.1309,-2.1573,-2.1768,-2.1986,-2.2209,-2.2552,-2.2936,-4.0507,-3.8723,-3.7173,-3.685,-3.6812,-3.6687,-3.6288,-3.6641,-3.7506,-3.9152,-3.9619,-4.0431,-4.2119,-4.2813,-4.3355,-4.4039,-4.408,-4.4196,-4.4587,-4.4423,-4.4086,-4.3436,-4.2459,-4.1611,-4.0961,-3.9657,-3.9131,-3.9435,-3.886,-3.8655,-3.8805,-3.856,-3.7508,-3.5926,-3.6404,-3.5533,-3.365,-3.3014,-3.2585,-3.2352,-3.296,-3.2891,0.0,-3.3854,-3.4138,-3.3848,-3.4288,-3.464,-3.4935,-3.5082,-3.4401,-3.3499,-3.3499,-3.2587,-3.1524,-3.1766,-3.1807,-3.1931,-3.2616,-3.2692,-3.2682,-3.3048,-3.319,-3.3145,-3.2914,-3.2676,-3.263,-3.3001,-3.2507,-3.2124,-3.2438,-3.2176,-3.1671,-3.1,-3.0128,-2.9602,-2.974,-2.9367,-2.9016,-2.8846,-2.9286,-2.9331,-2.8681,-2.8042,-2.7517,-2.7198,-2.5314,-2.3334,-2.1462,-2.1082,-2.0471,-1.9401,-1.9554,-1.9938,-2.0402,-2.0402,-2.0233,-1.9989,-2.0016,-2.0112,-2.037,-2.0447,-2.0646,-2.0926,-2.1183,-2.1309,-2.1309,-2.1309,-2.1309,-2.1325,-2.1603,-2.1857,-2.2147,-2.2377,-2.2632,-2.2893,-4.1953,-4.0254,-3.8837,-3.8654,-3.8715,-3.8748,-3.8326,-3.8604,-3.9219,-4.0318,-4.1083,-4.1768,-4.2259,-4.3406,-4.4205,-4.431,-4.4609,-4.4737,-4.4737,-4.4695,-4.4448,-4.3976,-4.2945,-4.2193,-4.1658,-4.0392,-3.9713,-3.9729,-3.9131,-3.8805,-3.886,-3.8544,-3.754,-3.6066,-3.6646,-3.5599,-3.3459,-3.2918,-3.2917,-3.3423,-3.3297,-3.3575,-3.4153,-3.4978,-3.5145,-3.4961,-3.5278,-3.5273,-3.5088,-3.5344,-3.4645,-3.3653,-3.3562,-3.269,-3.1724,-3.2139,-3.2275,-3.2447,-3.316,-3.2914,-3.2656,-3.3609,-3.3564,-3.3306,-3.3355,-3.3656,-3.3993,-3.4179,-3.356,-3.3256,-3.4129,-3.3336,-3.2343,-3.1688,-3.0733,-3.0109,-3.0366,-3.0327,-3.007,-2.959,-2.9661,0.0,-2.9105,-2.8784,-2.8388,-2.7968,-2.6119,-2.4309,-2.261,-2.2156,-2.1414,-2.0268,-2.0521,-2.0718,-2.0882,-2.0836,-2.0927,-2.1063,-2.0553,-2.0641,-2.1237,-2.086,-2.0854,-2.1102,-2.1247,-2.1309,-2.1309,-2.1325,-2.1388,-2.1433,-2.1781,-2.214,-2.253,-2.2733,-2.2972,-2.3206,-4.1073,-4.0318,-3.9731,-3.9761,-4.027,-4.0922,-4.1409,-4.1455,-4.1878,-4.3207,-4.3382,-4.3937,-4.5337,-4.498,-4.4835,-4.5477,-4.558,-4.558,-4.558,-4.4974,-4.4298,-4.3603,-4.2593,-4.1621,-4.0851,-4.0138,-3.9868,-4.002,-3.9222,-3.8898,-3.9098,-3.8655,-3.778,-3.6705,-3.6827,-3.5806,-3.3911,-3.4005,-3.407,-3.409,-3.4545,-3.5046,-3.5503,-3.5993,-3.5783,-3.5294,-3.5641,-3.5861,-3.5839,-3.5153,-3.4806,-3.457,-3.3939,-3.3197,-3.2586,-3.268,-3.2664,-3.2701,-3.2606,-3.2602,-3.2656,-3.2644,-3.2707,-3.2878,-3.3024,-3.3134,-3.3397,-3.4119,-3.4156,-3.4057,-3.4126,-3.3428,-3.2798,-3.2674,-3.1929,-3.1382,-3.1431,-3.0861,-3.0398,-3.0332,-3.0344,-3.0208,-2.9916,-2.905,-2.839,-2.8173,-2.7948,-2.6733,-2.4372,-2.4167,-2.3492,-2.21,-2.1293,-2.1245,-2.1923,-2.1594,-2.1463,-2.1499,-2.181,-2.2019,-2.2077,-2.1843,-2.1885,-2.2102,-2.1536,-2.1309,-2.1309,-2.1481,-2.1691,-2.201,-2.2341,-2.2897,-2.3564,-2.3779,-2.4348,-2.4866,-4.3004,-4.2054,-4.1419,-4.1824,-4.2186,-4.2669,-4.3435,-4.4143,-4.4356,-4.3797,-4.3748,-4.4071,-4.5018,-4.5181,-4.5442,-4.5768,-4.5786,-4.5786,-4.5786,-4.5254,-4.4581,-4.381,-4.274,-4.1786,-4.0931,-4.0269,-3.9952,-3.9867,-3.9276,-3.9007,-3.9007,-3.86,-3.7828,-3.6906,-3.6486,-3.5919,-3.5274,-3.5133,-3.5091,-3.5075,-3.5591,-3.5887,-3.612,-3.6424,-3.6157,-3.5605,-3.5552,-3.5685,-3.5751,-3.5038,-3.4587,-3.4244,-3.3917,-3.331,-3.2857,-3.3087,-3.2888,-3.2645,-3.2883,-3.245,-3.2071,-3.243,-3.2398,-3.2453,-3.289,-3.3211,-3.3534,-3.3956,-3.4331,-3.4464,-3.4155,-3.3437,-3.2916,-3.2916,-3.2594,-3.2313,-3.2313,-3.1974,-3.1581,-3.1171,-3.1118,-3.1026,-3.0744,-3.0264,-2.9505,-2.8381,-2.8688,-2.7788,-2.5241,-2.5849,-2.5345,-2.3337,-2.2814,-2.2808,-2.3202,-2.2782,-2.2635,-2.2723,-2.3023,-2.3061,-2.2956,-2.269,-2.2705,-2.2962,-2.2671,-2.2541,-2.2541,-2.2448,-2.2832,-2.3384,-2.3285,-2.3759,-2.4562,-2.4742,-2.5121,-2.5394,-4.544,-4.4312,-4.3566,-4.4365,-4.4303,-4.4349,-4.4925,-4.5953,-4.6083,-4.4395,-4.4147,-4.4289,-4.4698,-4.5403,-4.5845,-4.602,-4.6038,-4.6038,-4.6038,-4.5452,-4.4752,-4.4025,-4.2882,-4.1864,-4.1071,-4.05,-4.007,-3.9781,-3.9382,-3.9098,-3.8898,-3.8544,-3.7902,-3.7027,-3.6228,-3.6098,-3.6455,-3.6117,-3.6045,-3.6228,-3.6522,-3.6768,-3.6812,-3.6743,-3.641,-3.5896,-3.5374,-3.5271,-3.5202,-3.4778,-3.4399,-3.4054,-3.3897,-3.3527,-3.3145,-3.3415,-3.3086,-3.2673,-3.2914,-3.2233,-3.1578,-3.2167,-3.209,-3.1975,-3.2507,-3.3009,-3.3348,-3.339,-3.3923,-3.4287,-3.3921,-3.3312,-3.2916,-3.2916,-3.2916,-3.2916,-3.2916,-3.2916,-3.2581,-3.1796,-3.1689,-3.1471,-3.0932,-3.1132,-3.0472,-2.8491,-2.9113,-2.8629,-2.6471,-2.7296,-2.6885,-2.4817,-2.4555,-2.4486,-2.4504,-2.3977,-2.3875,-2.4209,-2.4162,-2.4101,-2.4139,-2.3644,-2.3529,-2.3759,-2.3716,-2.3769,-2.3868,-2.3647,-2.4049,-2.4746,-2.4386,-2.4793,-2.5612,-2.5747,-2.5924,-2.6065,-4.6976,-4.6499,-4.6328,-4.7152,-4.653,-4.5909,-4.5944,-4.5944,-4.6058,-4.6517,-4.6301,-4.6318,-4.709,-4.6341,-4.6119,-4.6842,-4.6888,-4.6888,-4.6888,-4.5481,-4.4476,-4.4135,-4.2581,-4.1426,-4.0676,-4.058,-4.0385,-4.007,-3.947,-3.9206,-3.9152,-3.8655,-3.8107,-3.7583,-3.6723,-3.6538,-3.6815,-3.6523,-3.6814,-3.7519,-3.7551,-3.7801,-3.8124,-3.7471,-3.6825,-3.6179,-3.5477,-3.495,-3.4545,-3.4244,-3.4581,-3.4952,-3.429,-3.4048,-3.3921,-3.3535,-3.3355,-3.3059,-3.2067,-3.1818,-3.1705,-3.1208,-3.1183,-3.1297,-3.1343,-3.1591,-3.1876,-3.2119,-3.2648,-3.3048,-3.3009,-3.2938,-3.2916,-3.2916,-3.2916,-3.2916,-3.2916,-3.2916,-3.2581,-3.1796,-3.1689,-3.1153,-2.9733,-3.061,-3.0447,-2.8356,-2.9555,-3.0031,-2.9171,-2.8559,-2.7949,-2.727,-2.6188,-2.5683,-2.5756,-2.4833,-2.483,-2.562,-2.5224,-2.5404,-2.5918,-2.4869,-2.4473,-2.4634,-2.3997,-2.3999,-2.4547,-2.467,-2.5004,-2.5447,-2.5559,-2.6124,-2.6819,-2.6845,-2.7326,-2.7968,-4.8744,-4.7927,-4.7358,-4.795,-4.7281,-4.6726,-4.6835,-4.676,-4.6761,-4.6918,-4.661,-4.6304,-4.6143,-4.5768,-4.5409,-4.5247,-4.5262,-4.5145,-4.4906,-4.4316,-4.3669,-4.3092,-4.1995,-4.1128,-4.0628,-4.0385,-4.0204,-4.007,-3.9487,-3.9206,-3.9206,-3.8655,-3.8278,-3.8107,-3.7476,-3.7417,-3.777,-3.7637,-3.7786,-3.8107,-3.8107,-3.8335,-3.8525,-3.7297,-3.6845,-3.6653,-3.5464,-3.489,-3.4693,-3.4627,-3.4693,-3.4741,-3.4431,-3.4349,-3.4252,-3.3778,-3.3332,-3.2793,-3.1984,-3.1574,-3.1266,-3.111,-3.1269,-3.1445,-3.1445,-3.1797,-3.216,-3.2284,-3.2606,-3.2916,-3.2916,-3.2916,-3.2916,-3.2916,-3.2916,-3.2916,-3.2916,-3.2916,-3.2581,-3.1796,-3.1689,-3.1199,-3.0011,-3.0723,-3.0814,-2.9661,-3.0426,-3.0552,-2.954,-2.9475,-2.9359,-2.92,-2.7593,-2.6965,-2.7417,-2.6396,-2.6057,-2.6346,-2.6791,-2.674,-2.6181,-2.5954,-2.5795,-2.5796,-2.5648,-2.5859,-2.6325,-2.608,-2.6339,-2.6859,-2.6614,-2.7014,-2.7781,-2.8263,-2.8352,-2.8253,-4.9626,-4.8839,-4.8235,-4.8497,-4.8039,-4.7572,-4.7417,-4.7401,-4.7348,-4.7223,-4.6898,-4.6354,-4.547,-4.5323,-4.4941,-4.415,-4.4114,-4.3915,-4.3533,-4.3303,-4.2881,-4.2246,-4.147,-4.0819,-4.0434,-4.0221,-4.007,-4.007,-3.9592,-3.9312,-3.9206,-3.875,-3.8544,-3.86,-3.8303,-3.8303,-3.8655,-3.8655,-3.8655,-3.8639,-3.8372,-3.8439,-3.8438,-3.696,-3.6533,-3.6567,-3.5348,-3.4949,-3.5015,-3.4932,-3.4851,-3.4691,-3.4643,-3.4627,-3.4464,-3.3775,-3.3176,-3.2608,-3.1883,-3.1364,-3.1032,-3.1252,-3.1466,-3.162,-3.1711,-3.2108,-3.2525,-3.259,-3.2755,-3.2916,-3.2916,-3.2916,-3.2916,-3.2916,-3.2916,-3.2916,-3.2916,-3.2688,-3.2331,-3.176,-3.1627,-3.12,-3.0247,-3.0898,-3.1116,-3.0448,-3.0887,-3.0819,-2.9935,-3.0251,-3.0486,-3.0703,-2.9202,-2.8719,-2.9357,-2.8187,-2.7664,-2.7777,-2.8056,-2.7774,-2.6967,-2.6948,-2.6833,-2.6607,-2.6873,-2.7213,-2.7565,-2.7186,-2.7388,-2.7897,-2.7513,-2.771,-2.8253,-2.8852,-2.8691,-2.8271,-4.9273,-4.919,-4.919,-4.9213,-4.8968,-4.8525,-4.7826,-4.7717,-4.7699,-4.7699,-4.7439,-4.6924,-4.5908,-4.5432,-4.4918,-4.416,-4.4089,-4.3915,-4.3533,-4.2805,-4.2215,-4.181,-4.104,-4.0434,-4.0121,-4.007,-4.007,-4.007,-3.9833,-3.9504,-3.9206,-3.8898,-3.8952,-3.9206,-3.9206,-3.9189,-3.9206,-3.9206,-3.9206,-3.9139,-3.8391,-3.811,-3.7945,-3.6456,-3.5893,-3.5811,-3.5148,-3.5041,-3.5245,-3.4994,-3.5088,-3.5245,-3.4994,-3.4886,-3.4657,-3.3375,-3.2989,-3.2729,-3.1527,-3.119,-3.1269,-3.1542,-3.1603,-3.1662,-3.195,-3.2284,-3.2595,-3.2838,-3.2884,-3.2916,-3.2916,-3.2916,-3.2916,-3.2916,-3.2916,-3.2916,-3.2916,-3.2206,-3.1706,-3.1689,-3.1487,-3.0976,-3.0166,-3.1011,-3.1179,-3.0187,-3.0594,-3.0912,-3.0895,-3.0898,-3.1108,-3.1678,-3.1031,-3.0994,-3.1743,-3.0169,-2.9699,-3.037,-2.8907,-2.8414,-2.8751,-2.7935,-2.7298,-2.6808,-2.7293,-2.76,-2.7789,-2.7771,-2.795,-2.8182,-2.8182,-2.8182,-2.8182,-2.82,-2.82,-2.8182,-5.0431,-4.9838,-4.9453,-4.949,-4.8903,-4.8348,-4.798,-4.7875,-4.7661,-4.6957,-4.6699,-4.6007,-4.4594,-4.4438,-4.3899,-4.2572,-4.2485,-4.23,-4.194,-4.1908,-4.1632,-4.0988,-4.0748,-4.0434,-4.0138,-4.007,-4.007,-4.007,-3.9833,-3.9644,-3.9629,-3.9766,-3.9851,-3.9952,-3.9952,-3.9817,-3.9594,-3.9594,-3.9154,-3.8408,-3.8176,-3.7882,-3.7519,-3.6552,-3.6315,-3.6454,-3.5921,-3.5776,-3.5873,-3.6011,-3.6114,-3.6156,-3.6071,-3.5294,-3.4234,-3.3517,-3.3043,-3.2604,-3.1726,-3.1603,-3.1768,-3.1841,-3.2056,-3.2249,-3.2318,-3.2557,-3.2791,-3.2884,-3.2916,-3.2916,-3.2916,-3.2916,-3.2916,-3.2916,-3.2916,-3.2916,-3.2916,-3.2206,-3.1523,-3.1058,-3.0716,-3.0166,-2.9312,-3.0162,-3.0911,-3.1185,-3.1911,-3.2127,-3.1658,-3.1007,-3.1391,-3.3086,-3.158,-3.1197,-3.2289,-3.0828,-3.0196,-3.0402,-2.9688,-2.9339,-2.9277,-2.8678,-2.8577,-2.8928,-2.9218,-2.9153,-2.8881,-2.8881,-2.8607,-2.8182,-2.8182,-2.8182,-2.8253,-2.8834,-2.8691,-2.8271,-5.0073,-4.9621,-4.9362,-4.9029,-4.878,-4.8484,-4.8078,-4.8075,-4.7864,-4.7175,-4.6635,-4.5807,-4.4412,-4.4044,-4.3319,-4.1842,-4.1698,-4.1551,-4.1226,-4.1265,-4.1065,-4.0628,-4.0483,-4.0303,-4.0121,-4.007,-4.0171,-4.0303,-4.0154,-4.0187,-4.0334,-4.0414,-4.0559,-4.0638,-4.0298,-4.0083,-3.9859,-3.9552,-3.9016,-3.8349,-3.808,-3.777,-3.742,-3.669,-3.6542,-3.6676,-3.6388,-3.6291,-3.634,-3.6516,-3.6574,-3.6574,-3.6574,-3.5501,-3.4134,-3.3819,-3.3544,-3.3075,-3.2052,-3.1863,-3.2039,-3.2162,-3.2335,-3.2541,-3.2623,-3.2787,-3.2916,-3.2916,-3.2916,-3.2916,-3.2916,-3.2916,-3.2991,-3.3294,-3.3144,-3.3069,-3.3373,-3.254,-3.1799,-3.1613,-3.1182,-3.0773,-3.0466,-3.085,-3.1401,-3.2032,-3.2315,-3.2341,-3.2026,-3.1901,-3.2337,-3.3359,-3.2475,-3.2457,-3.3404,-3.1996,-3.1237,-3.1237,-3.0489,-2.9947,-2.9616,-2.9499,-2.9644,-3.0033,-3.0238,-2.9982,-2.9405,-2.9405,-2.8941,-2.8182,-2.8182,-2.8182,-2.8253,-2.878,-2.8834,-2.8691,-4.8529,-4.8733,-4.8903,-4.816,-4.863,-4.8885,-4.816,-4.819,-4.821,-4.7959,-4.7104,-4.6091,-4.507,-4.4096,-4.3019,-4.1849,-4.1753,-4.1622,-4.13,-4.0913,-4.0676,-4.0628,-4.0353,-4.0171,-4.0121,-4.012,-4.0235,-4.0542,-4.0767,-4.0972,-4.1168,-4.092,-4.0932,-4.1108,-4.0331,-3.9973,-3.9921,-3.9173,-3.8782,-3.8677,-3.7982,-3.7669,-3.7547,-3.6835,-3.6574,-3.6615,-3.6632,-3.6615,-3.6615,-3.6655,-3.6655,-3.6655,-3.6586,-3.5593,-3.4425,-3.4349,-3.4244,-3.3864,-3.2406,-3.2055,-3.2142,-3.2454,-3.2541,-3.259,-3.2852,-3.2916,-3.2916,-3.2916,-3.2916,-3.2916,-3.2916,-3.2969,-3.3223,-3.399,-3.3584,-3.3427,-3.4181,-3.3076,-3.2412,-3.2955,-3.2535,-3.2441,-3.3045,-3.2637,-3.2451,-3.2801,-3.2115,-3.1852,-3.2195,-3.3427,-3.3656,-3.2719,-3.3612,-3.4363,-3.4847,-3.3437,-3.2674,-3.2602,-3.1198,-3.0373,-2.9964,-3.0394,-3.0524,-3.0384,-3.0581,-3.0261,-2.9565,-2.9565,-2.9066,-2.8271,-2.8271,-2.8235,-2.8182,-2.8182,-2.8691,-2.9208,-4.8567,-4.8433,-4.8467,-4.8265,-4.8394,-4.8467,-4.8265,-4.8267,-4.8047,-4.7404,-4.6848,-4.5947,-4.4469,-4.3822,-4.3144,-4.2258,-4.2145,-4.2145,-4.2061,-4.1666,-4.1311,-4.1053,-4.096,-4.0772,-4.0483,-4.0203,-4.0049,-4.0141,-4.1059,-4.1236,-4.0752,-4.0948,-4.0754,-4.021,-4.0015,-3.9782,-3.9533,-3.934,-3.8776,-3.7947,-3.7773,-3.7356,-3.6817,-3.6643,-3.6574,-3.6615,-3.6895,-3.6974,-3.7013,-3.7261,-3.7374,-3.7248,-3.6627,-3.6184,-3.5686,-3.4606,-3.3649,-3.2842,-3.2491,-3.2519,-3.2702,-3.277,-3.282,-3.282,-3.2884,-3.2916,-3.2916,-3.2916,-3.2916,-3.2916,-3.2916,-3.3384,-3.3883,-3.4079,-3.4049,-3.4087,-3.4285,-3.3076,-3.2166,-3.2056,-3.2148,-3.2179,-3.2135,-3.2427,-3.2956,-3.3835,-3.3248,-3.3223,-3.4093,-3.4206,-3.3682,-3.2452,-3.3744,-3.4452,-3.4432,-3.3493,-3.258,-3.1693,-3.1336,-3.1333,-3.1566,-3.169,-3.193,-3.225,-3.2313,-3.1867,-3.1153,-3.1153,-3.035,-2.9119,-2.9119,-2.8744,-2.8182,-2.8182,-2.8307,-2.8449,-4.8661,-4.8364,-4.8306,-4.8306,-4.8306,-4.8306,-4.8306,-4.8306,-4.8121,-4.7565,-4.6608,-4.558,-4.4628,-4.3566,-4.2769,-4.2323,-4.2287,-4.2287,-4.2287,-4.1941,-4.1622,-4.1463,-4.1283,-4.1117,-4.0866,-4.0308,-3.9931,-3.9713,-4.05,-4.0666,-4.0276,-4.0477,-4.0324,-3.9896,-3.9557,-3.9299,-3.9106,-3.8734,-3.821,-3.7629,-3.7629,-3.7422,-3.7069,-3.7069,-3.7069,-3.7069,-3.7261,-3.7337,-3.7354,-3.754,-3.7345,-3.697,-3.6542,-3.5917,-3.5188,-3.4429,-3.374,-3.3168,-3.2796,-3.2787,-3.2916,-3.2916,-3.2916,-3.2916,-3.2916,-3.2916,-3.2916,-3.2916,-3.2916,-3.2916,-3.2916,-3.3562,-3.413,-3.4178,-3.4627,-3.4988,-3.4939,-3.3936,-3.3196,-3.3223,-3.3125,-3.3167,-3.3401,-3.3313,-3.3697,-3.4923,-3.3999,-3.3846,-3.4907,-3.4817,-3.4259,-3.3252,-3.402,-3.4408,-3.4301,-3.3533,-3.261,-3.1551,-3.1631,-3.1819,-3.2109,-3.2249,-3.2506,-3.2916,-3.2916,-3.242,-3.1689,-3.1689,-3.0779,-2.944,-2.9779,-2.944,-2.8798,-2.9137,-2.9494,-2.9762,-4.849,-4.8292,-4.8159,-4.8288,-4.8306,-4.8269,-4.8141,-4.8233,-4.8137,-4.7743,-4.6394,-4.5323,-4.4885,-4.3435,-4.2453,-4.2346,-4.2328,-4.2328,-4.2287,-4.2002,-4.1753,-4.1709,-4.1507,-4.1346,-4.1283,-4.0533,-3.9886,-3.9317,-3.9704,-3.986,-3.9736,-3.9736,-3.9682,-3.9539,-3.8915,-3.8629,-3.8576,-3.788,-3.7577,-3.7577,-3.7577,-3.7577,-3.7577,-3.7577,-3.7577,-3.7577,-3.7577,-3.7577,-3.7559,-3.7452,-3.6952,-3.6363,-3.6131,-3.515,-3.4079,-3.3955,-3.3919,-3.3776,-3.308,-3.2916,-3.2916,-3.2916,-3.2916,-3.2916,-3.2916,-3.2916,-3.2916,-3.2916,-3.2916,-3.2916,-3.2916,-3.3562,-3.4166,-3.4419,-3.5173,-3.577,-3.5828,-3.5078,-3.4648,-3.4977,-3.4489,-3.4445,-3.5149,-3.4362,-3.4268,-3.5447,-3.427,-3.395,-3.4973,-3.4936,-3.4659,-3.4294,-3.4321,-3.4338,-3.4216,-3.3626,-3.2871,-3.1881,-3.2031,-3.2177,-3.2249,-3.2441,-3.2677,-3.2916,-3.2916,-3.2491,-3.1867,-3.1867,-3.0975,-2.9637,-3.0386,-3.0172,-2.9494,-3.0243,-3.0939,-3.1451,-4.7316,-4.7297,-4.7517,-4.8196,-4.8306,-4.8086,-4.7407,-4.7865,-4.781,-4.6415,-4.6288,-4.5771,-4.44,-4.3696,-4.312,-4.2584,-4.257,-4.249,-4.2328,-4.2246,-4.2044,-4.1692,-4.1959,-4.1959,-4.1622,-4.118,-4.0277,-3.891,-3.9572,-3.9593,-3.8986,-3.8986,-3.8611,-3.7933,-3.7826,-3.7773,-3.7773,-3.763,-3.7577,-3.7577,-3.7577,-3.7577,-3.7577,-3.7577,-3.7577,-3.7577,-3.7577,-3.7577,-3.7487,-3.6809,-3.6488,-3.6167,-3.4865,-3.4294,-3.3972,-3.3277,-3.308,-3.3045,-3.292,-3.2916,-3.2916,-3.2916,-3.2916,-3.2916,-3.2916,-3.2916,-3.2916,-3.2916,-3.2916,-3.2916,-3.2916,-3.3562,-3.4311,-3.497,-3.5319,-3.5774,-3.6458,-3.5711,-3.5093,-3.5065,-3.471,-3.4449,-3.4474,-3.3945,-3.3705,-3.3935,-3.3364,-3.3387,-3.424,-3.3633,-3.3529,-3.4106,-3.4535,-3.4391,-3.3705,-3.3863,-3.3521,-3.2707,-3.274,-3.2773,-3.2787,-3.2838,-3.287,-3.2916,-3.2916,-3.2844,-3.2719,-3.2719,-3.176,-3.0422,-3.1207,-3.0654,-2.9494,-3.0243,-3.0582,-3.0701,-4.7237,-4.7224,-4.737,-4.8159,-4.7957,-4.7535,-4.7186,-4.7058,-4.6746,-4.5993,-4.5605,-4.5064,-4.436,-4.3599,-4.3084,-4.2783,-4.2747,-4.2709,-4.2631,-4.2512,-4.2391,-4.2192,-4.2269,-4.1795,-4.0742,-4.0548,-3.97,-3.8148,-3.8487,-3.8487,-3.8148,-3.8148,-3.7951,-3.7577,-3.7577,-3.7577,-3.7631,-3.7703,-3.7739,-3.7739,-3.7739,-3.7739,-3.7739,-3.7631,-3.7577,-3.7523,-3.7095,-3.6934,-3.6827,-3.6024,-3.5489,-3.5043,-3.4329,-3.3794,-3.3366,-3.3023,-3.2916,-3.2916,-3.2916,-3.2563,-3.2349,-3.2809,-3.2563,-3.2367,-3.2809,-3.2916,-3.2916,-3.2916,-3.2916,-3.2916,-3.2916,-3.3562,-3.4095,-3.4053,-3.5244,-3.6137,-3.6065,-3.5896,-3.5723,-3.5562,-3.4863,-3.4414,-3.4579,-3.3987,-3.3829,-3.4428,-3.3906,-3.3883,-3.465,-3.3955,-3.3723,-3.4097,-3.3892,-3.3594,-3.3222,-3.3372,-3.3259,-3.2916,-3.2916,-3.2916,-3.2916,-3.2916,-3.2916,-3.2916,-3.2916,-3.2916,-3.2916,-3.2916,-3.2206,-3.1225,-3.2028,-3.1635,-3.0725,-3.1583,-3.1977,-3.2115,-4.6752,-4.6672,-4.6819,-4.7609,-4.7241,-4.6764,-4.6581,-4.6195,-4.5773,-4.5388,-4.4803,-4.4327,-4.4126,-4.3413,-4.2938,-4.2975,-4.2975,-4.2995,-4.305,-4.2862,-4.2727,-4.267,-4.2311,-4.1439,-4.0009,-3.9736,-3.8968,-3.7577,-3.7577,-3.7577,-3.7577,-3.7577,-3.7577,-3.7577,-3.7577,-3.7577,-3.7613,-3.781,-3.7899,-3.7881,-3.7701,-3.7629,-3.7594,-3.7399,-3.7184,-3.6988,-3.6542,-3.6274,-3.6006,-3.5221,-3.4579,-3.4079,-3.3883,-3.3384,-3.2916,-3.2916,-3.2916,-3.2848,-3.2656,-3.2175,-3.1836,-3.2487,-3.217,-3.1907,-3.2706,-3.2916,-3.2916,-3.2916,-3.2916,-3.2916,-3.2916,-3.3562,-3.3987,-3.3651,-3.5316,-3.6411,-3.58,-3.6024,-3.6095,-3.5754,-3.4774,-3.4261,-3.4588,-3.3917,-3.3791,-3.4581,-3.4151,-3.4062,-3.465,-3.4133,-3.383,-3.383,-3.3205,-3.2916,-3.2916,-3.2916,-3.2916,-3.2916,-3.2916,-3.2916,-3.2916,-3.2916,-3.2916,-3.2916,-3.2916,-3.2916,-3.2916,-3.2916,-3.242,-3.1778,-3.2581,-3.2434,-3.1888,-3.2811,-3.3304,-3.3509,-4.4851,-4.4892,-4.5131,-4.5938,-4.603,-4.5736,-4.5002,-4.5461,-4.5351,-4.3864,-4.4108,-4.4108,-4.3379,-4.3049,-4.2975,-4.316,-4.316,-4.3268,-4.3444,-4.3268,-4.3087,-4.29,-4.1967,-4.1043,-4.02,-3.9349,-3.8469,-3.7577,-3.7577,-3.7577,-3.7577,-3.7577,-3.7577,-3.7577,-3.7577,-3.7577,-3.7613,-3.781,-3.7899,-3.7827,-3.709,-3.6802,-3.6768,-3.6559,-3.6024,-3.5471,-3.6149,-3.5917,-3.5186,-3.4436,-3.4151,-3.3972,-3.3205,-3.2969,-3.2916,-3.2916,-3.2916,-3.2741,-3.1991,-3.1764,-3.1706,-3.1773,-3.1734,-3.192,-3.2723,-3.2916,-3.2916,-3.2916,-3.2916,-3.2916,-3.2916,-3.3562,-3.4311,-3.4936,-3.5845,-3.6416,-3.6345,-3.6094,-3.5773,-3.5313,-3.4288,-3.3793,-3.412,-3.3422,-3.2991,-3.3045,-3.3009,-3.3023,-3.3094,-3.3009,-3.3005,-3.3005,-3.292,-3.2916,-3.2916,-3.2916,-3.2916,-3.2916,-3.2916,-3.2916,-3.2916,-3.2916,-3.2916,-3.2916,-3.2916,-3.2916,-3.2916,-3.2916,-3.242,-3.1778,-3.2581,-3.2527,-3.2085,-3.3031,-3.3476,-3.3643,-4.4632,-4.4691,-4.4947,-4.5736,-4.5497,-4.5057,-4.4764,-4.4544,-4.4176,-4.3571,-4.3684,-4.3722,-4.3411,-4.3304,-4.3304,-4.3375,-4.3393,-4.3428,-4.3479,-4.3428,-4.3013,-4.2176,-4.1794,-4.0998,-3.9661,-3.9301,-3.8725,-3.7915,-3.7915,-3.7915,-3.7897,-3.741,-3.7395,-3.7739,-3.697,-3.669,-3.6845,-3.6884,-3.6799,-3.6555,-3.6248,-3.614,-3.6107,-3.5771,-3.5471,-3.5186,-3.5043,-3.4793,-3.4401,-3.3616,-3.3348,-3.3294,-3.2991,-3.2916,-3.2916,-3.2916,-3.2916,-3.2723,-3.1906,-3.1706,-3.1711,-3.1714,-3.1689,-3.1894,-3.2706,-3.2916,-3.2916,-3.2916,-3.2916,-3.2916,-3.2916,-3.3134,-3.3437,-3.3723,-3.4454,-3.4972,-3.4972,-3.526,-3.5225,-3.4581,-3.4157,-3.375,-3.3384,-3.3062,-3.293,-3.3042,-3.2948,-3.2948,-3.3024,-3.2948,-3.2916,-3.2916,-3.2916,-3.2916,-3.2916,-3.2916,-3.2916,-3.2916,-3.2916,-3.2916,-3.2916,-3.2916,-3.2916,-3.2916,-3.2916,-3.2961,-3.3019,-3.3024,-3.2924,-3.2781,-3.3087,-3.3064,-3.2947,-3.3497,-3.3813,-3.4012,-4.4318,-4.4323,-4.4488,-4.5055,-4.4689,-4.4323,-4.4323,-4.3846,-4.3497,-4.3497,-4.3497,-4.3497,-4.3497,-4.3497,-4.3497,-4.3497,-4.3497,-4.3497,-4.3497,-4.3497,-4.3027,-4.1941,-4.1632,-4.0868,-3.942,-3.9164,-3.8798,-3.8234,-3.8135,-3.8135,-3.8216,-3.7384,-3.7199,-3.7553,-3.6541,-3.6108,-3.6177,-3.6194,-3.6035,-3.5779,-3.5462,-3.5322,-3.5291,-3.4965,-3.4704,-3.4436,-3.4204,-3.3937,-3.3633,-3.308,-3.2916,-3.2916,-3.2916,-3.2916,-3.2916,-3.2916,-3.2916,-3.2723,-3.1906,-3.188,-3.201,-3.176,-3.1693,-3.1925,-3.2706,-3.2916,-3.2916,-3.2916,-3.2916,-3.2916,-3.2916,-3.3098,-3.3277,-3.3277,-3.3937,-3.4365,-3.4133,-3.4543,-3.4579,-3.3812,-3.3723,-3.3508,-3.2938,-3.2916,-3.2948,-3.3024,-3.2993,-3.3042,-3.3196,-3.287,-3.2665,-3.2665,-3.2432,-3.2319,-3.2361,-3.2746,-3.3001,-3.3064,-3.3001,-3.2969,-3.2969,-3.2969,-3.2948,-3.297,-3.3019,-3.3109,-3.3196,-3.3237,-3.3343,-3.3473,-3.3512,-3.3587,-3.3671,-3.3954,-3.4189,-3.4398,-4.3582,-4.3497,-4.3497,-4.3497,-4.3497,-4.3497,-4.3497,-4.3497,-4.3497,-4.3497,-4.3497,-4.3497,-4.3497,-4.3497,-4.3497,-4.3497,-4.3497,-4.3497,-4.3479,-4.3479,-4.313,-4.2323,-4.1526,-4.0634,-3.9604,-3.888,-3.851,-3.851,-3.8234,-3.8234,-3.8473,-3.7619,-3.7098,-3.6888,-3.6476,-3.6098,-3.5729,-3.5903,-3.5891,-3.5693,-3.4704,-3.4299,-3.4285,-3.4145,-3.3598,-3.3023,-3.3794,-3.358,-3.2916,-3.2916,-3.2916,-3.2916,-3.2916,-3.2916,-3.2916,-3.2916,-3.2916,-3.2741,-3.1923,-3.2272,-3.2723,-3.1888,-3.1696,-3.1906,-3.2723,-3.2916,-3.2916,-3.2916,-3.2916,-3.2916,-3.2916,-3.3544,-3.4097,-3.4097,-3.4704,-3.4936,-3.4204,-3.4097,-3.3794,-3.3005,-3.2916,-3.2916,-3.2916,-3.2916,-3.2916,-3.2916,-3.3024,-3.3196,-3.3393,-3.2632,-3.2198,-3.2198,-3.1409,-3.1084,-3.1195,-3.2475,-3.3203,-3.3388,-3.3203,-3.3108,-3.3108,-3.3108,-3.3091,-3.3117,-3.3288,-3.3412,-3.3421,-3.355,-3.3613,-3.3634,-3.3828,-3.4018,-3.4221,-3.4353,-3.4524,-3.4708,-4.387,-4.3771,-4.3716,-4.3516,-4.3497,-4.3497,-4.3497,-4.3497,-4.3497,-4.3497,-4.3497,-4.3497,-4.3497,-4.3497,-4.3497,-4.3497,-4.3497,-4.36,-4.3767,-4.3767,-4.3235,-4.1999,-4.1545,-4.0718,-3.9416,-3.9166,-3.9064,-3.9064,-3.898,-3.8683,-3.8201,-3.7941,-3.7729,-3.7487,-3.6454,-3.5985,-3.5926,-3.5361,-3.5084,-3.5053,-3.43,-3.429,-3.457,-3.3723,-3.3239,-3.306,-3.3216,-3.308,-3.2916,-3.2916,-3.2961,-3.3024,-3.3024,-3.2979,-3.2916,-3.2916,-3.2916,-3.2848,-3.2602,-3.2723,-3.2723,-3.1888,-3.2097,-3.2602,-3.2848,-3.2916,-3.2916,-3.2916,-3.2916,-3.2916,-3.2916,-3.308,-3.3241,-3.3241,-3.3437,-3.3491,-3.3277,-3.3241,-3.3216,-3.306,-3.3024,-3.3104,-3.3244,-3.3244,-3.3286,-3.3386,-3.3415,-3.3433,-3.3393,-3.3176,-3.2777,-3.2216,-3.1962,-3.1683,-3.1329,-3.2183,-3.2702,-3.291,-3.3433,-3.3662,-3.3662,-3.3526,-3.3454,-3.3447,-3.3515,-3.3633,-3.3765,-3.3961,-3.4086,-3.4179,-3.4227,-3.4274,-3.4363,-3.4542,-3.4647,-3.4708,-4.4109,-4.3999,-4.3929,-4.3719,-4.3667,-4.3615,-4.3532,-4.3497,-4.3497,-4.3497,-4.3497,-4.3497,-4.3497,-4.3582,-4.3667,-4.3667,-4.373,-4.386,-4.3986,-4.3739,-4.3066,-4.1967,-4.1418,-4.0588,-3.9317,-3.9376,-3.9427,-3.9427,-3.935,-3.9107,-3.8671,-3.8377,-3.8109,-3.788,-3.6919,-3.6279,-3.589,-3.5666,-3.5174,-3.454,-3.4455,-3.442,-3.4348,-3.359,-3.3291,-3.3262,-3.3055,-3.2979,-3.2961,-3.2916,-3.2948,-3.3024,-3.3024,-3.2979,-3.2916,-3.2961,-3.2948,-3.2916,-3.2969,-3.2952,-3.2809,-3.2358,-3.2559,-3.2916,-3.2916,-3.2916,-3.2916,-3.2916,-3.2916,-3.2916,-3.2916,-3.2916,-3.2991,-3.3312,-3.3098,-3.2991,-3.3312,-3.3144,-3.2993,-3.3086,-3.3165,-3.3274,-3.3393,-3.3393,-3.3452,-3.3605,-3.3605,-3.3577,-3.3549,-3.3257,-3.2912,-3.2482,-3.2153,-3.1912,-3.1727,-3.246,-3.2845,-3.2868,-3.3642,-3.4011,-3.4004,-3.3895,-3.3853,-3.3823,-3.389,-3.4005,-3.4101,-3.4325,-3.4446,-3.4517,-3.4564,-3.4607,-3.4645,-3.5107,-3.5073,-3.4848,-4.4298,-4.424,-4.4151,-4.3929,-4.3897,-4.38,-4.3532,-4.3497,-4.3532,-4.3513,-4.3532,-4.3548,-4.3548,-4.3781,-4.3929,-4.3929,-4.4091,-4.4192,-4.4221,-4.3492,-4.2754,-4.214,-4.1293,-4.0372,-3.9369,-3.9526,-3.9642,-3.9642,-3.9452,-3.9414,-3.951,-3.8851,-3.8399,-3.8122,-3.7643,-3.6769,-3.5778,-3.6452,-3.5797,-3.4364,-3.4921,-3.4722,-3.4016,-3.3752,-3.3634,-3.3625,-3.3232,-3.3147,-3.3117,-3.2979,-3.2916,-3.2916,-3.2916,-3.2916,-3.2948,-3.3055,-3.2993,-3.2934,-3.3104,-3.3051,-3.3006,-3.3105,-3.3039,-3.2943,-3.293,-3.2916,-3.2916,-3.2916,-3.2916,-3.2934,-3.2973,-3.3023,-3.3259,-3.4079,-3.3526,-3.3277,-3.4097,-3.3619,-3.3242,-3.3332,-3.3448,-3.3531,-3.3531,-3.3477,-3.3481,-3.3605,-3.3633,-3.3671,-3.3788,-3.3109,-3.279,-3.2895,-3.2219,-3.193,-3.2202,-3.3069,-3.3366,-3.3168,-3.3904,-3.4261,-3.4245,-3.4258,-3.4244,-3.4242,-3.4358,-3.4439,-3.4435,-3.464,-3.4716,-3.4728,-3.485,-3.4908,-3.5003,-3.578,-3.5571,-3.5003,-4.456,-4.4515,-4.4391,-4.3961,-4.3897,-4.38,-4.3532,-4.3497,-4.36,-4.38,-4.38,-4.3878,-4.403,-4.4091,-4.4121,-4.4121,-4.4162,-4.4298,-4.4505,-4.3697,-4.2975,-4.2361,-4.1548,-4.0692,-3.9777,-3.9804,-3.9826,-3.9826,-3.9781,-3.9482,-3.8921,-3.9353,-3.9217,-3.8556,-3.7749,-3.7192,-3.6791,-3.5771,-3.5324,-3.5272,-3.4944,-3.4974,-3.5144,-3.4371,-3.408,-3.4005,-3.3504,-3.3332,-3.3321,-3.3099,-3.3011,-3.2916,-3.3024,-3.2961,-3.2948,-3.3055,-3.3086,-3.3104,-3.3292,-3.3404,-3.3437,-3.3368,-3.3385,-3.3396,-3.3118,-3.2975,-3.2916,-3.2916,-3.2916,-3.308,-3.3723,-3.3847,-3.4097,-3.4847,-3.4329,-3.4097,-3.4865,-3.444,-3.433,-3.5105,-3.477,-3.4535,-3.4649,-3.4064,-3.3726,-3.3753,-3.3753,-3.378,-3.3807,-3.3781,-3.3494,-3.2913,-3.2892,-3.2657,-3.2202,-3.3069,-3.3524,-3.3564,-3.4376,-3.4755,-3.4737,-3.4632,-3.4595,-3.4584,-3.4622,-3.4648,-3.466,-3.4794,-3.487,-3.487,-3.4889,-3.4908,-3.4927,-3.5116,-3.5059,-3.4927,-4.4745,-4.4738,-4.4597,-4.4128,-4.4048,-4.3923,-4.3548,-4.36,-4.3734,-4.3865,-4.3974,-4.4079,-4.421,-4.4298,-4.443,-4.4522,-4.4549,-4.4433,-4.4228,-4.3421,-4.2635,-4.1911,-4.1095,-4.0428,-3.9908,-3.9889,-3.9721,-3.9323,-3.9721,-3.9494,-3.8738,-3.9532,-3.9683,-3.9248,-3.8793,-3.8107,-3.7268,-3.6896,-3.6153,-3.5268,-3.5373,-3.5352,-3.5208,-3.4645,-3.4363,-3.4245,-3.391,-3.3616,-3.3361,-3.316,-3.2993,-3.2916,-3.2961,-3.2948,-3.2948,-3.3165,-3.3238,-3.3309,-3.3559,-3.3689,-3.376,-3.3788,-3.375,-3.3658,-3.3393,-3.3284,-3.3273,-3.3343,-3.3302,-3.3485,-3.4315,-3.4384,-3.4717,-3.5867,-3.5418,-3.5184,-3.5957,-3.5525,-3.5307,-3.5836,-3.5677,-3.5538,-3.5595,-3.5331,-3.5118,-3.5,-3.4811,-3.4622,-3.4537,-3.4328,-3.4088,-3.3769,-3.3858,-3.378,-3.3488,-3.3941,-3.4188,-3.4282,-3.4699,-3.4908,-3.4908,-3.4831,-3.4793,-3.4794,-3.4787,-3.4809,-3.4813,-3.487,-3.4908,-3.4908,-3.4908,-3.4908,-3.4946,-3.5363,-3.5514,-3.5457,-4.4967,-4.4967,-4.4827,-4.4365,-4.4279,-4.4132,-4.3697,-4.3814,-4.3961,-4.4023,-4.417,-4.4298,-4.4327,-4.4541,-4.4745,-4.4943,-4.4967,-4.4649,-4.3866,-4.3066,-4.2208,-4.1333,-4.0515,-4.0015,-3.9911,-3.9889,-3.957,-3.8906,-3.957,-3.957,-3.8906,-3.9589,-3.9889,-3.9889,-3.9778,-3.8925,-3.7637,-3.8073,-3.7049,-3.5173,-3.5742,-3.5533,-3.4889,-3.479,-3.4626,-3.4454,-3.4269,-3.3831,-3.3302,-3.3178,-3.2993,-3.2916,-3.2948,-3.2961,-3.3055,-3.3375,-3.3512,-3.3616,-3.3902,-3.4012,-3.4068,-3.4154,-3.4111,-3.3975,-3.3768,-3.3688,-3.3715,-3.3854,-3.3768,-3.3973,-3.4944,-3.4973,-3.5387,-3.7003,-3.654,-3.6286,-3.7069,-3.663,-3.6249,-3.6377,-3.6472,-3.645,-3.6303,-3.6491,-3.6444,-3.6111,-3.5769,-3.5453,-3.5118,-3.4689,-3.4517,-3.4687,-3.4728,-3.479,-3.4908,-3.4908,-3.4908,-3.4908,-3.4908,-3.4908,-3.4908,-3.4908,-3.4908,-3.4908,-3.4908,-3.4908,-3.4908,-3.4908,-3.4908,-3.4908,-3.4908,-3.4984,-3.523,-3.6083,-3.631,-3.6102,-4.5254,-4.5254,-4.5129,-4.4695,-4.4624,-4.4493,-4.4162,-4.4151,-4.424,-4.4477,-4.4524,-4.4613,-4.4796,-4.4943,-4.5103,-4.5235,-4.5254,-4.4872,-4.4013,-4.3111,-4.221,-4.1333,-4.0412,-3.9911,-3.9889,-3.9889,-3.9832,-3.974,-3.9832,-3.9832,-3.974,-3.9832,-3.9889,-3.9851,-3.9172,-3.8736,-3.8454,-3.7087,-3.6329,-3.5969,-3.5325,-3.5003,-3.4908,-3.4889,-3.487,-3.4772,-3.4344,-3.3725,-3.3147,-3.3117,-3.2993,-3.2916,-3.3024,-3.319,-3.339,-3.3734,-3.3972,-3.413,-3.4293,-3.4454,-3.4498,-3.4197,-3.4363,-3.4539,-3.434,-3.4068,-3.3854,-3.388,-3.388,-3.4315,-3.5827,-3.5954,-3.6346,-3.8026,-3.7485,-3.7087,-3.7848,-3.743,-3.7301,-3.7981,-3.7644,-3.7055,-3.6358,-3.6491,-3.6204,-3.5238,-3.5435,-3.5211,-3.4303,-3.4506,-3.4666,-3.4687,-3.4811,-3.4889,-3.4908,-3.4908,-3.4908,-3.4908,-3.4908,-3.4908,-3.4908,-3.4908,-3.4908,-3.4908,-3.4908,-3.4908,-3.4908,-3.4908,-3.4908,-3.4908,-3.4908,-3.5363,-3.6121,-3.6936,-3.6803,-3.6178,-4.5297,-4.5297,-4.5173,-4.477,-4.4701,-4.4591,-4.425,-4.4346,-4.4511,-4.4655,-4.4852,-4.5014,-4.5125,-4.517,-4.5254,-4.5297,-4.4857,-4.4208,-4.3329,-4.2466,-4.1587,-4.0687,-4.0226,-3.9994,-3.9911,-3.9889,-3.9889,-3.9889,-3.9889,-3.9683,-3.9248,-3.9702,-3.9889,-3.987,-3.9532,-3.9115,-3.8624,-3.739,-3.6613,-3.6121,-3.5249,-3.4908,-3.4908,-3.4908,-3.485,-3.473,-3.4316,-3.3954,-3.3662,-3.3357,-3.328,-3.3273,-3.3262,-3.3458,-3.3715,-3.3979,-3.4179,-3.4348,-3.4517,-3.4689,-3.4771,-3.4588,-3.4691,-3.4923,-3.5315,-3.5284,-3.518,-3.518,-3.5487,-3.6109,-3.7262,-3.7307,-3.7526,-3.8612,-3.8431,-3.82,-3.8428,-3.8204,-3.8175,-3.8541,-3.8346,-3.8028,-3.7679,-3.7839,-3.7701,-3.711,-3.6689,-3.6194,-3.5622,-3.5114,-3.4811,-3.4811,-3.487,-3.4908,-3.4908,-3.4908,-3.4908,-3.4908,-3.4908,-3.4908,-3.4908,-3.4908,-3.4908,-3.4908,-3.4908,-3.4908,-3.4908,-3.4908,-3.4908,-3.4908,-3.4908,-3.5135,-3.5514,-3.5874,-3.578,-3.5496]}]]